Date StartTime U_cm/s V_cm/s W_cm/s Ustd_cm/s Vstd_cm/s Wstd_cm/s Uvar_(cm/s)^2 Vvar_(cm/s)^2 Wvar_(cm/s)^2 KE_(m/s)^2 TurbulentKE_(m/s)^2 HorizWindSpeed_cm/s FrictionSpeec_cm/s DragCoef SpeedOfSound_m/s SonicTemperature_C Pressure_mb 
05/17/2013  00:00:00      -52.586      -44.372       -1.953       42.597       26.148       20.932     1814.491      683.715      438.143        0.384        0.147       68.805       16.661        0.059      339.381       12.676      858.114
05/17/2013  00:01:00      -30.688      -29.976        6.065       24.430       22.329       13.996      596.823      498.604      195.882        0.158        0.065       42.899        8.357        0.038      339.308       12.553      858.110
05/17/2013  00:02:00      -39.732      -35.993        2.719       36.313       32.376       18.843     1318.651     1048.210      355.040        0.280        0.136       53.610        6.166        0.013      339.361       12.641      858.106
05/17/2013  00:03:00      -35.271      -76.284        6.461       28.626       45.206       20.270      819.420     2043.565      410.855        0.519        0.164       84.043       18.667        0.049      339.329       12.589      858.098
05/17/2013  00:04:00     -107.814      -77.407        0.798       44.058       34.445       25.633     1941.141     1186.431      657.069        1.070        0.189      132.725       24.868        0.035      339.343       12.611      858.093
05/17/2013  00:05:00      -61.258      -35.821        1.184       45.944       24.534       22.490     2110.832      601.914      505.788        0.413        0.161       70.962       24.492        0.119      339.314       12.564      858.090
05/17/2013  00:06:00      -75.222      -53.313        3.328       36.057       31.001       21.782     1300.137      961.060      474.475        0.562        0.137       92.199       14.863        0.026      339.330       12.589      858.088
05/17/2013  00:07:00      -82.915      -61.101       -2.642       48.935       42.049       20.245     2394.600     1768.101      409.864        0.759        0.229      102.997       21.697        0.044      339.337       12.601      858.083
05/17/2013  00:08:00     -115.811      -77.715       -2.368       56.412       36.564       24.261     3182.331     1336.926      588.583        1.228        0.255      139.470       25.856        0.034      339.298       12.535      858.081
05/17/2013  00:09:00      -96.222      -77.053        0.542       42.394       43.700       19.764     1797.271     1909.712      390.599        0.965        0.205      123.271       15.241        0.015      339.310       12.555      858.077
05/17/2013  00:10:00     -117.798      -95.103        5.443       57.546       37.929       29.092     3311.529     1438.590      846.335        1.427        0.280      151.396       32.027        0.045      339.304       12.546      858.069
05/17/2013  00:11:00     -125.079      -66.957        5.171       79.373       55.537       33.570     6300.073     3084.320     1126.937        1.533        0.526      141.873       38.168        0.072      339.291       12.523      858.062
05/17/2013  00:12:00     -139.640      -29.193       -3.268       75.335       42.166       22.614     5675.347     1777.988      511.379        1.416        0.398      142.659       24.387        0.029      339.278       12.501      858.054
05/17/2013  00:13:00     -121.307       -0.319        7.784       75.923       38.550       33.060     5764.231     1486.133     1092.932        1.156        0.417      121.308       36.919        0.093      339.302       12.541      858.053
05/17/2013  00:14:00     -190.547      -60.890       -7.788       47.540       85.420       31.162     2260.060     7296.563      971.089        2.530        0.526      200.040       28.461        0.020      339.332       12.590      858.039
05/17/2013  00:15:00     -193.108      -73.203       -8.301       60.051       58.782       31.470     3606.094     3455.279      990.372        2.538        0.403      206.517       25.470        0.015      339.317       12.563      858.039
05/17/2013  00:16:00     -108.293      -46.376        6.645       58.011       55.823       29.083     3365.218     3116.171      845.838        1.062        0.366      117.806       31.442        0.071      339.321       12.573      858.043
05/17/2013  00:17:00     -117.731      -22.003       -2.267       42.061       36.054       20.716     1769.102     1299.900      429.159        0.892        0.175      119.769       19.821        0.027      339.384       12.681      858.041
05/17/2013  00:18:00     -173.169      -46.580       -5.277       52.858       45.820       24.611     2794.004     2099.435      605.717        1.884        0.275      179.325       21.478        0.014      339.298       12.535      858.043
05/17/2013  00:19:00     -168.056      -68.142        3.068      115.574       46.629       32.333    13357.401     2174.274     1045.392        2.473        0.829      181.345       42.552        0.055      339.322       12.574      858.036
05/17/2013  00:20:00     -196.666     -143.748       -8.251       99.785       75.642       47.082     9957.075     5721.643     2216.688        3.865        0.895      243.600       41.136        0.029      339.281       12.504      858.029
05/17/2013  00:21:00     -160.928      -72.271        3.377       81.010       62.719       42.825     6562.612     3933.726     1833.983        2.173        0.617      176.411       39.972        0.051      339.261       12.472      858.040
05/17/2013  00:22:00     -166.310      -95.574      -12.058       66.142       61.746       32.979     4374.717     3812.625     1087.632        2.311        0.464      191.816       40.355        0.044      339.306       12.545      858.040
05/17/2013  00:23:00     -112.727      -83.214      -10.025       83.637       54.652       32.023     6995.083     2986.826     1025.493        1.537        0.550      140.114       36.384        0.067      339.335       12.596      858.039
05/17/2013  00:24:00      -94.097      -96.469        8.677       64.308       55.134       34.774     4135.577     3039.742     1209.230        1.331        0.419      134.761       40.690        0.091      339.313       12.561      858.038
05/17/2013  00:25:00     -115.129      -99.656        7.116       95.598       64.321       42.031     9138.895     4137.199     1766.608        1.914        0.752      152.270       51.775        0.116      339.307       12.547      858.036
05/17/2013  00:26:00     -166.929      -97.870        1.298       81.919       54.136       41.112     6710.670     2930.742     1690.202        2.439        0.567      193.504       42.022        0.047      339.246       12.444      858.028
05/17/2013  00:27:00     -207.763      -66.187       -7.783       80.519       55.836       38.667     6483.349     3117.670     1495.155        2.935        0.555      218.051       26.644        0.015      339.231       12.419      858.024
05/17/2013  00:28:00     -188.452     -123.805      -13.959       91.897       94.677       44.310     8445.028     8963.748     1963.403        3.520        0.969      225.481       47.817        0.045      339.193       12.355      858.017
05/17/2013  00:29:00     -220.467     -143.584      -13.261       85.101       67.036       45.727     7242.254     4493.801     2090.937        4.161        0.691      263.101       36.533        0.019      339.197       12.363      858.021
05/17/2013  00:30:00     -198.731     -112.804       -8.179       91.967       74.364       39.379     8457.922     5529.933     1550.736        3.391        0.777      228.514       36.823        0.026      339.145       12.274      858.020
05/17/2013  00:31:00     -146.247     -103.099        1.993       90.072       69.343       43.231     8112.978     4808.497     1868.890        2.340        0.740      178.935       48.090        0.072      339.183       12.340      858.019
05/17/2013  00:32:00     -155.094     -129.305      -10.256       80.861       74.101       40.952     6538.443     5490.992     1677.048        2.729        0.685      201.926       40.547        0.040      339.184       12.339      858.019
05/17/2013  00:33:00     -176.111      -94.216        7.442       87.477       57.556       33.944     7652.193     3312.655     1152.188        2.603        0.606      199.729       41.291        0.043      339.177       12.328      858.022
05/17/2013  00:34:00     -190.979      -88.788        1.127       90.019       65.473       43.868     8103.348     4286.732     1924.359        2.933        0.716      210.610       38.716        0.034      339.210       12.384      858.018
05/17/2013  00:35:00     -128.169      -48.198       10.729       94.399       53.996       41.342     8911.081     2915.595     1709.157        1.620        0.677      136.931       42.134        0.095      339.203       12.377      858.026
05/17/2013  00:36:00      -72.872      -58.822      -10.564       61.171       57.487       34.972     3741.934     3304.775     1223.031        0.857        0.413       93.650       28.693        0.094      339.248       12.452      858.017
05/17/2013  00:37:00     -129.285      -54.621       -2.935       63.697       55.329       27.957     4057.300     3061.352      781.614        1.380        0.395      140.349       27.499        0.038      339.230       12.420      858.019
05/17/2013  00:38:00     -167.736     -140.527       -7.144      110.418       85.233       43.937    12192.172     7264.681     1930.450        3.466        1.069      218.822       56.839        0.067      339.226       12.412      858.004
05/17/2013  00:39:00     -219.733     -127.846       -6.122      107.881       92.908       40.847    11638.360     8631.916     1668.445        4.330        1.097      254.219       45.310        0.032      339.174       12.323      857.987
05/17/2013  00:40:00     -154.326     -171.980       -9.576       79.805       79.009       45.934     6368.867     6242.371     2109.887        3.410        0.736      231.070       49.918        0.047      339.189       12.349      857.992
05/17/2013  00:41:00     -151.195      -84.793       -2.601       75.772       54.557       41.044     5741.383     2976.482     1684.633        2.023        0.520      173.349       42.143        0.059      339.209       12.383      857.991
05/17/2013  00:42:00     -131.748      -75.846       -4.236       94.443       54.605       27.871     8919.554     2981.760      776.811        1.790        0.634      152.021       37.865        0.062      339.181       12.336      857.983
05/17/2013  00:43:00     -135.868     -106.547       -8.664       75.157       42.174       32.421     5648.590     1778.686     1051.120        1.918        0.424      172.663       24.325        0.020      339.218       12.398      857.968
05/17/2013  00:44:00     -100.335      -49.697       15.825       95.785       50.127       37.650     9174.843     2512.751     1417.525        1.294        0.655      111.969       45.519        0.165      339.194       12.359      857.971
05/17/2013  00:45:00     -155.904     -117.965        0.076       80.472       67.319       39.962     6475.806     4531.786     1596.973        2.541        0.630      195.504       41.033        0.044      339.190       12.350      857.981
05/17/2013  00:46:00     -212.309     -116.048      -15.591      101.080       79.156       49.351    10217.108     6265.672     2435.521        3.885        0.946      241.955       58.541        0.059      339.160       12.299      857.980
05/17/2013  00:47:00     -129.529      -75.277        3.590      104.131       78.743       49.505    10843.162     6200.514     2450.737        2.097        0.975      149.815       50.677        0.114      339.191       12.354      857.967
05/17/2013  00:48:00     -211.277     -155.954      -16.978       70.648       59.475       36.063     4991.186     3537.224     1300.533        3.954        0.491      262.602       32.395        0.015      339.182       12.336      857.960
05/17/2013  00:49:00     -112.471      -23.923        2.109       79.192       55.857       33.711     6271.426     3120.017     1136.419        1.188        0.526      114.987       32.412        0.079      339.183       12.342      857.950
05/17/2013  00:50:00      -56.937      -39.733        3.144       61.979       59.510       41.367     3841.371     3541.400     1711.208        0.696        0.455       69.430       39.941        0.331      339.230       12.422      857.941
05/17/2013  00:51:00     -157.218     -129.429      -15.054       91.360       65.679       40.199     8346.682     4313.772     1615.931        2.798        0.714      203.641       32.773        0.026      339.199       12.366      857.935
05/17/2013  00:52:00     -142.329      -83.583      -12.825       68.226       76.609       30.252     4654.737     5869.012      915.192        1.942        0.572      165.057       28.476        0.030      339.187       12.347      857.934
05/17/2013  00:53:00     -239.854      -70.165       -5.455       72.943       76.460       41.437     5320.747     5846.176     1717.058        3.768        0.644      249.906       34.413        0.019      339.155       12.290      857.936
05/17/2013  00:54:00     -192.136      -49.539      -10.733       93.500       68.894       39.009     8742.200     4746.380     1521.704        2.725        0.751      198.420       49.499        0.062      339.165       12.307      857.940
05/17/2013  00:55:00      -67.751      -58.197       16.258       79.549       61.824       50.400     6328.013     3822.266     2540.178        1.046        0.635       89.315       53.515        0.359      339.199       12.368      857.947
05/17/2013  00:56:00      -29.498      -58.688       22.631       73.841       70.929       47.948     5452.440     5030.869     2299.020        0.880        0.639       65.685       48.867        0.553      339.192       12.355      857.954
05/17/2013  00:57:00     -125.742     -144.065       -7.999       83.513       70.251       51.494     6974.409     4935.140     2651.677        2.559        0.728      191.222       53.157        0.077      339.187       12.345      857.957
05/17/2013  00:58:00     -169.695      -82.950       -6.029       64.082       56.316       36.376     4106.477     3171.506     1323.178        2.216        0.430      188.884       27.964        0.022      339.160       12.299      857.952
05/17/2013  00:59:00      -98.636      -45.881        0.023       74.421       43.903       30.678     5538.551     1927.451      941.130        1.012        0.420      108.785       24.887        0.052      339.160       12.303      857.947
05/17/2013  01:00:00      -91.483     -121.067       -0.556       76.036       67.847       37.729     5781.491     4603.275     1423.500        1.742        0.590      151.745       35.051        0.053      339.202       12.374      857.935
05/17/2013  01:01:00     -140.113     -117.796       -3.806       91.801       66.720       45.506     8427.477     4451.577     2070.754        2.423        0.747      183.051       53.559        0.086      339.142       12.270      857.925
05/17/2013  01:02:00      -36.946      -73.013        4.731       38.792       46.982       29.148     1504.799     2207.346      849.583        0.564        0.228       81.828       20.559        0.063      339.192       12.357      857.919
05/17/2013  01:03:00     -144.780     -133.629       -3.356       55.751       73.854       39.736     3108.169     5454.374     1578.928        2.448        0.507      197.023       31.389        0.025      339.176       12.328      857.912
05/17/2013  01:04:00      -87.360      -75.491       12.496       57.333       52.843       33.045     3287.037     2792.420     1091.960        1.033        0.359      115.459       32.162        0.078      339.173       12.324      857.903
05/17/2013  01:05:00      -67.644      -43.270        7.687       53.985       53.334       30.113     2914.392     2844.480      906.794        0.659        0.333       80.300       29.518        0.135      339.207       12.382      857.907
05/17/2013  01:06:00     -130.446      -60.955       -2.801       54.529       38.740       32.296     2973.452     1500.760     1043.059        1.313        0.276      143.986       18.816        0.017      339.217       12.400      857.907
05/17/2013  01:07:00     -112.969      -90.491       -2.065       76.042       55.604       38.512     5782.398     3091.789     1483.169        1.565        0.518      144.744       38.295        0.070      339.179       12.334      857.892
05/17/2013  01:08:00     -128.869      -76.462        1.674       80.683       49.114       32.609     6509.797     2412.224     1063.375        1.622        0.499      149.845       26.442        0.031      339.181       12.336      857.865
05/17/2013  01:09:00      -96.944      -13.984        7.978       86.445       66.770       49.949     7472.723     4458.175     2494.922        1.204        0.721       97.947       50.153        0.262      339.159       12.299      857.845
05/17/2013  01:10:00     -135.926     -105.309        7.290       89.192       73.882       44.422     7955.239     5458.488     1973.316        2.250        0.769      171.947       50.286        0.086      339.150       12.282      857.826
05/17/2013  01:11:00     -231.405      -28.744       -3.883       79.208       80.861       40.440     6273.967     6538.570     1635.431        3.442        0.722      233.183       35.542        0.023      339.141       12.268      857.821
05/17/2013  01:12:00     -190.744      -30.972        2.822       87.911       92.672       47.558     7728.356     8588.153     2261.744        2.796        0.929      193.242       42.475        0.048      339.114       12.223      857.808
05/17/2013  01:13:00     -129.031      -84.455       12.628      131.312       99.546       42.203    17242.916     9909.314     1781.060        2.643        1.447      154.213       56.391        0.134      339.176       12.329      857.807
05/17/2013  01:14:00     -193.596      -55.184       -4.779       93.449       75.303       43.075     8732.740     5670.559     1855.469        2.840        0.813      201.307       42.780        0.045      339.111       12.218      857.813
05/17/2013  01:15:00     -260.916     -147.578      -17.364      109.405       84.401       60.907    11969.551     7123.558     3709.614        5.648        1.140      299.760       62.263        0.043      339.112       12.219      857.803
05/17/2013  01:16:00     -230.241      -73.421      -15.606       97.822       86.595       41.113     9569.177     7498.661     1690.248        3.870        0.938      241.665       40.610        0.028      339.139       12.263      857.796
05/17/2013  01:17:00     -197.554     -124.900       -0.425      121.302       85.798       60.141    14714.057     7361.295     3616.972        4.016        1.285      233.725       67.991        0.085      339.159       12.298      857.783
05/17/2013  01:18:00     -143.653     -107.860      -12.220       78.180       70.602       46.428     6112.175     4984.619     2155.526        2.283        0.663      179.639       43.863        0.060      339.135       12.258      857.776
05/17/2013  01:19:00     -184.177      -55.199       -3.261      129.923       79.484       45.756    16879.937     6317.686     2093.626        3.113        1.265      192.271       62.093        0.104      339.145       12.276      857.764
05/17/2013  01:20:00     -251.143      -23.904       -7.750      134.177       84.054       47.495    18003.596     7065.050     2255.769        4.551        1.366      252.278       56.008        0.049      339.131       12.250      857.734
05/17/2013  01:21:00     -223.202      -60.688      -14.284       94.265       89.542       51.373     8885.971     8017.694     2639.149        3.662        0.977      231.305       51.918        0.050      339.146       12.275      857.718
05/17/2013  01:22:00     -200.937      -39.759       -9.753       77.327       79.331       40.926     5979.474     6293.378     1674.901        2.800        0.697      204.833       35.032        0.029      339.123       12.237      857.722
05/17/2013  01:23:00     -277.657       -9.278      -14.440      141.908       85.382       45.742    20138.009     7290.153     2092.307        5.345        1.476      277.812       59.839        0.046      339.122       12.235      857.720
05/17/2013  01:24:00     -162.967      -55.308       -7.611      101.563       62.051       38.978    10315.072     3850.338     1519.263        2.268        0.784      172.096       37.184        0.047      339.162       12.304      857.709
05/17/2013  01:25:00     -132.814       19.486      -14.092       73.998       78.307       34.360     5475.729     6131.921     1180.627        1.550        0.639      134.236       31.019        0.053      339.148       12.282      857.704
05/17/2013  01:26:00      -76.792      -39.725       -2.481       50.546       33.481       20.645     2554.914     1120.998      426.215        0.579        0.205       86.459        7.674        0.008      339.153       12.292      857.707
05/17/2013  01:27:00     -173.872        2.459      -14.475       62.269       52.212       31.355     3877.429     2726.117      983.119        1.902        0.379      173.889       32.207        0.034      339.138       12.265      857.711
05/17/2013  01:28:00     -170.757      -87.683        4.014       86.280       64.434       41.701     7444.298     4151.682     1739.004        2.510        0.667      191.954       47.629        0.062      339.112       12.219      857.706
05/17/2013  01:29:00     -150.112      -44.296        3.245       68.036       43.109       32.531     4628.902     1858.378     1058.298        1.602        0.377      156.511       28.498        0.033      339.150       12.286      857.708
05/17/2013  01:30:00     -199.917      -27.805      -17.931       72.708       46.334       34.508     5286.398     2146.819     1190.829        2.484        0.431      201.841       31.478        0.024      339.128       12.248      857.711
05/17/2013  01:31:00     -234.838      -63.378      -13.962       83.239       60.611       44.867     6928.704     3673.743     2013.023        3.599        0.631      243.240       45.643        0.035      339.139       12.264      857.711
05/17/2013  01:32:00     -321.634       -7.581      -23.896       73.874       91.353       40.017     5457.330     8345.410     1601.328        5.974        0.770      321.723       36.696        0.013      339.136       12.259      857.704
05/17/2013  01:33:00     -225.248      -75.218       -3.351       92.510       91.992       49.106     8558.025     8462.453     2411.429        3.792        0.972      237.475       41.614        0.031      339.156       12.295      857.695
05/17/2013  01:34:00     -138.254     -104.544       13.925      136.234      132.622       83.072    18559.639    17588.677     6901.014        3.664        2.152      173.331       85.772        0.245      339.231       12.421      857.662
05/17/2013  01:35:00     -170.059      -32.432       -0.566      146.358       86.567       52.545    21420.783     7493.834     2760.955        3.082        1.584      173.124       54.251        0.098      339.207       12.381      857.667
05/17/2013  01:36:00     -190.338      -31.157       -4.023       86.496       72.942       47.209     7481.498     5320.492     2228.648        2.612        0.752      192.871       44.764        0.054      339.171       12.319      857.654
05/17/2013  01:37:00     -276.773      -26.538       -4.765      154.268       77.840       58.061    23798.685     6059.078     3371.111        5.527        1.661      278.042       71.113        0.065      339.166       12.310      857.636
05/17/2013  01:38:00     -243.367     -106.602       -4.076      119.112      134.442       60.787    14187.616    18074.662     3695.007        5.328        1.798      265.691       61.938        0.054      339.187       12.346      857.627
05/17/2013  01:39:00     -266.013      -92.081       -4.115      131.187      101.202       67.515    17210.100    10241.792     4558.280        5.563        1.601      281.500       66.117        0.055      339.182       12.336      857.623
05/17/2013  01:40:00     -174.836      -54.735       -1.310       80.426       86.534       48.500     6468.303     7488.084     2352.259        2.493        0.815      183.204       41.703        0.052      339.206       12.379      857.608
05/17/2013  01:41:00     -188.001      -28.214      -11.369      123.456       86.180       56.429    15241.396     7426.910     3184.207        3.106        1.293      190.106       62.240        0.107      339.195       12.361      857.581
05/17/2013  01:42:00     -312.196     -102.765      -12.986      135.513       88.024       56.257    18363.675     7748.175     3164.893        6.873        1.464      328.674       63.674        0.038      339.179       12.331      857.573
05/17/2013  01:43:00     -233.943       -6.433       -8.234      109.540       83.820       55.425    11998.999     7025.786     3071.896        3.846        1.105      234.032       59.880        0.065      339.152       12.286      857.544
05/17/2013  01:44:00     -285.867     -110.127      -11.471      191.051      136.430       77.472    36500.674    18613.170     6001.845        7.754        3.056      306.346       82.226        0.072      339.169       12.316      857.518
05/17/2013  01:45:00     -293.732      -25.263      -14.026      114.553      113.232       62.351    13122.436    12821.399     3887.652        5.847        1.492      294.816       54.679        0.034      339.162       12.303      857.505
05/17/2013  01:46:00     -234.234      -42.811       -3.898      147.880       84.522       53.545    21868.380     7143.998     2867.081        4.429        1.594      238.115       66.260        0.077      339.180       12.334      857.513
05/17/2013  01:47:00     -271.135      -88.377       -3.890      137.452      107.659       61.838    18893.034    11590.366     3823.916        5.782        1.715      285.175       55.030        0.037      339.164       12.308      857.493
05/17/2013  01:48:00     -342.042      -83.100       -3.876      148.690      136.759       80.484    22108.647    18702.917     6477.675        8.559        2.364      351.992       72.819        0.043      339.160       12.300      857.473
05/17/2013  01:49:00     -337.956      -57.526      -25.062      172.014      137.261       60.439    29588.904    18840.524     3652.874        8.511        2.604      342.817       47.775        0.019      339.179       12.333      857.457
05/17/2013  01:50:00     -442.879      -81.571       -8.218      178.822      109.694       74.248    31977.484    12032.679     5512.807       12.618        2.476      450.328       87.956        0.038      339.136       12.260      857.442
05/17/2013  01:51:00     -308.208      -14.013       -5.781      136.489       87.376       57.745    18629.236     7634.490     3334.436        6.241        1.480      308.526       69.443        0.051      339.141       12.269      857.443
05/17/2013  01:52:00     -307.748      -13.406      -25.261      170.377      106.955       68.497    29028.436    11439.454     4691.794        7.034        2.258      308.040       73.148        0.056      339.141       12.268      857.437
05/17/2013  01:53:00     -326.918     -113.589       -7.979      121.557      115.892       59.674    14776.039    13430.892     3560.990        7.580        1.588      346.090       64.547        0.035      339.135       12.258      857.418
05/17/2013  01:54:00     -470.538      -79.522      -21.036      180.766      102.839       77.054    32676.413    10575.878     5937.281       13.867        2.459      477.211       79.234        0.028      339.107       12.211      857.404
05/17/2013  01:55:00     -333.075      -84.524      -13.543      135.403       96.945       61.483    18333.936     9398.377     3780.165        7.488        1.576      343.632       63.754        0.034      339.120       12.231      857.396
05/17/2013  01:56:00     -235.902      -52.383        3.582      126.485       91.143       56.231    15998.518     8307.086     3161.910        4.293        1.373      241.648       61.101        0.064      339.140       12.268      857.391
05/17/2013  01:57:00     -284.662      -30.670        6.988      167.015      109.876       63.148    27893.946    12072.828     3987.724        6.298        2.198      286.309       64.489        0.051      339.129       12.247      857.371
05/17/2013  01:58:00     -315.069      -68.356      -15.431      109.573      116.828       52.698    12006.305    13648.864     2777.085        6.630        1.422      322.399       33.344        0.011      339.129       12.247      857.369
05/17/2013  01:59:00     -405.217      -47.640      -27.341      160.312      119.449       67.939    25700.076    14268.178     4615.745       10.589        2.229      408.008       64.026        0.025      339.115       12.224      857.362
05/17/2013  02:00:00     -391.941     -123.297      -11.654      140.363      115.401       69.059    19701.676    13317.313     4769.121       10.337        1.889      410.877       77.056        0.035      339.111       12.218      857.361
05/17/2013  02:01:00     -247.329      -65.262       -2.676      152.059       97.485       55.517    23121.969     9503.240     3082.167        5.057        1.785      255.794       64.108        0.063      339.109       12.215      857.360
05/17/2013  02:02:00     -358.272     -157.002      -10.808      181.775      122.245       76.932    33041.978    14943.932     5918.511       10.351        2.695      391.163       86.513        0.049      339.099       12.197      857.351
05/17/2013  02:03:00     -334.600      -10.103      -23.744      131.528      168.933       69.026    17299.566    28538.452     4764.597        8.160        2.530      334.753       61.926        0.034      339.092       12.184      857.326
05/17/2013  02:04:00     -198.696      -36.438       18.529      183.919      119.347       79.232    33826.341    14243.804     6277.715        4.774        2.717      202.010       81.105        0.161      339.114       12.223      857.324
05/17/2013  02:05:00     -333.596      -38.468      -12.165      177.223      126.631       79.433    31408.080    16035.523     6309.574        8.332        2.688      335.807       98.783        0.087      339.070       12.149      857.323
05/17/2013  02:06:00     -250.450      -15.803       -5.721      146.064      105.970       54.731    21334.749    11229.564     2995.428        4.928        1.778      250.948       63.581        0.064      339.090       12.182      857.317
05/17/2013  02:07:00     -348.798      -66.588      -22.800      146.636      106.898       71.615    21502.238    11427.108     5128.639        8.233        1.903      355.097       70.480        0.039      339.067       12.144      857.293
05/17/2013  02:08:00     -262.549      -59.027      -14.811      140.146      117.186       68.476    19641.011    13732.600     4688.945        5.534        1.903      269.102       72.773        0.073      339.069       12.148      857.299
05/17/2013  02:09:00     -124.796      -66.896        4.491      101.845       84.967       47.726    10372.407     7219.412     2277.815        1.997        0.993      141.595       49.484        0.122      339.143       12.273      857.296
05/17/2013  02:10:00     -271.318      -37.099      -11.088      136.690      116.109       54.983    18684.065    13481.354     3023.116        5.514        1.759      273.842       57.903        0.045      339.077       12.160      857.295
05/17/2013  02:11:00     -298.470     -108.052      -10.230      152.705      127.712       61.514    23318.727    16310.420     3783.980        7.213        2.171      317.426       62.707        0.039      339.054       12.122      857.271
05/17/2013  02:12:00     -287.478      -51.496      -15.319      117.032      114.624       55.129    13696.493    13138.769     3039.224        5.770        1.494      292.053       52.197        0.032      339.032       12.086      857.275
05/17/2013  02:13:00     -367.707      -62.034      -24.392      110.317       98.271       60.996    12169.742     9657.207     3720.475        8.260        1.277      372.904       58.352        0.024      339.035       12.091      857.281
05/17/2013  02:14:00     -511.400       -9.593      -38.557      146.561      121.569       68.624    21480.105    14779.063     4709.264       15.203        2.048      511.490       74.035        0.021      339.023       12.071      857.261
05/17/2013  02:15:00     -392.081      -94.171        5.815      162.446      153.480       84.169    26388.717    23556.149     7084.369       10.982        2.851      403.231       87.011        0.047      339.042       12.101      857.263
05/17/2013  02:16:00     -370.743      -94.006      -18.919      181.864      152.449       74.228    33074.689    23240.570     5509.727       10.422        3.091      382.475       72.521        0.036      339.053       12.119      857.294
05/17/2013  02:17:00     -224.555      -63.527      -26.534      121.209       68.048       47.290    14691.590     4630.482     2236.321        3.836        1.078      233.368       46.829        0.040      339.062       12.137      857.306
05/17/2013  02:18:00     -208.144     -100.770      -11.053      114.036      116.809       58.295    13004.106    13644.336     3398.305        4.182        1.502      231.254       58.301        0.064      339.075       12.157      857.310
05/17/2013  02:19:00     -305.494      -58.697      -34.572      104.694       73.294       45.516    10960.813     5372.036     2071.670        5.818        0.920      311.082       48.670        0.024      339.064       12.139      857.310
05/17/2013  02:20:00     -308.211      -24.022      -17.695      182.098       96.836       75.959    33159.856     9377.222     5769.772        7.209        2.415      309.146       93.130        0.091      339.043       12.103      857.311
05/17/2013  02:21:00     -311.722      -49.835       -9.244      176.448      149.352       70.950    31134.033    22305.896     5033.892        7.910        2.924      315.680       86.959        0.076      339.064       12.138      857.317
05/17/2013  02:22:00     -209.037     -104.111        1.475      124.872       99.377       62.342    15592.966     9875.735     3886.546        4.194        1.468      233.528       65.008        0.077      339.070       12.149      857.306
05/17/2013  02:23:00     -218.879      -88.039        3.128      138.270      106.324       62.506    19118.535    11304.840     3907.057        4.499        1.717      235.922       67.795        0.083      339.064       12.139      857.292
05/17/2013  02:24:00     -322.580      -46.057      -36.058      129.124       94.495       55.164    16672.960     8929.396     3043.041        6.806        1.432      325.851       62.076        0.036      339.046       12.108      857.277
05/17/2013  02:25:00     -444.804      -59.108      -25.396      159.095      141.559       67.772    25311.140    20038.888     4593.075       12.596        2.497      448.714       59.089        0.017      339.029       12.080      857.279
05/17/2013  02:26:00     -351.755     -118.447       -4.038      140.079      139.853       69.211    19622.049    19558.910     4790.225        9.087        2.199      371.162       80.231        0.047      339.033       12.087      857.273
05/17/2013  02:27:00     -225.294      -74.411       -4.653      109.475       87.611       49.355    11984.770     7675.609     2435.886        3.920        1.105      237.265       50.891        0.046      339.026       12.076      857.282
05/17/2013  02:28:00     -270.275      -70.650        4.219      121.489      125.300       64.247    14759.567    15700.099     4127.617        5.632        1.729      279.357       61.968        0.049      339.033       12.087      857.282
05/17/2013  02:29:00     -330.683        8.588      -14.882      163.544      107.083       67.494    26746.750    11466.765     4555.434        7.620        2.138      330.794       76.909        0.054      339.022       12.068      857.288
05/17/2013  02:30:00     -274.312     -138.355       -8.679      168.359      150.724       68.651    28344.915    22717.714     4712.966        7.511        2.789      307.228       65.410        0.045      339.042       12.103      857.284
05/17/2013  02:31:00     -283.696     -135.168      -17.794      122.940      100.218       43.957    15114.360    10043.635     1932.225        6.308        1.355      314.251       46.225        0.022      339.035       12.089      857.301
05/17/2013  02:32:00     -156.392       -2.893        8.334      100.978       82.830       53.026    10196.551     6860.815     2811.805        2.220        0.993      156.419       50.568        0.105      339.039       12.097      857.281
05/17/2013  02:33:00     -293.337      -85.180       -7.458      138.409       82.526       46.058    19157.090     6810.503     2121.302        6.072        1.404      305.454       36.030        0.014      339.026       12.073      857.305
05/17/2013  02:34:00     -269.298     -152.983      -10.857      122.462      141.596       60.548    14997.030    20049.365     3666.099        6.737        1.936      309.718       53.604        0.030      339.004       12.039      857.296
05/17/2013  02:35:00     -460.095      -68.618      -40.364      174.411      149.376       67.251    30419.093    22313.270     4522.761       13.763        2.863      465.183       62.235        0.018      338.982       12.000      857.297
05/17/2013  02:36:00     -374.444     -130.516      -10.190      161.777      106.449       73.577    26171.837    11331.293     5413.602       10.012        2.146      396.539       70.146        0.031      338.989       12.014      857.298
05/17/2013  02:37:00     -222.441      -74.891      -19.828      138.364      106.181       64.438    19144.587    11274.365     4152.226        4.502        1.729      234.710       53.185        0.051      338.989       12.013      857.312
05/17/2013  02:38:00     -210.190      -54.980       -8.823      133.452      143.323       67.121    17809.327    20541.551     4505.292        4.506        2.143      217.262       55.703        0.066      338.980       11.998      857.313
05/17/2013  02:39:00     -338.475      -93.306      -14.555      158.691      137.992       69.011    25182.722    19041.716     4762.554        8.623        2.449      351.100       79.445        0.051      338.968       11.978      857.304
05/17/2013  02:40:00     -386.695      -27.781      -35.424      143.023      127.736       56.398    20455.609    16316.407     3180.708        9.575        1.998      387.692       64.391        0.028      338.935       11.923      857.322
05/17/2013  02:41:00     -341.155      -51.116      -17.974      187.332      131.204       73.215    35093.233    17214.512     5360.394        8.849        2.883      344.963       84.843        0.060      338.942       11.934      857.326
05/17/2013  02:42:00     -292.795      -72.652        0.019      167.864       90.681       62.714    28178.357     8223.022     3933.100        6.566        2.017      301.674       71.620        0.056      338.948       11.945      857.340
05/17/2013  02:43:00     -240.207      -49.012        1.092      127.537      103.268       63.654    16265.570    10664.320     4051.787        4.554        1.549      245.156       62.125        0.064      338.959       11.962      857.349
05/17/2013  02:44:00     -244.221     -144.171      -13.120       91.370       95.649       54.949     8348.459     9148.709     3019.342        5.056        1.026      283.601       43.302        0.023      338.982       12.000      857.351
05/17/2013  02:45:00     -257.600       21.329       -6.217      209.843       99.744       67.650    44033.990     9948.787     4576.542        6.270        2.928      258.481       90.597        0.123      338.966       11.973      857.350
05/17/2013  02:46:00     -181.818      -27.899       -8.156      113.807      122.227       54.907    12952.061    14939.413     3014.804        3.240        1.545      183.946       49.576        0.073      338.981       12.000      857.352
05/17/2013  02:47:00     -282.865      -49.927       -2.626      180.296      189.601       85.743    32506.806    35948.454     7351.917        7.915        3.790      287.237      100.303        0.122      338.953       11.951      857.330
05/17/2013  02:48:00     -174.236      -68.864       -0.195      104.303       92.874       48.939    10879.059     8625.648     2395.071        2.850        1.095      187.351       32.712        0.030      338.972       11.984      857.352
05/17/2013  02:49:00     -294.415      -95.253      -19.194      165.502       96.089       65.520    27390.827     9233.118     4292.846        6.851        2.046      309.441       73.641        0.057      338.941       11.932      857.358
05/17/2013  02:50:00     -245.516     -136.464       -6.083      167.221      122.554       65.813    27962.760    15019.419     4331.371        6.312        2.366      280.893       64.912        0.053      338.938       11.925      857.334
05/17/2013  02:51:00      -88.149      -75.600       13.986      119.233       86.541       47.823    14216.599     7489.416     2287.015        1.883        1.200      116.128       58.734        0.256      338.984       12.005      857.343
05/17/2013  02:52:00     -137.375      -13.166        3.953       95.553       72.949       49.202     9130.399     5321.488     2420.815        1.796        0.844      138.004       46.527        0.114      338.957       11.959      857.339
05/17/2013  02:53:00     -237.337      -49.095       -4.843      117.605       77.304       48.612    13830.942     5975.838     2363.114        4.046        1.108      242.362       57.025        0.055      338.942       11.934      857.378
05/17/2013  02:54:00     -303.569      -72.851      -26.869      132.749      130.921       55.051    17622.334    17140.277     3030.640        6.798        1.890      312.188       52.651        0.028      338.959       11.962      857.396
05/17/2013  02:55:00     -169.809      -57.737        8.888      133.816       91.357       55.610    17906.701     8346.138     3092.432        3.079        1.467      179.357       70.088        0.153      338.961       11.967      857.389
05/17/2013  02:56:00     -238.073       -7.056      -11.501      126.460       82.431       47.306    15992.219     6794.838     2237.898        4.094        1.251      238.177       54.432        0.052      338.927       11.908      857.384
05/17/2013  02:57:00     -423.517     -140.843      -11.318      166.465      151.517       76.001    27710.441    22957.525     5776.174       12.788        2.822      446.322       77.758        0.030      338.900       11.862      857.382
05/17/2013  02:58:00     -295.725      -95.591       11.054      133.466      124.283       66.326    17813.202    15446.271     4399.094        6.718        1.883      310.790       57.387        0.034      338.900       11.862      857.391
05/17/2013  02:59:00     -284.037      -91.737      -11.174      141.422      114.380       52.339    20000.075    13082.748     2739.406        6.251        1.791      298.484       60.386        0.041      338.918       11.893      857.405
05/17/2013  03:00:00     -348.688      -81.997      -12.098      163.770      134.430       67.362    26820.453    18071.517     4537.650        8.893        2.471      358.199       79.917        0.050      338.893       11.852      857.406
05/17/2013  03:01:00     -392.658      -93.062       -6.647      211.689      117.341       70.241    44812.075    13768.946     4933.763       11.319        3.176      403.535       73.997        0.034      338.903       11.867      857.411
05/17/2013  03:02:00     -328.882      -52.323        1.109      159.698      111.557       68.677    25503.330    12444.922     4716.501        7.678        2.133      333.018       70.523        0.045      338.907       11.873      857.419
05/17/2013  03:03:00     -263.262     -109.730       -5.778      184.394      125.561       70.829    34001.058    15765.493     5016.808        6.807        2.739      285.215       87.615        0.094      338.937       11.924      857.418
05/17/2013  03:04:00     -150.882      -41.484        9.474      105.188       84.766       47.094    11064.593     7185.298     2217.890        2.252        1.023      156.481       46.234        0.087      338.938       11.928      857.405
05/17/2013  03:05:00     -164.810      -76.578       -0.958       98.437       87.167       45.710     9689.786     7598.123     2089.391        2.620        0.969      181.732       44.444        0.060      338.971       11.983      857.419
05/17/2013  03:06:00     -321.981      -78.531       -7.088      120.228       94.860       59.131    14454.789     8998.330     3496.418        6.841        1.347      331.419       61.158        0.034      338.917       11.890      857.440
05/17/2013  03:07:00     -353.065      -49.783      -23.245      132.134       83.852       61.991    17459.507     7031.129     3842.903        7.800        1.417      356.558       57.863        0.026      338.909       11.877      857.429
05/17/2013  03:08:00     -286.155      -89.586       -9.801      161.605      103.247       58.737    26116.286    10659.878     3449.980        6.511        2.011      299.851       63.354        0.045      338.908       11.876      857.418
05/17/2013  03:09:00     -224.915      -21.011      -13.219      124.241       90.783       51.495    15435.734     8241.624     2651.718        3.876        1.316      225.894       58.640        0.067      338.917       11.891      857.410
05/17/2013  03:10:00     -261.397      -30.187       -9.000      166.169      131.661       59.491    27612.150    17334.637     3539.190        5.890        2.424      263.134       74.627        0.080      338.938       11.927      857.404
05/17/2013  03:11:00     -271.951     -155.482       -0.835      151.889      130.585       67.314    23070.120    17052.425     4531.183        7.139        2.233      313.261       60.726        0.038      338.906       11.873      857.396
05/17/2013  03:12:00     -200.522      -66.497        0.386      181.815      112.150       74.484    33056.552    12577.709     5547.918        4.790        2.559      211.260       81.252        0.148      338.924       11.903      857.411
05/17/2013  03:13:00     -206.595      -52.388        9.297      132.817      109.617       77.232    17640.337    12015.899     5964.705        4.056        1.781      213.134       77.097        0.131      338.922       11.899      857.407
05/17/2013  03:14:00     -192.608      -67.295      -10.337      127.857       94.887       46.126    16347.537     9003.611     2127.585        3.460        1.374      204.026       58.291        0.082      338.918       11.893      857.412
05/17/2013  03:15:00     -348.316      -15.573      -25.134      113.815      101.630       69.179    12953.906    10328.565     4785.671        7.513        1.403      348.664       66.667        0.037      338.885       11.837      857.405
05/17/2013  03:16:00     -294.502      -70.684       -9.575      123.896      112.679       53.017    15350.330    12696.643     2810.847        6.133        1.543      302.866       55.095        0.033      338.897       11.857      857.437
05/17/2013  03:17:00     -125.355     -139.246       11.706      110.815      105.465       48.427    12279.919    11122.962     2345.217        3.049        1.287      187.359       51.880        0.077      338.935       11.920      857.423
05/17/2013  03:18:00     -172.584      -92.020       -6.840       75.436       74.585       43.532     5690.620     5562.984     1895.017        2.572        0.657      195.584       45.728        0.055      338.924       11.902      857.408
05/17/2013  03:19:00      -91.143      -64.910       22.568       99.062       76.814       58.813     9813.236     5900.326     3458.970        1.610        0.959      111.894       62.755        0.315      338.927       11.910      857.432
05/17/2013  03:20:00     -299.889      -85.651      -18.509      145.684      109.257       69.655    21223.747    11936.984     4851.796        6.781        1.901      311.881       64.674        0.043      338.892       11.849      857.437
05/17/2013  03:21:00     -344.534      -20.603      -15.628      115.130      120.149       59.645    13254.910    14435.822     3557.539        7.531        1.562      345.150       62.588        0.033      338.838       11.758      857.423
05/17/2013  03:22:00     -241.302      -43.133       -1.222      154.025      105.192       57.425    23723.560    11065.329     3297.585        4.908        1.904      245.127       68.738        0.079      338.831       11.748      857.406
05/17/2013  03:23:00     -253.359     -162.991      -15.441      166.367      133.822       59.761    27677.984    17908.456     3571.326        7.007        2.458      301.259       65.298        0.047      338.855       11.787      857.414
05/17/2013  03:24:00     -339.003      -77.116      -23.978      141.475       93.704       51.278    20015.311     8780.446     2629.447        7.643        1.571      347.664       55.194        0.025      338.832       11.747      857.417
05/17/2013  03:25:00     -167.354      -45.094       14.231      121.111      114.555       56.558    14667.789    13122.870     3198.779        3.061        1.549      173.323       51.317        0.088      338.844       11.769      857.426
05/17/2013  03:26:00     -340.847     -211.709      -16.208      150.250      110.136       69.552    22575.163    12129.966     4837.485       10.039        1.977      401.244       84.173        0.044      338.824       11.735      857.414
05/17/2013  03:27:00     -230.831     -122.930      -11.363      113.835       95.722       48.201    12958.454     9162.723     2323.369        4.648        1.222      261.524       44.317        0.029      338.805       11.704      857.422
05/17/2013  03:28:00     -181.244     -103.595       10.025      158.618       90.618       56.669    25159.790     8211.553     3211.359        4.013        1.829      208.762       68.337        0.107      338.828       11.742      857.404
05/17/2013  03:29:00     -415.447     -161.718      -32.333      179.697      127.170       74.970    32291.111    16172.208     5620.570       12.693        2.704      445.812       79.396        0.032      338.815       11.720      857.408
05/17/2013  03:30:00     -293.128     -120.952      -12.197      130.330      115.181       64.516    16985.939    13266.773     4162.287        6.755        1.721      317.101       68.590        0.047      338.819       11.726      857.402
05/17/2013  03:31:00     -231.558      -32.765      -17.356      163.818       89.957       45.515    26836.465     8092.244     2071.590        4.599        1.850      233.865       55.754        0.057      338.811       11.713      857.411
05/17/2013  03:32:00     -264.523      -46.820      -18.024      155.941       73.222       57.502    24317.594     5361.394     3306.427        5.273        1.649      268.634       73.060        0.074      338.806       11.706      857.428
05/17/2013  03:33:00     -334.596      -62.333       -4.283      147.969      129.198       72.608    21894.722    16692.207     5271.970        7.985        2.193      340.353       70.960        0.043      338.785       11.668      857.404
05/17/2013  03:34:00     -286.760      -70.172       -8.855      108.944       95.257       62.184    11868.794     9073.985     3866.859        5.602        1.240      295.221       57.687        0.038      338.793       11.684      857.407
05/17/2013  03:35:00     -230.663      -16.992       -0.159      110.184       88.130       46.363    12140.601     7766.878     2149.507        3.777        1.103      231.288       47.935        0.043      338.776       11.656      857.403
05/17/2013  03:36:00     -274.609     -169.789      -12.171      159.241      130.414       60.114    25357.613    17007.889     3613.729        7.518        2.299      322.860       68.038        0.044      338.796       11.690      857.380
05/17/2013  03:37:00     -240.377     -123.270      -16.178      198.373      161.320       95.549    39351.687    26024.111     9129.609        7.386        3.725      270.141       66.072        0.060      338.776       11.655      857.358
05/17/2013  03:38:00     -358.511      -69.953       -3.284      210.329      187.021       91.660    44238.350    34976.888     8401.571       11.051        4.381      365.272      109.198        0.089      338.741       11.597      857.347
05/17/2013  03:39:00     -286.559      -80.156      -10.872      127.922      155.299       62.104    16364.000    24117.652     3856.927        6.649        2.217      297.559       55.578        0.035      338.755       11.620      857.346
05/17/2013  03:40:00     -247.604     -116.014       -7.196      241.773      151.409       92.076    58454.327    22924.688     8477.913        8.232        4.493      273.435      107.027        0.153      338.746       11.603      857.315
05/17/2013  03:41:00     -301.469     -210.826      -11.633      214.590      156.527       89.021    46048.869    24500.708     7924.713       10.696        3.924      367.874       87.872        0.057      338.725       11.568      857.296
05/17/2013  03:42:00     -263.076     -112.442       -2.148      179.486      106.589       69.551    32215.171    11361.125     4837.375        6.513        2.421      286.099       80.873        0.080      338.718       11.557      857.329
05/17/2013  03:43:00     -280.064     -104.023       -5.697      139.653      104.258       58.298    19503.059    10869.751     3398.638        6.152        1.689      298.758       63.337        0.045      338.692       11.511      857.330
05/17/2013  03:44:00     -360.798      -74.674      -12.117      209.972      159.418       76.189    44088.165    25414.080     5804.802       10.559        3.765      368.445       94.316        0.066      338.666       11.468      857.294
05/17/2013  03:45:00     -492.362     -183.882      -17.682      200.841      176.245       93.136    40337.255    31062.151     8674.311       17.830        4.004      525.578      107.109        0.042      338.657       11.453      857.292
05/17/2013  03:46:00     -286.226      -70.245        2.057      142.381      123.371       78.934    20272.303    15220.304     6230.542        6.429        2.086      294.719       79.731        0.073      338.651       11.445      857.277
05/17/2013  03:47:00     -278.049     -112.262        9.556      226.099      182.836       88.199    51120.862    33428.877     7779.119        9.115        4.616      299.856      117.028        0.152      338.662       11.464      857.259
05/17/2013  03:48:00     -372.465     -159.168      -17.923      181.393      144.110       86.212    32903.464    20767.647     7432.586       11.273        3.055      405.049       84.695        0.044      338.628       11.406      857.279
05/17/2013  03:49:00     -130.421      -28.426        4.037      140.816      117.155       69.306    19829.192    13725.301     4803.286        2.809        1.918      133.483       71.089        0.284      338.646       11.436      857.293
05/17/2013  03:50:00     -231.282      -58.114       -1.997      128.081      111.699       52.429    16404.676    12476.635     2748.810        4.425        1.582      238.471       43.265        0.033      338.633       11.412      857.311
05/17/2013  03:51:00      -63.090        0.482       13.370       71.727       85.830       48.440     5144.760     7366.736     2346.408        0.951        0.743       63.092       41.793        0.439      338.621       11.396      857.302
05/17/2013  03:52:00     -362.260     -214.086       -4.167      226.350      146.367       75.297    51234.114    21423.387     5669.619       12.769        3.916      420.791       88.496        0.044      338.581       11.328      857.275
05/17/2013  03:53:00     -349.724      -69.659      -12.106      171.129      130.855       68.231    29285.043    17123.082     4655.417        8.918        2.553      356.594       67.275        0.036      338.554       11.282      857.286
05/17/2013  03:54:00     -510.818      -74.355      -37.041      208.566      122.638       81.666    43499.921    15040.173     6669.405       16.651        3.260      516.202       83.671        0.026      338.549       11.274      857.271
05/17/2013  03:55:00     -457.595      -98.164      -17.044      218.881      201.608       80.694    47908.861    40645.623     6511.516       15.718        4.753      468.005      103.650        0.049      338.547       11.269      857.323
05/17/2013  03:56:00     -481.256      -81.826      -20.105      183.215      148.059       93.954    33567.587    21921.345     8827.332       15.150        3.216      488.163       92.616        0.036      338.542       11.263      857.340
05/17/2013  03:57:00     -327.981       10.216      -23.280      101.446       72.346       55.311    10291.274     5233.961     3059.349        6.340        0.929      328.140       53.213        0.026      338.552       11.277      857.341
05/17/2013  03:58:00     -406.310       -2.740      -20.480      156.676      122.747       75.563    24547.357    15066.797     5709.787       10.541        2.266      406.319       69.720        0.029      338.510       11.207      857.337
05/17/2013  03:59:00     -496.752      -86.168      -24.066      167.980      154.608       84.006    28217.145    23903.702     7057.085       15.696        2.959      504.170       85.191        0.029      338.529       11.238      857.366
05/17/2013  04:00:00     -392.265     -137.877      -12.923      141.451      131.757       68.681    20008.293    17359.798     4717.120       10.756        2.104      415.791       63.886        0.024      338.529       11.240      857.372
05/17/2013  04:01:00     -250.483      -73.364       -2.373      131.519      105.656       59.968    17297.166    11163.251     3596.202        5.009        1.603      261.005       61.713        0.056      338.517       11.219      857.357
05/17/2013  04:02:00     -327.331      -82.413       -1.091      173.664      175.010       73.691    30159.241    30628.469     5430.357        9.007        3.311      337.546       80.292        0.057      338.512       11.212      857.359
05/17/2013  04:03:00     -304.927     -108.734       -7.449      163.108      152.964       75.069    26604.208    23397.848     5635.324        8.024        2.782      323.734       67.398        0.043      338.509       11.205      857.363
05/17/2013  04:04:00     -435.203        7.844      -23.251      177.783      138.461       79.866    31606.688    19171.388     6378.657       12.357        2.858      435.273       76.677        0.031      338.498       11.186      857.353
05/17/2013  04:05:00     -302.169      -25.926       -0.760      162.917      113.975       76.233    26542.062    12990.408     5811.449        6.865        2.267      303.279       93.590        0.095      338.481       11.157      857.352
05/17/2013  04:06:00     -341.542      -65.263       -0.217      214.023      144.535       87.285    45805.715    20890.325     7618.715        9.760        3.716      347.722      113.578        0.107      338.496       11.184      857.353
05/17/2013  04:07:00     -459.914      -76.290      -20.953      193.370      133.447       67.785    37391.923    17808.234     4594.867       13.878        2.990      466.199       74.179        0.025      338.521       11.226      857.377
05/17/2013  04:08:00     -300.804      -64.059      -17.865      154.277      116.888       54.424    23801.491    13662.832     2961.975        6.766        2.021      307.549       64.202        0.044      338.520       11.225      857.377
05/17/2013  04:09:00     -378.943     -117.806      -13.949      164.986      146.713       79.168    27220.219    21524.731     6267.604       10.633        2.751      396.832       87.150        0.048      338.500       11.189      857.373
05/17/2013  04:10:00     -308.521      -88.821      -33.309      227.943      128.458       82.313    51957.872    16501.385     6775.410        8.970        3.762      321.052      104.115        0.105      338.528       11.238      857.368
05/17/2013  04:11:00     -290.138      -11.691      -20.788      164.157       92.378       58.511    26947.600     8533.695     3423.489        6.182        1.945      290.373       50.746        0.031      338.518       11.221      857.363
05/17/2013  04:12:00     -328.199      -56.000      -18.196      142.233      142.514       59.606    20230.170    20310.326     3552.827        7.763        2.205      332.943       51.740        0.024      338.501       11.191      857.377
05/17/2013  04:13:00     -409.314      -98.170      -10.403      174.145      127.888       82.698    30326.478    16355.279     6838.942       11.539        2.676      420.922       93.750        0.050      338.493       11.178      857.383
05/17/2013  04:14:00     -245.033      -18.793        3.107      172.065      123.656       77.059    29606.504    15290.891     5938.158        5.561        2.542      245.753       81.674        0.110      338.507       11.203      857.407
05/17/2013  04:15:00     -301.372      -28.230      -21.373      118.070       93.324       55.522    13940.438     8709.379     3082.679        5.890        1.287      302.691       63.559        0.044      338.500       11.190      857.428
05/17/2013  04:16:00     -214.799       -4.071        3.067      139.337      109.245       66.687    19414.887    11934.541     4447.179        4.097        1.790      214.838       66.094        0.095      338.486       11.168      857.429
05/17/2013  04:17:00     -168.626     -109.806       -5.483       95.276      106.749       60.052     9077.449    11395.402     3606.242        3.230        1.204      201.227       40.387        0.040      338.502       11.195      857.418
05/17/2013  04:18:00     -270.161     -155.906      -11.366      175.096      105.116       64.045    30658.781    11049.360     4101.741        7.161        2.290      311.920       66.149        0.045      338.487       11.167      857.406
05/17/2013  04:19:00     -291.654       56.842      -22.843      162.365       78.313       45.447    26362.415     6132.890     2065.392        6.168        1.728      297.142       58.683        0.039      338.488       11.169      857.390
05/17/2013  04:20:00     -320.574     -119.229      -10.099      127.093       82.595       53.515    16152.698     6821.935     2863.857        7.146        1.292      342.028       57.100        0.028      338.482       11.159      857.400
05/17/2013  04:21:00     -225.644     -119.075      -15.111       93.970       64.669       44.388     8830.371     4182.108     1970.280        4.015        0.749      255.136       41.670        0.027      338.488       11.169      857.415
05/17/2013  04:22:00     -234.453      -26.443        3.467      141.997       97.952       68.963    20163.039     9594.525     4755.895        4.509        1.726      235.940       64.353        0.074      338.481       11.158      857.416
05/17/2013  04:23:00     -266.598     -108.055       -1.680      112.388      110.966       53.407    12631.130    12313.468     2852.328        5.527        1.390      287.663       55.000        0.037      338.512       11.211      857.399
05/17/2013  04:24:00     -320.169     -138.308      -10.615      203.588      108.834       73.210    41448.094    11844.870     5359.652        9.019        2.933      348.765       84.293        0.058      338.533       11.247      857.390
05/17/2013  04:25:00     -302.126      -52.001       -3.900      172.283       94.115       52.776    29681.457     8857.622     2785.255        6.765        2.066      306.568       58.121        0.036      338.529       11.239      857.393
05/17/2013  04:26:00     -298.502      -47.443      -18.018      150.310       92.502       60.591    22593.088     8556.653     3671.284        6.324        1.741      302.249       66.453        0.048      338.526       11.234      857.399
05/17/2013  04:27:00     -277.464     -132.030       -7.612      107.095       99.401       52.760    11469.434     9880.470     2783.573        5.930        1.207      307.276       38.701        0.016      338.520       11.225      857.377
05/17/2013  04:28:00     -274.217       -0.370       -1.376      130.989      126.840       65.744    17158.072    16088.471     4322.280        5.638        1.878      274.218       56.735        0.043      338.529       11.240      857.385
05/17/2013  04:29:00     -205.115       -3.941        6.094      118.222       76.035       51.716    13976.542     5781.371     2674.535        3.227        1.122      205.153       59.119        0.083      338.524       11.232      857.381
05/17/2013  04:30:00     -214.118      -65.199       -5.438       86.375       80.757       47.462     7460.559     6521.726     2252.673        3.318        0.812      223.824       45.608        0.042      338.520       11.226      857.384
05/17/2013  04:31:00     -248.175      -48.117       -7.120       82.496       74.624       47.542     6805.531     5568.804     2260.287        3.929        0.732      252.797       42.705        0.029      338.520       11.222      857.382
05/17/2013  04:32:00     -150.441      -87.500       -7.100       53.857       55.386       33.819     2900.531     3067.585     1143.708        1.872        0.356      174.036       32.734        0.035      338.528       11.239      857.366
05/17/2013  04:33:00     -156.077      -26.818       -4.351       63.478       54.784       32.347     4029.476     3001.304     1046.313        1.659        0.404      158.365       35.467        0.050      338.517       11.223      857.357
05/17/2013  04:34:00     -142.677      -43.077       -2.888       95.800       62.605       41.861     9177.685     3919.365     1752.320        1.853        0.742      149.038       40.765        0.075      338.497       11.187      857.351
05/17/2013  04:35:00     -323.678      -80.114       -4.891      113.606       83.648       48.349    12906.237     6997.034     2337.654        6.672        1.112      333.446       51.055        0.023      338.485       11.164      857.338
05/17/2013  04:36:00     -279.342      -46.970        0.678      172.032      112.812       64.346    29595.144    12726.600     4140.350        6.334        2.323      283.263       67.198        0.056      338.497       11.185      857.343
05/17/2013  04:37:00     -294.440     -146.227       -1.112      129.124      106.214       59.821    16673.105    11281.467     3578.507        6.980        1.577      328.751       66.986        0.042      338.531       11.243      857.331
05/17/2013  04:38:00     -227.347     -100.706       -9.968      102.062       78.436       48.318    10416.572     6152.243     2334.658        4.041        0.945      248.653       51.734        0.043      338.528       11.238      857.332
05/17/2013  04:39:00     -162.387       10.293       -3.368      112.330       59.700       42.355    12617.929     3564.083     1793.908        2.223        0.899      162.713       46.553        0.082      338.525       11.235      857.334
05/17/2013  04:40:00     -235.181      -67.557       -9.592      118.365       89.874       52.482    14010.328     8077.304     2754.381        4.240        1.242      244.692       50.287        0.042      338.523       11.228      857.326
05/17/2013  04:41:00     -248.498        1.890       -9.718      155.924       92.181       46.563    24312.325     8497.357     2168.123        4.841        1.749      248.505       62.957        0.064      338.520       11.226      857.332
05/17/2013  04:42:00     -276.358      -28.491      -24.009      121.619       82.868       46.208    14791.062     6867.053     2135.196        5.077        1.190      277.822       50.481        0.033      338.506       11.201      857.329
05/17/2013  04:43:00     -257.771      -26.647      -10.701      120.014       74.159       67.392    14403.322     5499.535     4541.642        4.585        1.222      259.145       67.407        0.068      338.489       11.172      857.338
05/17/2013  04:44:00     -171.487      -17.929        1.555      143.780       86.945       54.009    20672.599     7559.407     2916.996        3.044        1.557      172.422       64.880        0.142      338.518       11.223      857.341
05/17/2013  04:45:00     -254.380      -64.759       -7.001      159.921       83.163       61.761    25574.741     6916.025     3814.452        5.262        1.815      262.494       69.495        0.070      338.518       11.222      857.353
05/17/2013  04:46:00     -333.862      -29.373       -7.901      122.425       77.048       53.709    14987.854     5936.396     2884.617        6.810        1.190      335.152       59.701        0.032      338.513       11.212      857.360
05/17/2013  04:47:00     -242.359     -129.515       -3.968       97.199       90.953       57.302     9447.565     8272.451     3283.484        4.826        1.050      274.794       54.358        0.039      338.539       11.256      857.357
05/17/2013  04:48:00     -143.210     -102.177       11.098       93.405       74.482       42.722     8724.542     5547.603     1825.162        2.358        0.805      175.924       50.615        0.083      338.535       11.251      857.343
05/17/2013  04:49:00     -172.518     -100.335        6.908      116.772       92.695       62.819    13635.756     8592.431     3946.285        3.302        1.309      199.573       63.698        0.102      338.527       11.238      857.347
05/17/2013  04:50:00     -271.176     -106.702       -3.244      112.516      128.916       61.301    12659.916    16619.208     3757.786        5.898        1.652      291.414       69.178        0.056      338.530       11.241      857.353
05/17/2013  04:51:00     -241.414     -114.793       -9.661      115.109      104.610       54.753    13250.170    10943.341     2997.916        4.937        1.360      267.317       48.450        0.033      338.544       11.264      857.343
05/17/2013  04:52:00     -155.375     -122.333        8.278      100.641       84.544       50.446    10128.674     7147.678     2544.791        2.949        0.991      197.754       50.818        0.066      338.512       11.212      857.337
05/17/2013  04:53:00      -88.992      -53.948        8.059       70.876       56.618       34.547     5023.435     3205.647     1193.490        1.016        0.471      104.067       36.408        0.122      338.519       11.224      857.339
05/17/2013  04:54:00     -102.475      -63.485       -1.971       73.356       53.516       36.971     5381.036     2863.912     1366.836        1.207        0.481      120.546       25.048        0.043      338.536       11.255      857.330
05/17/2013  04:55:00     -287.332     -128.500       -7.892      116.316      127.919       70.519    13529.494    16363.338     4972.963        6.699        1.743      314.757       67.024        0.045      338.488       11.170      857.325
05/17/2013  04:56:00     -257.722     -133.089       -0.150      140.493      126.817       65.997    19738.292    16082.666     4355.653        6.215        2.009      290.058       62.918        0.047      338.529       11.241      857.319
05/17/2013  04:57:00     -173.560       -9.879        8.103      130.056       93.661       67.907    16914.591     8772.401     4611.329        3.029        1.515      173.841       67.829        0.152      338.513       11.212      857.305
05/17/2013  04:58:00     -229.942      -37.039       -3.759      126.650      106.733       56.078    16040.337    11391.866     3144.772        4.241        1.529      232.906       54.799        0.055      338.500       11.190      857.319
05/17/2013  04:59:00     -207.328     -131.577      -19.520      104.537      113.342       48.151    10928.020    12846.308     2318.534        4.338        1.305      245.555       52.411        0.046      338.530       11.242      857.327
05/17/2013  05:00:00     -212.420      -91.885       -7.037      140.003      114.390       57.921    19600.932    13085.138     3354.808        4.482        1.802      231.441       65.163        0.079      338.537       11.254      857.318
05/17/2013  05:01:00     -195.503      -73.259       13.152      159.353       81.846       58.934    25393.465     6698.822     3473.254        3.966        1.778      208.778       74.391        0.127      338.517       11.219      857.306
05/17/2013  05:02:00     -211.601      -92.743       -4.111      113.382       85.436       52.087    12855.583     7299.305     2713.073        3.813        1.143      231.033       56.711        0.060      338.506       11.201      857.312
05/17/2013  05:03:00     -123.732      -29.066        7.478      128.094       78.573       55.377    16408.186     6173.639     3066.651        2.093        1.282      127.100       68.925        0.294      338.470       11.142      857.322
05/17/2013  05:04:00     -225.490     -109.592      -10.909      189.942      100.694       66.836    36077.906    10139.185     4467.070        5.682        2.534      250.711       71.466        0.081      338.504       11.198      857.309
05/17/2013  05:05:00     -252.244      -93.555       -2.806      143.927      105.878       54.624    20714.838    11210.128     2983.769        5.364        1.745      269.034       53.042        0.039      338.490       11.173      857.315
05/17/2013  05:06:00     -265.855     -132.388       -5.718      205.243      153.114       89.217    42124.845    23444.033     7959.589        8.087        3.676      296.994       90.880        0.094      338.520       11.226      857.298
05/17/2013  05:07:00     -156.319      -42.222        3.716       91.191       72.738       54.705     8315.802     5290.817     2992.679        2.141        0.830      161.921       39.798        0.060      338.499       11.191      857.322
05/17/2013  05:08:00     -220.402      -18.338      -22.757       61.159       44.796       34.296     3740.451     2006.641     1176.189        2.818        0.346      221.164       16.613        0.006      338.501       11.194      857.330
05/17/2013  05:09:00     -205.302      -80.708        3.823      146.440      106.697       50.454    21444.634    11384.314     2545.618        4.202        1.769      220.596       66.466        0.091      338.459       11.122      857.331
05/17/2013  05:10:00     -181.805      -85.155       -3.269      111.888       98.282       47.017    12518.857     9659.295     2210.628        3.235        1.219      200.759       55.625        0.077      338.488       11.172      857.332
05/17/2013  05:11:00     -155.561      -52.523       -3.297       81.974       63.151       36.969     6719.731     3988.036     1366.739        1.952        0.604      164.188       39.654        0.058      338.455       11.115      857.338
05/17/2013  05:12:00     -190.548     -125.625        8.345      133.352       92.211       50.467    17782.806     8502.951     2546.918        4.049        1.442      228.233       62.575        0.075      338.481       11.158      857.338
05/17/2013  05:13:00      -86.931      -56.060       24.108      121.325       86.765       49.508    14719.638     7528.114     2451.003        1.799        1.235      103.440       62.900        0.370      338.495       11.184      857.338
05/17/2013  05:14:00     -308.043     -119.333      -20.516      129.692      118.854       61.129    16820.098    14126.312     3736.725        7.211        1.734      330.349       61.202        0.034      338.497       11.186      857.336
05/17/2013  05:15:00     -216.956      -84.053      -10.461      117.379      113.541       59.605    13777.737    12891.500     3552.729        4.223        1.511      232.669       69.923        0.090      338.497       11.187      857.337
05/17/2013  05:16:00     -168.293      -86.050       11.023      100.758       78.981       55.828    10152.215     6237.942     3116.755        2.767        0.975      189.017       58.699        0.096      338.489       11.171      857.337
05/17/2013  05:17:00     -114.656     -110.349       -2.134       88.283       57.973       41.861     7793.807     3360.913     1752.335        1.912        0.645      159.131       40.547        0.065      338.536       11.253      857.327
05/17/2013  05:18:00     -202.416     -125.658       -7.396      106.127       86.284       53.727    11262.975     7444.844     2886.593        3.920        1.080      238.248       52.025        0.048      338.475       11.149      857.326
05/17/2013  05:19:00     -193.365      -57.058      -11.840       90.174       58.201       36.140     8131.430     3387.330     1306.102        2.680        0.641      201.607       32.837        0.027      338.473       11.145      857.338
05/17/2013  05:20:00     -189.691      -81.592        3.500      107.529       74.976       41.310    11562.483     5621.441     1706.536        3.077        0.945      206.495       40.467        0.038      338.486       11.167      857.345
05/17/2013  05:21:00     -145.982      -32.244        5.700       99.849       83.057       53.955     9969.794     6898.477     2911.090        2.108        0.989      149.501       51.093        0.117      338.499       11.191      857.351
05/17/2013  05:22:00     -237.393     -108.918      -14.251       98.402       98.183       45.470     9683.035     9639.960     2067.528        4.490        1.070      261.187       46.574        0.032      338.503       11.196      857.368
05/17/2013  05:23:00     -137.947      -87.603        2.915      120.445       70.528       49.324    14506.940     4974.130     2432.854        2.431        1.096      163.412       42.496        0.068      338.500       11.191      857.369
05/17/2013  05:24:00     -240.820     -129.426       -4.489      129.931       80.968       45.241    16881.987     6555.863     2046.783        5.012        1.274      273.396       52.991        0.038      338.484       11.164      857.383
05/17/2013  05:25:00     -143.589      -50.985        9.104      104.358       73.545       43.482    10890.502     5408.903     1890.717        2.074        0.910      152.372       54.532        0.128      338.487       11.170      857.387
05/17/2013  05:26:00     -220.886      -88.738      -13.616      116.560       56.672       34.826    13586.261     3211.705     1212.881        3.743        0.901      238.044       34.971        0.022      338.474       11.145      857.397
05/17/2013  05:27:00     -160.416     -105.113       10.709      104.552       89.869       52.249    10931.042     8076.506     2729.984        2.931        1.087      191.787       55.180        0.083      338.481       11.159      857.405
05/17/2013  05:28:00     -261.467     -145.664      -12.610       78.908       94.506       48.127     6226.426     8931.326     2316.165        5.360        0.874      299.304       43.080        0.021      338.462       11.126      857.415
05/17/2013  05:29:00     -136.902     -114.084        1.830       88.770       70.405       50.829     7880.133     4956.918     2583.619        2.359        0.771      178.206       54.804        0.095      338.460       11.124      857.426
05/17/2013  05:30:00     -157.249     -108.176       -2.503       97.827       95.836       45.299     9570.104     9184.598     2052.029        2.862        1.040      190.865       55.505        0.085      338.475       11.151      857.428
05/17/2013  05:31:00     -166.244      -39.771       10.625      113.332       77.773       45.691    12844.243     6048.661     2087.676        2.515        1.049      170.935       53.657        0.099      338.458       11.120      857.426
05/17/2013  05:32:00     -165.881      -73.544        3.426       88.346       76.754       48.515     7804.966     5891.213     2353.701        2.449        0.802      181.453       46.717        0.066      338.463       11.128      857.436
05/17/2013  05:33:00     -161.628      -60.583        4.271      109.849       73.988       48.530    12066.870     5474.192     2355.190        2.485        0.995      172.609       57.739        0.112      338.466       11.134      857.438
05/17/2013  05:34:00      -76.636      -84.766        4.104       76.743       63.392       37.183     5889.457     4018.541     1382.570        1.218        0.565      114.273       26.287        0.053      338.435       11.084      857.449
05/17/2013  05:35:00     -120.657      -53.196       -2.207      104.587       64.310       39.945    10938.347     4135.714     1595.605        1.703        0.833      131.863       42.251        0.103      338.432       11.076      857.454
05/17/2013  05:36:00     -325.114     -138.404      -29.233      214.283      103.200       71.424    45917.079    10650.246     5101.382        9.368        3.083      353.348       93.034        0.069      338.460       11.122      857.453
05/17/2013  05:37:00     -245.683     -134.484      -11.668      104.417       84.382       62.019    10902.888     7120.377     3846.399        5.022        1.093      280.082       55.190        0.039      338.466       11.132      857.461
05/17/2013  05:38:00     -178.756     -111.393      -10.566       93.047       70.782       49.445     8657.676     5010.087     2444.838        3.029        0.806      210.623       51.994        0.061      338.465       11.131      857.465
05/17/2013  05:39:00      -96.793      -40.349        6.206      116.857       68.319       47.760    13655.484     4667.537     2281.029        1.582        1.030      104.867       28.347        0.073      338.463       11.129      857.475
05/17/2013  05:40:00     -193.247      -49.881      -10.430       67.814       67.800       35.704     4598.725     4596.812     1274.798        2.520        0.524      199.581       31.735        0.025      338.455       11.114      857.473
05/17/2013  05:41:00     -111.099      -97.604        5.419       68.164       79.467       41.283     4646.383     6314.964     1704.315        1.728        0.633      147.883       40.522        0.075      338.442       11.095      857.470
05/17/2013  05:42:00     -192.104       -5.631       -6.620       90.992       81.861       45.250     8279.567     6701.163     2047.600        2.700        0.851      192.186       41.856        0.047      338.385       10.997      857.478
05/17/2013  05:43:00      -61.011      -50.088       10.270       53.824       68.088       39.771     2897.009     4635.980     1581.754        0.772        0.456       78.938       40.176        0.259      338.402       11.029      857.478
05/17/2013  05:44:00     -185.115      -56.236      -11.939      102.816       58.497       39.387    10571.162     3421.883     1551.345        2.656        0.777      193.468       46.995        0.059      338.416       11.049      857.465
05/17/2013  05:45:00     -273.231      -87.086       -7.196       78.738       94.143       45.956     6199.597     8862.948     2111.936        4.973        0.859      286.773       40.128        0.020      338.397       11.016      857.467
05/17/2013  05:46:00     -169.594       -8.964        7.296      115.136       57.213       49.176    13256.333     3273.320     2418.289        2.392        0.947      169.831       55.857        0.108      338.353       10.945      857.471
05/17/2013  05:47:00     -171.800       -0.989       -3.068       74.892       68.572       49.852     5608.820     4702.066     2485.222        2.116        0.640      171.803       44.665        0.068      338.335       10.915      857.481
05/17/2013  05:48:00     -151.054      -28.454      -10.201       67.868       63.965       38.384     4606.032     4091.508     1473.312        1.695        0.509      153.710       39.695        0.067      338.388       11.004      857.491
05/17/2013  05:49:00     -132.916      -69.183       -5.308       64.257       69.572       31.679     4128.899     4840.230     1003.532        1.623        0.499      149.843       28.684        0.037      338.358       10.952      857.502
05/17/2013  05:50:00     -104.438      -26.781       -1.390       73.606       50.084       35.801     5417.895     2508.437     1281.711        1.042        0.460      107.817       36.780        0.116      338.420       11.058      857.516
05/17/2013  05:51:00     -188.357      -45.500        5.405       98.320       56.270       42.327     9666.733     3166.292     1791.596        2.610        0.731      193.774       49.945        0.066      338.347       10.934      857.524
05/17/2013  05:52:00     -165.071      -45.354       -3.213       85.210       59.245       40.382     7260.731     3509.975     1630.745        2.086        0.620      171.188       34.486        0.041      338.445       11.100      857.533
05/17/2013  05:53:00     -144.071      -42.490        5.188       71.092       53.450       34.246     5054.041     2856.853     1172.761        1.583        0.454      150.206       29.924        0.040      338.465       11.134      857.541
05/17/2013  05:54:00     -159.156      -96.539       -1.255       79.275       76.460       39.819     6284.459     5846.198     1585.515        2.418        0.686      186.146       32.077        0.030      338.358       10.955      857.554
05/17/2013  05:55:00     -185.642      -94.711      -14.028      107.175       85.744       48.851    11486.375     7351.971     2386.372        3.242        1.061      208.406       53.014        0.065      338.336       10.915      857.562
05/17/2013  05:56:00     -186.957      -60.850      -15.626      100.954       64.887       46.230    10191.797     4210.342     2137.255        2.772        0.827      196.611       55.568        0.080      338.321       10.892      857.567
05/17/2013  05:57:00     -114.629      -81.592        4.042       97.214       65.137       37.212     9450.559     4242.776     1384.749        1.744        0.754      140.702       45.978        0.107      338.348       10.937      857.576
05/17/2013  05:58:00     -179.578     -113.110       -2.500      108.456       89.952       44.335    11762.664     8091.359     1965.567        3.343        1.091      212.231       58.495        0.076      338.360       10.958      857.579
05/17/2013  05:59:00     -199.067      -28.809        2.901      113.162       82.897       53.887    12805.537     6871.932     2903.817        3.152        1.129      201.141       57.022        0.080      338.447       11.103      857.587
05/17/2013  06:00:00     -238.134      -72.939      -12.900       95.079      121.910       55.737     9040.033    14862.115     3106.633        4.460        1.350      249.054       54.663        0.048      338.449       11.103      857.593
05/17/2013  06:01:00     -233.417      -90.612       -6.952      102.929       92.483       47.361    10594.340     8553.037     2243.030        4.206        1.070      250.388       57.501        0.053      338.367       10.967      857.597
05/17/2013  06:02:00     -154.255      -74.255       -3.268       88.558       82.771       51.072     7842.515     6851.062     2608.387        2.331        0.865      171.197       46.721        0.074      338.339       10.920      857.589
05/17/2013  06:03:00     -208.498     -125.812      -14.693       91.743       80.160       48.538     8416.710     6425.605     2355.900        3.835        0.860      243.516       49.341        0.041      338.327       10.900      857.594
05/17/2013  06:04:00     -148.617     -114.607        0.955       80.293       84.501       38.753     6446.971     7140.371     1501.771        2.515        0.754      187.675       36.018        0.037      338.312       10.875      857.613
05/17/2013  06:05:00     -162.538     -114.563        1.612      126.146      109.696       53.999    15912.775    12033.175     2915.854        3.520        1.543      198.855       56.131        0.080      338.308       10.870      857.619
05/17/2013  06:06:00     -219.935     -130.925      -16.732      127.737       79.084       52.882    16316.746     6254.210     2796.525        4.558        1.268      255.954       55.309        0.047      338.314       10.878      857.636
05/17/2013  06:07:00     -192.784      -77.044       -2.340      102.770       90.853       57.179    10561.592     8254.344     3269.472        3.259        1.104      207.609       66.761        0.103      338.298       10.851      857.658
05/17/2013  06:08:00     -174.154     -171.391       10.731      127.874      112.998       60.091    16351.678    12768.658     3610.958        4.627        1.637      244.345       71.448        0.086      338.312       10.874      857.674
05/17/2013  06:09:00     -200.535     -165.243       -4.047      113.189      111.118       67.120    12811.749    12347.286     4505.057        4.860        1.483      259.845       64.894        0.062      338.311       10.874      857.690
05/17/2013  06:10:00     -151.196     -110.432       -0.045      111.437       97.013       64.340    12418.184     9411.595     4139.675        3.051        1.298      187.231       61.262        0.107      338.298       10.853      857.703
05/17/2013  06:11:00     -180.263     -107.214      -10.330       92.485       81.705       45.541     8553.478     6675.752     2073.998        3.070        0.865      209.737       50.414        0.058      338.325       10.896      857.705
05/17/2013  06:12:00     -253.205     -128.099      -15.873       97.680       75.774       44.610     9541.459     5741.688     1990.041        4.902        0.864      283.764       51.305        0.033      338.354       10.944      857.701
05/17/2013  06:13:00     -147.693      -89.234       -6.145       78.027       66.464       34.300     6088.149     4417.408     1176.524        2.075        0.584      172.557       35.644        0.043      338.333       10.913      857.701
05/17/2013  06:14:00     -154.842     -122.974      -10.798       76.326       61.995       43.749     5825.652     3843.379     1913.976        2.540        0.579      197.733       43.942        0.049      338.320       10.888      857.700
05/17/2013  06:15:00     -134.821     -133.650      -17.012       76.384       69.203       30.141     5834.534     4789.072      908.503        2.393        0.577      189.840       31.834        0.028      338.307       10.868      857.702
05/17/2013  06:16:00     -111.551      -90.585        3.341       65.630       45.351       36.781     4307.269     2056.701     1352.816        1.419        0.386      143.699       39.213        0.074      338.259       10.790      857.726
05/17/2013  06:17:00     -146.892      -99.928      -19.795       53.768       53.935       30.869     2891.035     2908.932      952.899        1.935        0.338      177.660       26.258        0.022      338.286       10.832      857.741
05/17/2013  06:18:00      -57.992      -44.202       -8.232       56.116       45.922       28.438     3149.043     2108.793      808.722        0.572        0.303       72.917       33.455        0.211      338.265       10.799      857.749
05/17/2013  06:19:00     -204.216      -63.052       -5.469       68.306       57.631       37.032     4665.777     3321.371     1371.339        2.753        0.468      213.728       28.063        0.017      338.220       10.720      857.752
05/17/2013  06:20:00      -88.115      -54.934       11.377       82.912       63.027       44.697     6874.357     3972.383     1997.855        1.188        0.642      103.837       49.628        0.228      338.337       10.920      857.753
05/17/2013  06:21:00      -56.509      -43.126        6.912       46.834       33.137       25.145     2193.425     1098.058      632.260        0.451        0.196       71.085       21.488        0.091      338.270       10.806      857.746
05/17/2013  06:22:00     -162.723     -113.229       -7.148       78.877       62.932       34.090     6221.525     3960.438     1162.143        2.535        0.567      198.241       34.246        0.030      338.272       10.809      857.755
05/17/2013  06:23:00     -106.720      -43.189        2.487       60.160       67.029       34.391     3619.216     4492.904     1182.713        1.128        0.465      115.128       22.719        0.039      338.314       10.883      857.762
05/17/2013  06:24:00     -111.206     -119.819       -1.247       66.838       76.340       38.185     4467.260     5827.851     1458.122        1.924        0.588      163.473       41.534        0.065      338.283       10.827      857.790
05/17/2013  06:25:00      -62.315     -127.314       -6.486       66.378      103.252       27.583     4406.003    10660.885      760.800        1.798        0.791      141.747       23.162        0.027      338.281       10.823      857.808
05/17/2013  06:26:00      -96.754     -110.737       -2.576       68.096       59.690       39.127     4637.005     3562.903     1530.899        1.568        0.487      147.051       34.951        0.056      338.292       10.844      857.836
05/17/2013  06:27:00      -66.520     -124.267        8.624       55.842       76.953       38.132     3118.325     5921.841     1454.064        1.522        0.525      140.951       31.575        0.050      338.303       10.863      857.845
05/17/2013  06:28:00      -65.932     -116.732        0.976       79.236       47.937       30.827     6278.337     2297.997      950.308        1.375        0.476      134.065       37.236        0.077      338.293       10.845      857.851
05/17/2013  06:29:00      -68.443      -86.860       -2.054       51.632       44.429       23.830     2665.888     1973.950      567.877        0.872        0.260      110.586       25.275        0.052      338.291       10.843      857.872
05/17/2013  06:30:00      -44.048      -76.017        6.266       46.614       48.589       23.707     2172.847     2360.867      562.008        0.643        0.255       87.856       20.386        0.054      338.309       10.873      857.893
05/17/2013  06:31:00      -53.674      -49.004       -5.620       31.322       27.429       19.389      981.065      752.344      375.923        0.371        0.105       72.679       16.942        0.054      338.303       10.864      857.897
05/17/2013  06:32:00      -13.283      -65.736       -3.297       34.137       39.900       20.278     1165.337     1592.026      411.201        0.384        0.158       67.065       18.106        0.073      338.396       11.019      857.904
05/17/2013  06:33:00        5.348      -21.591       -2.351       36.213       27.485       24.345     1311.351      755.444      592.683        0.158        0.133       22.243       18.981        0.728      338.427       11.072      857.917
05/17/2013  06:34:00      -31.117      -36.230        0.330       56.684       42.113       34.046     3213.067     1773.523     1159.111        0.421        0.307       47.759       26.797        0.315      338.395       11.018      857.906
05/17/2013  06:35:00      -18.292     -105.741        4.014       41.352       34.450       26.253     1710.005     1186.770      689.226        0.756        0.179      107.311       16.856        0.025      338.447       11.106      857.914
05/17/2013  06:36:00        6.875        9.142       20.586       23.671       24.908       19.598      560.322      620.392      384.073        0.106        0.078       11.439       13.348        1.362      338.576       11.322      857.932
05/17/2013  06:37:00      -20.835       23.609        0.847       31.528       17.536       15.919      993.992      307.509      253.408        0.127        0.078       31.488       12.258        0.152      338.513       11.217      857.940
05/17/2013  06:38:00      -37.086       23.214        2.182       29.974       23.422       22.364      898.470      548.611      500.169        0.193        0.097       43.752       18.441        0.178      338.547       11.274      857.952
05/17/2013  06:39:00      -23.333      -26.942        7.417       22.329       18.196       18.104      498.574      331.086      327.740        0.124        0.058       35.641       13.556        0.145      338.480       11.161      857.959
05/17/2013  06:40:00      -73.819      -36.202        1.383       35.419       24.277       26.879     1254.500      589.360      722.501        0.466        0.128       82.219       10.090        0.015      338.457       11.123      857.981
05/17/2013  06:41:00      -30.077      -20.938        1.888       33.005       25.247       18.697     1089.362      637.417      349.560        0.171        0.104       36.647       14.527        0.157      338.482       11.163      857.991
05/17/2013  06:42:00        3.819       11.472        6.245       25.579       24.416       31.354      654.273      596.157      983.104        0.121        0.112       12.091       14.832        1.505      338.656       11.455      857.991
05/17/2013  06:43:00      -23.809       -4.111        6.195       29.780       25.149       34.354      886.865      632.494     1180.222        0.166        0.135       24.161       21.211        0.771      338.564       11.301      857.984
05/17/2013  06:44:00      -12.637      -74.507        8.136       34.840       40.760       27.351     1213.835     1661.344      748.080        0.470        0.181       75.572       17.039        0.051      338.492       11.179      857.975
05/17/2013  06:45:00      -30.762       -8.482       11.486       41.301       20.651       17.576     1705.785      426.444      308.920        0.180        0.122       31.909       22.131        0.481      338.546       11.271      857.980
05/17/2013  06:46:00      -24.109       -4.193        3.511       27.073       29.720       21.778      732.943      883.261      474.283        0.135        0.105       24.471        2.375        0.009      338.531       11.246      858.002
05/17/2013  06:47:00      -25.815      -27.180        4.990       27.459       21.948       18.953      753.989      481.730      359.228        0.151        0.080       37.485       15.888        0.180      338.518       11.224      858.016
05/17/2013  06:48:00      -46.660      -37.519        2.635       35.412       23.014       15.569     1253.980      529.628      242.405        0.281        0.101       59.873       12.813        0.046      338.306       10.868      858.021
05/17/2013  06:49:00      -36.106        4.036       10.831       21.934       16.604       13.902      481.094      275.695      193.263        0.119        0.048       36.331        9.362        0.066      338.490       11.178      858.018
05/17/2013  06:50:00      -40.376        9.101        8.297       25.510       16.782       20.620      650.764      281.637      425.183        0.157        0.068       41.389       16.752        0.164      338.564       11.301      858.019
05/17/2013  06:51:00      -43.968       -0.945        3.932       23.119       24.430       14.909      534.493      596.840      222.288        0.165        0.068       43.978        8.214        0.035      338.420       11.058      858.020
05/17/2013  06:52:00      -46.439      -14.212       -8.237       26.521       26.888       21.319      703.352      722.983      454.497        0.215        0.094       48.565       12.204        0.063      338.377       10.986      858.034
05/17/2013  06:53:00      -52.290      -20.104        2.507       18.475       14.386       14.759      341.341      206.966      217.824        0.196        0.038       56.022       10.791        0.037      338.396       11.020      858.039
05/17/2013  06:54:00      -64.186      -12.730        1.166       16.607       21.264       12.776      275.794      452.144      163.215        0.259        0.045       65.436       11.874        0.033      338.427       11.072      858.055
05/17/2013  06:55:00      -42.533       -9.734       -1.184       21.429       12.706       11.958      459.187      161.432      143.003        0.133        0.038       43.632       11.323        0.067      338.459       11.125      858.068
05/17/2013  06:56:00      -42.327        1.762        1.698       32.599       25.713       17.991     1062.664      661.139      323.692        0.192        0.102       42.364       11.877        0.079      338.469       11.143      858.070
05/17/2013  06:57:00      -97.934        5.144       -5.236       42.077       12.934       24.383     1770.493      167.294      594.530        0.609        0.127       98.069       28.255        0.083      338.545       11.268      858.070
05/17/2013  06:58:00      -62.360       19.523        0.108       21.661       19.906       15.918      469.215      396.238      253.380        0.269        0.056       65.345       11.213        0.029      338.515       11.219      858.074
05/17/2013  06:59:00      -32.305       -9.460       13.122       43.811       20.683       26.464     1919.401      427.772      700.351        0.218        0.152       33.661       26.434        0.617      338.697       11.524      858.082
05/17/2013  07:00:00        0.917      -33.663       10.362       13.945       22.661       15.961      194.460      513.540      254.762        0.110        0.048       33.676       14.987        0.198      338.816       11.724      858.090
05/17/2013  07:01:00       21.328       47.548        8.876       28.605       37.089       23.041      818.228     1375.574      530.883        0.276        0.136       52.113       29.076        0.311      338.964       11.974      858.094
05/17/2013  07:02:00       25.521       42.903        3.805       29.640       33.486       25.682      878.549     1121.337      659.567        0.258        0.133       49.920       19.184        0.148      338.822       11.736      858.098
05/17/2013  07:03:00      -39.108       42.474       -2.715       28.862       36.321       20.801      833.035     1319.198      432.678        0.296        0.129       57.736       23.440        0.165      338.766       11.640      858.116
05/17/2013  07:04:00     -219.993       27.761      -14.384      130.286       60.287       42.930    16974.322     3634.490     1842.965        3.591        1.123      221.737       53.462        0.058      338.674       11.484      858.132
05/17/2013  07:05:00     -205.939        2.998      -16.384       95.797       39.891       34.163     9177.035     1591.256     1167.106        2.731        0.597      205.961       39.423        0.037      338.642       11.430      858.144
05/17/2013  07:06:00      -45.299      -15.624      -28.976       66.920       31.381       31.713     4478.279      984.778     1005.725        0.480        0.323       47.918       38.858        0.658      338.675       11.487      858.153
05/17/2013  07:07:00     -128.841      -45.667      -16.435       98.228       55.084       28.377     9648.782     3034.264      805.240        1.622        0.674      136.695       30.817        0.051      338.681       11.497      858.157
05/17/2013  07:08:00     -126.406      -39.956        2.488       66.017       56.951       33.161     4358.277     3243.456     1099.627        1.314        0.435      132.570       36.993        0.078      338.633       11.417      858.152
05/17/2013  07:09:00      -27.991       22.513       11.379       25.665       47.481       22.359      658.709     2254.464      499.938        0.242        0.171       35.921       12.108        0.114      338.852       11.785      858.140
05/17/2013  07:10:00      -23.243      -26.753       10.200       34.944       31.216       16.075     1221.090      974.452      258.415        0.191        0.123       35.440       21.885        0.381      339.229       12.420      858.140
05/17/2013  07:11:00      -34.699     -105.181       13.471       49.128       52.663       22.905     2413.591     2773.425      524.632        0.908        0.286      110.757       16.884        0.023      338.733       11.584      858.139
05/17/2013  07:12:00      -44.868      -61.353        7.431       32.153       42.968       25.522     1033.796     1846.237      651.355        0.468        0.177       76.009       26.004        0.117      338.930       11.915      858.139
05/17/2013  07:13:00      -81.801      -16.441        4.280       66.754       48.714       33.557     4456.097     2373.069     1126.100        0.747        0.398       83.437       41.853        0.252      338.884       11.841      858.148
05/17/2013  07:14:00      -62.303      -60.504        3.652       53.045       52.411       38.729     2813.719     2746.954     1499.937        0.731        0.353       86.847       36.165        0.173      338.788       11.676      858.156
05/17/2013  07:15:00       -5.834     -131.511        0.603       55.591       81.537       27.509     3090.307     6648.202      756.741        1.391        0.525      131.641       30.720        0.054      338.959       11.964      858.155
05/17/2013  07:16:00      -72.516       11.771       -4.847       40.991       26.778       23.752     1680.249      717.035      564.162        0.419        0.148       73.465       21.448        0.085      338.902       11.870      858.162
05/17/2013  07:17:00       12.442        8.116       14.278       45.179       30.715       26.857     2041.182      943.412      721.285        0.206        0.185       14.855       24.655        2.755      339.311       12.558      858.135
05/17/2013  07:18:00       -7.266       66.685       -4.634       62.799       70.420       38.134     3943.763     4959.018     1454.191        0.744        0.518       67.080       22.073        0.108      339.042       12.105      858.120
05/17/2013  07:19:00      -30.982      -26.726        0.795       61.282       38.575       35.762     3755.449     1488.010     1278.904        0.410        0.326       40.917       37.103        0.822      339.081       12.170      858.119
05/17/2013  07:20:00     -102.790      -41.079        0.704       96.551       41.581       34.439     9322.006     1728.980     1186.056        1.224        0.612      110.695       44.061        0.158      338.937       11.928      858.113
05/17/2013  07:21:00     -168.555      -59.188      -10.944       34.290       36.749       23.660     1175.827     1350.504      559.799        1.756        0.154      178.645       13.851        0.006      338.766       11.641      858.119
05/17/2013  07:22:00     -148.637      -39.893       -8.098       39.709       40.000       26.559     1576.844     1600.007      705.375        1.382        0.194      153.897       21.554        0.020      338.776       11.658      858.136
05/17/2013  07:23:00      -46.811      -16.333        5.104       27.254       37.435       25.249      742.793     1401.355      637.506        0.263        0.139       49.579       15.691        0.100      338.830       11.748      858.147
05/17/2013  07:24:00        7.018       -9.874       10.758       24.791       29.545       27.803      614.601      872.879      772.991        0.126        0.113       12.114        8.885        0.538      339.365       12.647      858.154
05/17/2013  07:25:00       20.731       32.151        8.700       13.780       19.149       17.965      189.892      366.669      322.747        0.121        0.044       38.255       10.488        0.075      339.011       12.051      858.159
05/17/2013  07:26:00      -28.096      -37.289       17.049       53.500       23.960       23.366     2862.298      574.089      545.968        0.323        0.199       46.688       25.653        0.302      339.023       12.073      858.165
05/17/2013  07:27:00      -98.200       -8.235      -17.250       56.486       45.512       37.992     3190.674     2071.318     1443.407        0.836        0.335       98.545       30.986        0.099      338.942       11.935      858.178
05/17/2013  07:28:00     -178.051       58.473      -17.741       44.943       70.146       32.018     2019.855     4920.399     1025.159        2.170        0.398      187.407       15.273        0.007      339.085       12.175      858.176
05/17/2013  07:29:00     -101.833      -76.115       -0.233       53.800       37.307       28.646     2894.421     1391.798      820.617        1.063        0.255      127.136       31.792        0.063      339.031       12.087      858.185
05/17/2013  07:30:00     -105.724      -68.142       -2.691       63.112       48.655       34.782     3983.117     2367.313     1209.807        1.169        0.378      125.781       33.600        0.071      339.004       12.040      858.199
05/17/2013  07:31:00     -138.823      -60.576       -2.977       50.217       36.557       27.698     2521.771     1336.447      767.192        1.379        0.231      151.464       30.629        0.041      338.879       11.831      858.206
05/17/2013  07:32:00      -26.698      -54.022        7.113       34.876       25.955       23.893     1216.352      673.684      570.861        0.307        0.123       60.259       23.634        0.154      338.877       11.827      858.217
05/17/2013  07:33:00      -15.053      -38.285       -1.383       17.693       21.652       14.519      313.058      468.819      210.788        0.134        0.050       41.138       10.564        0.066      338.927       11.910      858.222
05/17/2013  07:34:00      -28.353       20.413        0.972       35.491       36.921       36.810     1259.601     1363.168     1354.996        0.260        0.199       34.937       32.169        0.848      339.375       12.666      858.218
05/17/2013  07:35:00       -8.884       55.943       11.191       27.380       35.165       23.146      749.661     1236.590      535.750        0.293        0.126       56.644       15.378        0.074      339.334       12.596      858.215
05/17/2013  07:36:00      -11.983      -36.342      -11.767       22.900       30.509       15.578      524.396      930.789      242.684        0.165        0.085       38.267       13.374        0.122      339.281       12.507      858.220
05/17/2013  07:37:00      -17.790      -80.289        0.274       38.980       37.660       24.417     1519.464     1418.269      596.204        0.515        0.177       82.237       16.700        0.041      339.085       12.176      858.233
05/17/2013  07:38:00      -13.939      -24.502      -14.415       18.780       37.940       16.819      352.686     1439.447      282.878        0.154        0.104       28.189       16.544        0.344      339.176       12.331      858.234
05/17/2013  07:39:00        4.910       37.333       24.621       18.548       25.054       19.151      344.033      627.704      366.756        0.168        0.067       37.655        9.428        0.063      339.532       12.929      858.240
05/17/2013  07:40:00       -7.531       22.289       39.445       14.576       24.832       16.510      212.454      616.635      272.567        0.161        0.055       23.527       10.346        0.193      339.854       13.473      858.241
05/17/2013  07:41:00       74.697       85.037       13.130       52.672       45.952       48.817     2774.374     2111.544     2383.135        1.012        0.363      113.185       41.209        0.133      339.151       12.290      858.239
05/17/2013  07:42:00       77.741       78.469       10.702       56.557       37.049       34.024     3198.658     1372.643     1157.649        0.902        0.286      110.458       24.049        0.047      338.972       11.987      858.233
05/17/2013  07:43:00       70.316       77.110        9.903       43.831       39.062       37.488     1921.115     1525.861     1405.387        0.792        0.243      104.356       28.325        0.074      338.906       11.876      858.224
05/17/2013  07:44:00       61.870       49.414       17.291       53.536       43.131       39.921     2866.073     1860.324     1593.722        0.644        0.316       79.181       30.186        0.145      339.063       12.140      858.213
05/17/2013  07:45:00       32.710       19.733       26.239       50.222       34.168       31.800     2522.281     1167.469     1011.251        0.342        0.235       38.201       31.528        0.681      339.650       13.128      858.202
05/17/2013  07:46:00      137.626       61.261       22.979       78.016       64.817       56.105     6086.498     4201.184     3147.785        1.833        0.672      150.645       46.567        0.096      339.165       12.311      858.206
05/17/2013  07:47:00      175.442      111.704       18.630       51.043       36.528       38.900     2605.388     1334.319     1513.224        2.453        0.273      207.985       18.877        0.008      338.861       11.798      858.223
05/17/2013  07:48:00       94.804       76.647        7.368       37.276       42.604       47.210     1389.485     1815.122     2228.830        1.017        0.272      121.913       24.286        0.040      339.055       12.126      858.223
05/17/2013  07:49:00       69.428       46.678        7.916       33.449       36.397       31.928     1118.834     1324.733     1019.428        0.526        0.173       83.661       20.394        0.059      339.159       12.301      858.224
05/17/2013  07:50:00       61.066       87.038        4.581       63.264       44.483       37.816     4002.386     1978.774     1430.063        0.937        0.371      106.323       21.977        0.043      339.123       12.243      858.231
05/17/2013  07:51:00       44.319       88.943        2.267       38.148       39.031       32.271     1455.281     1523.438     1041.449        0.695        0.201       99.373       26.335        0.070      339.144       12.276      858.221
05/17/2013  07:52:00      120.898       87.759       35.324       64.885       42.288       31.508     4210.080     1788.296      992.732        1.528        0.350      149.392       30.412        0.041      339.083       12.172      858.225
05/17/2013  07:53:00      179.601      121.137       26.170       84.152       50.111       49.298     7081.500     2511.154     2430.334        2.982        0.601      216.635       34.149        0.025      338.913       11.884      858.230
05/17/2013  07:54:00       92.511       53.788       50.885       73.645       48.834       60.016     5423.587     2384.768     3601.863        1.272        0.571      107.011       37.070        0.120      339.176       12.329      858.223
05/17/2013  07:55:00       64.674      130.300      136.665       53.602       80.090       50.430     2873.171     6414.399     2543.191        2.583        0.592      145.468       53.051        0.133      339.101       12.202      858.215
05/17/2013  07:56:00      144.902       83.227       61.245       86.976      112.350       84.945     7564.787    12622.576     7215.661        2.953        1.370      167.103       70.527        0.178      338.993       12.020      858.228
05/17/2013  07:57:00       51.007       35.245       38.480       60.929       39.959       27.670     3712.314     1596.746      765.630        0.570        0.304       61.999       24.753        0.159      339.216       12.397      858.249
05/17/2013  07:58:00       55.933       97.749       90.002       50.591       48.736       45.694     2559.499     2375.159     2087.916        1.390        0.351      112.621       39.594        0.124      339.196       12.364      858.254
05/17/2013  07:59:00       35.883       40.783       43.584       43.614       63.507       31.494     1902.149     4033.130      991.878        0.589        0.346       54.321       25.677        0.223      339.421       12.744      858.258
05/17/2013  08:00:00       38.247      -17.247       15.408       70.548       77.491       42.290     4977.015     6004.830     1788.459        0.738        0.639       41.956       35.228        0.705      339.501       12.877      858.257
05/17/2013  08:01:00       76.640       29.750       67.126       82.898       72.632       56.589     6872.036     5275.452     3202.371        1.330        0.767       82.211       30.400        0.137      339.552       12.963      858.258
05/17/2013  08:02:00       48.156       35.380       41.461       60.773       61.732       48.454     3693.375     3810.873     2347.784        0.757        0.493       59.756       29.734        0.248      339.165       12.311      858.269
05/17/2013  08:03:00       11.684       85.630      117.184       54.042       73.038       48.622     2920.533     5334.589     2364.102        1.591        0.531       86.424       46.607        0.291      339.432       12.761      858.252
05/17/2013  08:04:00       69.458       83.523       77.975       56.997       45.184       46.767     3248.685     2041.593     2187.195        1.268        0.374      108.630       38.423        0.125      339.242       12.441      858.271
05/17/2013  08:05:00       54.970       46.266       51.866       69.441       35.135       34.217     4822.049     1234.433     1170.822        0.754        0.361       71.849       16.287        0.051      339.398       12.703      858.284
05/17/2013  08:06:00       41.547       68.283       80.826       69.769       52.685       51.265     4867.676     2775.707     2628.068        1.159        0.514       79.930       47.921        0.359      339.367       12.652      858.275
05/17/2013  08:07:00       25.304       12.234       29.653       44.945       34.426       28.829     2020.062     1185.171      831.111        0.285        0.202       28.106       24.225        0.743      339.468       12.821      858.293
05/17/2013  08:08:00      -24.426       -1.817        9.407       43.899       21.767       31.180     1927.138      473.816      972.221        0.203        0.169       24.493       16.097        0.432      339.279       12.505      858.293
05/17/2013  08:09:00       85.414       59.598       34.909       72.690       40.098       34.748     5283.792     1607.861     1207.411        1.008        0.405      104.151       35.443        0.116      339.441       12.778      858.299
05/17/2013  08:10:00       29.743       59.694       79.774       61.632       61.223       29.798     3798.483     3748.316      887.931        0.962        0.422       66.693       22.460        0.113      339.580       13.010      858.302
05/17/2013  08:11:00       46.070       25.455       47.951       53.819       50.829       43.480     2896.468     2583.546     1890.510        0.622        0.369       52.634       43.359        0.679      339.638       13.109      858.308
05/17/2013  08:12:00       55.290       45.167       39.502       57.831       47.717       32.728     3344.452     2276.866     1071.148        0.667        0.335       71.393       30.778        0.186      339.568       12.990      858.307
05/17/2013  08:13:00       58.462       -8.652       49.747       68.801       76.213       51.121     4733.583     5808.492     2613.375        0.956        0.658       59.098       47.256        0.639      339.427       12.753      858.303
05/17/2013  08:14:00       17.578       86.410      118.633       49.559       69.489       46.155     2456.069     4828.738     2130.272        1.563        0.471       88.180       43.733        0.246      339.430       12.759      858.302
05/17/2013  08:15:00       38.225       75.968       82.374       64.578       53.865       48.914     4170.296     2901.458     2392.595        1.174        0.473       85.043       43.574        0.263      339.393       12.696      858.307
05/17/2013  08:16:00       63.461       99.601       87.705       79.226       63.515       52.816     6276.691     4034.142     2789.522        1.737        0.655      118.100       44.988        0.145      339.379       12.671      858.314
05/17/2013  08:17:00       69.255       85.566       76.995       68.215       57.371       30.509     4653.304     3291.378      930.799        1.346        0.444      110.081       18.066        0.027      339.421       12.741      858.329
05/17/2013  08:18:00       50.401       25.200       50.137       50.697       45.370       29.963     2570.185     2058.439      897.791        0.561        0.276       56.350       28.999        0.265      339.545       12.953      858.346
05/17/2013  08:19:00      103.387       77.969       48.216       56.288       40.666       44.272     3168.370     1653.745     1959.975        1.294        0.339      129.492       25.803        0.040      339.211       12.389      858.345
05/17/2013  08:20:00       63.535       44.092        1.326       57.039       36.917       19.710     3253.464     1362.873      388.486        0.549        0.250       77.336       16.180        0.044      339.000       12.033      858.361
05/17/2013  08:21:00       -2.216      -13.912       12.030       30.767       18.147       25.859      946.630      329.302      668.692        0.114        0.097       14.088       18.353        1.697      339.601       13.046      858.347
05/17/2013  08:22:00       61.453       62.174       43.421       69.556       68.498       52.407     4837.968     4692.032     2746.533        1.090        0.614       87.419       47.426        0.294      339.445       12.782      858.355
05/17/2013  08:23:00       94.140       94.804       77.725       67.065       50.813       55.793     4497.730     2581.965     3112.829        1.704        0.510      133.605       40.453        0.092      339.177       12.332      858.352
05/17/2013  08:24:00      104.532       81.548       34.957       52.768       33.324       43.541     2784.433     1110.456     1895.793        1.229        0.290      132.578       22.591        0.029      339.226       12.415      858.353
05/17/2013  08:25:00      219.672      124.904       39.531       61.729       62.142       39.897     3810.450     3861.644     1591.770        3.734        0.463      252.699       23.622        0.009      339.160       12.300      858.339
05/17/2013  08:26:00      198.316      138.295       85.935       74.433       70.274       76.576     5540.339     4938.409     5863.911        4.109        0.817      241.774       47.062        0.038      339.368       12.649      858.323
05/17/2013  08:27:00       47.140        0.668       47.215       65.056       95.413       64.544     4232.288     9103.583     4165.898        1.097        0.875       47.144       61.496        1.702      339.745       13.288      858.335
05/17/2013  08:28:00       32.350       36.289       60.657       62.362       77.380       62.124     3888.964     5987.686     3859.398        0.989        0.687       48.615       59.433        1.495      339.965       13.660      858.354
05/17/2013  08:29:00       64.661      -18.001        8.697       49.633      116.934       43.890     2463.396    13673.487     1926.360        1.132        0.903       67.120       28.879        0.185      339.826       13.426      858.378
05/17/2013  08:30:00       38.833       49.703       37.803       35.955       37.485       41.823     1292.749     1405.137     1749.122        0.493        0.222       63.075       15.925        0.064      340.132       13.940      858.404
05/17/2013  08:31:00       55.111       59.760       54.424       68.321       59.699       46.743     4667.815     3563.960     2184.872        0.999        0.521       81.292       22.879        0.079      339.858       13.478      858.412
05/17/2013  08:32:00        1.595      -31.624       28.368       45.570       72.959       39.740     2076.592     5323.042     1579.285        0.539        0.449       31.664       13.282        0.176      339.829       13.433      858.409
05/17/2013  08:33:00       23.358      -47.792       36.542       40.029       74.301       48.627     1602.343     5520.598     2364.593        0.682        0.474       53.194       41.620        0.612      339.848       13.464      858.410
05/17/2013  08:34:00       37.869       56.094       76.881       56.754       53.086       32.973     3221.052     2818.153     1087.233        0.881        0.356       67.680       21.922        0.105      339.853       13.470      858.420
05/17/2013  08:35:00       36.699       49.991       65.570       53.095       64.253       36.797     2819.102     4128.420     1354.025        0.822        0.415       62.015       33.490        0.292      339.787       13.358      858.399
05/17/2013  08:36:00       41.144      -14.975       38.763       50.897       67.887       42.575     2590.540     4608.619     1812.631        0.621        0.451       43.784       47.583        1.181      340.065       13.828      858.399
05/17/2013  08:37:00       93.417       60.044       51.384      103.977       58.541       50.787    10811.129     3427.047     2579.310        1.589        0.841      111.050       55.150        0.247      339.955       13.641      858.392
05/17/2013  08:38:00      185.695       86.160       10.811       62.638       58.333       42.623     3923.564     3402.682     1816.732        2.558        0.457      204.710       22.817        0.012      339.378       12.667      858.404
05/17/2013  08:39:00       82.104       79.220       62.635       66.008       54.490       56.008     4357.078     2969.167     3136.910        1.370        0.523      114.092       38.234        0.112      339.698       13.211      858.409
05/17/2013  08:40:00       75.519       55.168       62.194       51.105       43.111       37.273     2611.768     1858.552     1389.272        0.924        0.293       93.523       14.375        0.024      339.437       12.770      858.425
05/17/2013  08:41:00       44.669     -116.591       18.541       60.478      114.510       45.863     3657.554    13112.545     2103.421        1.740        0.944      124.855       60.978        0.239      339.809       13.397      858.420
05/17/2013  08:42:00       78.195     -103.854       -7.944       55.136       52.209       38.384     3039.999     2725.818     1473.341        1.210        0.362      130.000       28.609        0.048      339.586       13.021      858.419
05/17/2013  08:43:00       53.837     -121.705       -2.021       52.649       87.945       52.069     2771.916     7734.410     2711.172        1.546        0.661      133.081       48.239        0.131      339.706       13.222      858.419
05/17/2013  08:44:00       65.413        6.798       44.307       46.059       44.444       42.460     2121.428     1975.293     1802.872        0.609        0.295       65.766       30.590        0.216      339.547       12.955      858.429
05/17/2013  08:45:00       28.124       29.172       28.466       23.063       43.284       26.009      531.902     1873.524      676.463        0.277        0.154       40.521       24.952        0.379      339.537       12.938      858.422
05/17/2013  08:46:00        3.918       40.056       18.888       28.256       40.798       22.144      798.395     1664.472      490.376        0.246        0.148       40.247       15.120        0.141      339.695       13.205      858.408
05/17/2013  08:47:00       52.304       74.393       14.013       36.585       40.526       33.371     1338.484     1642.367     1113.601        0.628        0.205       90.939       27.531        0.092      339.584       13.017      858.413
05/17/2013  08:48:00       34.152       72.342        4.684       31.491       33.066       27.553      991.699     1093.347      759.180        0.463        0.142       79.998       16.163        0.041      339.567       12.990      858.416
05/17/2013  08:49:00       10.400       49.876        7.663       29.579       32.115       31.766      874.905     1031.376     1009.047        0.278        0.146       50.949       20.336        0.159      339.820       13.416      858.421
05/17/2013  08:50:00      -48.827       46.162      -16.867       32.397       48.229       24.314     1049.584     2326.014      591.195        0.438        0.198       67.194       24.401        0.132      339.404       12.715      858.428
05/17/2013  08:51:00       73.910       41.944       21.720       43.021       39.198       28.721     1850.817     1536.510      824.892        0.595        0.211       84.983       14.947        0.031      339.664       13.152      858.436
05/17/2013  08:52:00      107.428       86.104       35.848       43.489       34.097       33.801     1891.285     1162.615     1142.487        1.222        0.210      137.676       21.911        0.025      339.502       12.881      858.424
05/17/2013  08:53:00      115.414      109.454       75.032       66.595       46.915       58.187     4434.834     2201.027     3385.747        2.047        0.501      159.062       40.675        0.065      339.644       13.116      858.417
05/17/2013  08:54:00      148.516       84.181       47.847       85.851       56.816       51.416     7370.353     3228.092     2643.583        2.234        0.662      170.715       42.553        0.062      339.439       12.772      858.414
05/17/2013  08:55:00       94.165       31.238       33.700       63.070       91.818       47.801     3977.805     8430.634     2284.935        1.283        0.735       99.211       26.332        0.070      339.638       13.108      858.411
05/17/2013  08:56:00      124.498       77.754        5.139      100.911       68.053       48.226    10182.929     4631.276     2325.715        1.935        0.857      146.784       34.093        0.054      339.667       13.156      858.415
05/17/2013  08:57:00      127.150       83.596       13.637       61.192       62.611       42.493     3744.429     3920.076     1805.688        1.640        0.474      152.169       18.263        0.014      339.868       13.496      858.397
05/17/2013  08:58:00       57.455      103.744       -0.853       54.647       70.120       42.571     2986.346     4916.780     1812.255        1.189        0.486      118.592       36.369        0.094      340.107       13.899      858.400
05/17/2013  08:59:00      227.001      100.475       37.683       84.155       71.294       62.309     7082.000     5082.874     3882.420        3.954        0.802      248.243       21.913        0.008      339.703       13.216      858.397
05/17/2013  09:00:00      215.676      119.310       24.015       62.402       63.283       56.018     3893.975     4004.701     3138.056        3.618        0.552      246.478       30.194        0.015      339.480       12.838      858.421
05/17/2013  09:01:00      112.700       94.164       32.131       40.807       40.451       57.301     1665.204     1636.253     3283.414        1.459        0.329      146.861       25.794        0.031      339.690       13.197      858.415
05/17/2013  09:02:00       80.533       78.846       69.178       69.567       64.280       54.567     4839.525     4131.869     2977.524        1.472        0.597      112.705       47.670        0.179      339.659       13.142      858.390
05/17/2013  09:03:00       61.054       65.468       54.499       67.364       60.212       53.309     4537.921     3625.441     2841.871        1.099        0.550       89.519       35.124        0.154      339.790       13.365      858.367
05/17/2013  09:04:00      100.458      126.794        3.218       76.318       67.109       56.207     5824.467     4503.569     3159.228        1.983        0.674      161.767       44.111        0.074      339.844       13.455      858.376
05/17/2013  09:05:00       88.349      128.495       -0.640       70.787       64.641       59.215     5010.827     4178.454     3506.393        1.850        0.635      155.937       42.648        0.075      339.778       13.343      858.371
05/17/2013  09:06:00      115.940       96.456        9.759       79.049       55.284       40.653     6248.761     3056.297     1652.674        1.690        0.548      150.817       29.399        0.038      339.650       13.127      858.360
05/17/2013  09:07:00       93.629      156.987       -8.616       50.955       57.436       53.357     2596.366     3298.863     2846.961        2.111        0.437      182.787       38.498        0.044      339.753       13.301      858.357
05/17/2013  09:08:00      119.920      101.531       13.522       65.284       51.127       43.856     4262.058     2613.953     1923.314        1.683        0.440      157.128       25.979        0.027      339.597       13.038      858.354
05/17/2013  09:09:00       82.736       63.144        3.317       32.657       25.972       33.613     1066.498      674.527     1129.805        0.686        0.144      104.079       19.821        0.036      339.391       12.692      858.331
05/17/2013  09:10:00       61.959        9.850        9.755       40.256       66.123       29.175     1620.511     4372.219      851.165        0.544        0.342       62.737       19.875        0.100      339.546       12.953      858.297
05/17/2013  09:11:00       16.622        7.271       24.819       25.061       54.615       23.692      628.050     2982.837      561.330        0.256        0.209       18.142       18.371        1.025      339.846       13.461      858.261
05/17/2013  09:12:00       -6.910       23.449       24.677       29.351       39.564       25.436      861.467     1565.299      647.004        0.214        0.154       24.446       14.022        0.329      340.228       14.103      858.255
05/17/2013  09:13:00      133.572       65.224       40.446       88.401       52.482       57.476     7814.690     2754.330     3303.502        1.880        0.694      148.646       34.096        0.053      340.017       13.745      858.249
05/17/2013  09:14:00      166.268       92.554        1.450       72.758       66.759       47.939     5293.698     4456.811     2298.105        2.413        0.602      190.293       35.002        0.034      339.776       13.339      858.243
05/17/2013  09:15:00       65.213      166.060       -8.230       66.161      121.174       54.831     4377.218    14683.087     3006.441        2.698        1.103      178.406       62.944        0.124      340.019       13.750      858.245
05/17/2013  09:16:00       79.471      139.127      -13.244       44.792       71.578       45.515     2006.341     5123.352     2071.584        1.752        0.460      160.225       45.879        0.082      339.717       13.241      858.246
05/17/2013  09:17:00       36.412      123.186       -7.539       50.913       46.823       35.105     2592.090     2192.407     1232.365        1.129        0.301      128.455       27.578        0.046      340.019       13.752      858.225
05/17/2013  09:18:00       14.683      210.388      -24.158       52.039      105.725       37.581     2708.027    11177.750     1412.336        3.018        0.765      210.900       40.342        0.037      339.924       13.588      858.209
05/17/2013  09:19:00       10.573      278.993      -25.209       56.390       75.679       47.370     3179.873     5727.385     2243.940        4.487        0.558      279.193       39.406        0.020      339.830       13.429      858.201
05/17/2013  09:20:00      -39.439      100.153       -2.760       47.080       47.573       34.997     2216.570     2263.232     1224.806        0.865        0.285      107.639       31.617        0.086      340.119       13.920      858.205
05/17/2013  09:21:00      -95.077      109.413       -3.695       71.362       66.657       49.005     5092.474     4443.178     2401.507        1.648        0.597      144.951       43.536        0.090      340.253       14.146      858.201
05/17/2013  09:22:00     -109.023      127.371       -3.683       69.231       88.562       46.299     4792.873     7843.236     2143.624        2.145        0.739      167.658       32.821        0.038      339.875       13.507      858.211
05/17/2013  09:23:00      -44.917       82.394      -13.630       68.406       28.204       28.783     4679.426      795.461      828.483        0.765        0.315       93.842       17.292        0.034      339.767       13.327      858.220
05/17/2013  09:24:00       55.768       54.357      -13.175       20.990       21.091       24.408      440.589      444.819      595.735        0.386        0.074       77.876       12.100        0.024      339.778       13.344      858.204
05/17/2013  09:25:00       21.168       32.806        4.861       60.702       23.383       29.624     3684.736      546.779      877.604        0.333        0.255       39.043       20.136        0.266      339.874       13.507      858.197
05/17/2013  09:26:00      -57.154       -4.728        1.959       59.170       40.034       33.846     3501.033     1602.738     1145.579        0.477        0.312       57.349       40.167        0.491      339.805       13.391      858.191
05/17/2013  09:27:00      -16.547       13.335       28.488       30.337       19.532       18.638      920.332      381.498      347.373        0.146        0.082       21.251       17.089        0.647      340.721       14.939      858.172
05/17/2013  09:28:00       38.619       66.785        7.085       60.283       50.277       33.818     3634.030     2527.752     1143.685        0.665        0.365       77.147       33.025        0.183      340.448       14.476      858.161
05/17/2013  09:29:00      -50.710      145.807      -15.659       47.307       72.888       40.361     2237.962     5312.665     1629.020        1.663        0.459      154.374       34.491        0.050      340.387       14.371      858.168
05/17/2013  09:30:00      -52.311      222.725      -13.849       46.609       72.829       43.269     2172.442     5304.136     1872.234        3.094        0.467      228.786       32.788        0.021      339.956       13.643      858.167
05/17/2013  09:31:00      -71.476      134.209       -2.930       48.051       64.855       47.289     2308.855     4206.207     2236.233        1.594        0.438      152.055       39.384        0.067      340.251       14.143      858.171
05/17/2013  09:32:00      -12.242      222.722      -27.359       70.091       75.521       41.318     4912.812     5703.372     1707.213        3.141        0.616      223.058       36.777        0.027      340.181       14.022      858.167
05/17/2013  09:33:00       65.824      101.447      -17.879       52.561       64.642       34.699     2762.656     4178.577     1204.046        1.154        0.407      120.931       36.061        0.089      340.218       14.085      858.179
05/17/2013  09:34:00       -9.751        4.147       11.109       21.174       15.522       20.525      448.329      240.932      421.287        0.067        0.056       10.596       12.708        1.438      340.580       14.700      858.155
05/17/2013  09:35:00      -15.300        5.864       20.038       32.268       25.165       20.679     1041.240      633.293      427.633        0.139        0.105       16.386       18.300        1.247      340.276       14.184      858.131
05/17/2013  09:36:00      -17.227       24.636       16.835       28.369       21.626       22.780      804.804      467.673      518.906        0.149        0.090       30.062       12.260        0.166      340.477       14.525      858.122
05/17/2013  09:37:00       74.282       30.220        7.771       46.237       29.613       40.676     2137.856      876.921     1654.556        0.558        0.233       80.194       23.062        0.083      339.918       13.582      858.105
05/17/2013  09:38:00       49.781     -106.130       -6.268       52.205       59.997       38.778     2725.401     3599.654     1503.764        1.080        0.391      117.225       32.799        0.078      340.150       13.971      858.072
05/17/2013  09:39:00       38.838      106.503      -12.159       33.955       58.572       33.488     1152.918     3430.654     1121.439        0.935        0.285      113.363       31.546        0.077      340.390       14.378      858.070
05/17/2013  09:40:00      -36.896      184.122       -8.083       45.156       54.010       40.857     2039.047     2917.105     1669.259        2.098        0.331      187.783       30.868        0.027      340.188       14.035      858.075
05/17/2013  09:41:00        5.030      139.620       -0.121       29.393       48.169       32.602      863.929     2320.292     1062.899        1.188        0.212      139.711       32.548        0.054      340.251       14.145      858.081
05/17/2013  09:42:00       26.143       84.076       11.231       35.992       50.674       42.213     1295.417     2567.858     1781.919        0.676        0.282       88.047       34.931        0.157      340.522       14.601      858.074
05/17/2013  09:43:00       28.169       53.459       20.789       39.608       42.489       31.709     1568.827     1805.356     1005.443        0.423        0.219       60.426       30.113        0.248      340.442       14.465      858.078
05/17/2013  09:44:00       20.320       40.196       10.641       41.101       49.879       31.949     1689.274     2487.900     1020.759        0.367        0.260       45.040       31.605        0.492      340.806       15.082      858.079
05/17/2013  09:45:00        3.649       59.528       15.304       37.041       46.152       27.512     1372.045     2129.985      756.891        0.402        0.213       59.640       19.670        0.109      340.570       14.682      858.077
05/17/2013  09:46:00       13.624        4.995        0.881       22.488       28.318       26.335      505.726      801.937      693.541        0.111        0.100       14.511       22.884        2.487      340.655       14.825      858.067
05/17/2013  09:47:00       -6.829       -1.974      -15.987       32.003       24.463       13.944     1024.188      598.420      194.434        0.106        0.091        7.109       11.938        2.820      340.221       14.093      858.055
05/17/2013  09:48:00        0.413      -14.406       20.366       29.171       28.756       22.665      850.924      826.929      513.697        0.141        0.110       14.412       16.083        1.245      340.541       14.634      858.054
05/17/2013  09:49:00       -8.073       16.722       23.810       25.103       27.219       18.325      630.163      740.860      335.811        0.131        0.085       18.569       15.518        0.698      340.938       15.304      858.043
05/17/2013  09:50:00      -25.794       -7.861       22.668       29.808       23.861       25.573      888.529      569.324      653.976        0.168        0.106       26.965       21.356        0.627      341.082       15.548      858.047
05/17/2013  09:51:00      -16.188        0.797       37.869       33.106       42.498       33.774     1095.997     1806.097     1140.685        0.287        0.202       16.208       23.199        2.049      341.311       15.937      858.028
05/17/2013  09:52:00      -15.508      -87.992        1.711       62.114       56.188       36.985     3858.108     3157.138     1367.860        0.818        0.419       89.348       31.613        0.125      340.742       14.974      858.023
05/17/2013  09:53:00       75.492      -53.427       56.785       70.829      173.963       87.331     5016.717    30263.161     7626.734        2.734        2.145       92.485      114.423        1.531      340.446       14.470      858.011
05/17/2013  09:54:00      111.576     -107.271        0.796      119.947      147.925       64.279    14387.373    21881.770     4131.753        3.217        2.020      154.778       79.431        0.263      340.247       14.135      857.994
05/17/2013  09:55:00       78.057       34.287       53.013       61.648       84.297       51.981     3800.475     7105.912     2702.014        1.184        0.680       85.256       48.668        0.326      340.331       14.279      858.030
05/17/2013  09:56:00       14.598        9.651       18.003       40.834       53.484       36.377     1667.418     2860.506     1323.310        0.324        0.293       17.500       15.118        0.746      340.542       14.635      857.997
05/17/2013  09:57:00       54.189      -24.309       25.443       58.247       47.004       41.639     3392.751     2209.415     1733.776        0.575        0.367       59.392       39.591        0.444      340.737       14.963      857.992
05/17/2013  09:58:00       69.031      -54.696       21.475       99.546      114.401       70.219     9909.412    13087.608     4930.641        1.807        1.396       88.074       77.906        0.782      340.668       14.848      857.966
05/17/2013  09:59:00       39.619        4.693       90.492       85.973      125.632       86.757     7391.274    15783.477     7526.829        2.024        1.535       39.897       98.062        6.041      340.949       15.323      857.954
05/17/2013  10:00:00       -2.366      -15.640       43.531       47.443      111.881       59.595     2250.795    12517.465     3551.560        1.023        0.916       15.818       68.761       18.896      340.662       14.838      857.970
05/17/2013  10:01:00      108.726     -123.432        2.256       51.028       71.522       40.048     2603.819     5115.428     1603.860        1.819        0.466      164.489       23.121        0.020      340.362       14.330      857.964
05/17/2013  10:02:00       40.484      -37.153       32.777       42.381       87.330       49.090     1796.110     7626.607     2409.876        0.796        0.592       54.948       53.942        0.964      340.765       15.013      857.964
05/17/2013  10:03:00       -5.296       35.670        9.955       53.226       32.028       42.831     2832.984     1025.805     1834.503        0.355        0.285       36.062       39.792        1.218      340.416       14.422      857.964
05/17/2013  10:04:00      -66.148       -9.585        5.849       39.243       41.034       25.530     1539.984     1683.803      651.773        0.419        0.194       66.838       24.411        0.133      340.662       14.838      857.958
05/17/2013  10:05:00      -13.968      -52.791       -0.842       86.044      107.986       31.920     7403.648    11661.059     1018.888        1.153        1.004       54.608       40.793        0.558      340.845       15.145      857.953
05/17/2013  10:06:00        9.226      -60.383       10.179       77.398       57.643       48.777     5990.511     3322.696     2379.160        0.776        0.585       61.084       36.449        0.356      340.941       15.309      857.948
05/17/2013  10:07:00      -21.687      -48.984       19.986       48.014       56.875       39.344     2305.362     3234.806     1547.975        0.518        0.354       53.570       22.426        0.175      341.180       15.715      857.952
05/17/2013  10:08:00      -85.454      -74.116       -4.889       60.232       64.503       35.904     3627.946     4160.686     1289.109        1.095        0.454      113.117       33.959        0.090      340.270       14.175      857.949
05/17/2013  10:09:00      -27.326      -93.543       -4.673       81.133       76.174       39.571     6582.640     5802.426     1565.841        1.173        0.698       97.452       32.124        0.109      340.625       14.774      857.941
05/17/2013  10:10:00       59.506      -90.555       10.551       92.833      130.870       86.900     8617.927    17127.039     7551.583        2.257        1.665      108.356       94.092        0.754      340.984       15.381      857.910
05/17/2013  10:11:00       37.682     -110.645       13.493       69.193      117.252       60.428     4787.635    13748.136     3651.598        1.801        1.109      116.885       71.689        0.376      341.117       15.607      857.916
05/17/2013  10:12:00       79.648      -96.150       27.401       62.363       84.567       56.563     3889.088     7151.645     3199.371        1.529        0.712      124.855       54.890        0.193      341.194       15.738      857.919
05/17/2013  10:13:00       31.584     -171.838      -13.779      114.939       79.584       50.884    13210.904     6333.667     2589.160        2.642        1.107      174.716       47.846        0.075      340.766       15.010      857.915
05/17/2013  10:14:00      -31.155     -161.136       -2.179       86.503      101.822       45.322     7482.776    10367.668     2054.042        2.342        0.995      164.120       42.223        0.066      340.707       14.912      857.952
05/17/2013  10:15:00       72.070     -145.257       13.239       92.982       94.802       49.785     8645.619     8987.357     2478.575        2.329        1.006      162.154       51.029        0.099      340.612       14.751      857.967
05/17/2013  10:16:00       82.337     -108.310       15.524      101.116      109.421       67.814    10224.459    11973.014     4598.771        2.277        1.340      136.053       77.736        0.326      340.661       14.833      857.976
05/17/2013  10:17:00        7.488      -51.452       31.249       62.801       60.225       32.780     3943.963     3627.019     1074.549        0.616        0.432       51.994       32.736        0.396      340.833       15.127      857.976
05/17/2013  10:18:00       49.564      -48.462       -1.040       32.690       60.679       41.991     1068.615     3681.932     1763.276        0.566        0.326       69.319       40.087        0.334      340.457       14.492      857.996
05/17/2013  10:19:00       31.540       91.223       29.980       38.975       39.820       43.368     1519.067     1585.665     1880.802        0.760        0.249       96.522       22.681        0.055      340.684       14.875      857.963
05/17/2013  10:20:00       94.869       37.654       -3.365       72.507       74.783       40.056     5257.263     5592.509     1604.447        1.144        0.623      102.068       28.109        0.076      340.814       15.093      857.932
05/17/2013  10:21:00       18.154      -24.607       -1.649       28.765       51.473       38.753      827.412     2649.443     1501.803        0.296        0.249       30.579       38.788        1.609      341.074       15.534      857.932
05/17/2013  10:22:00       21.815       35.259       14.105       31.194       33.916       26.452      973.054     1150.282      699.699        0.237        0.141       41.462       13.305        0.103      341.185       15.724      857.922
05/17/2013  10:23:00       47.769       58.482        0.860       46.369       26.318       28.138     2150.102      692.657      791.734        0.467        0.182       75.512       14.696        0.038      340.890       15.223      857.904
05/17/2013  10:24:00       33.029      -21.709       15.867       50.968       54.654       32.675     2597.708     2987.071     1067.644        0.423        0.333       39.525       25.070        0.402      341.419       16.119      857.903
05/17/2013  10:25:00       64.013       48.355      108.073       77.242      115.067       73.015     5966.309    13240.472     5331.201        2.132        1.227       80.224       72.938        0.827      341.285       15.891      857.877
05/17/2013  10:26:00       82.813     -129.581        5.043       97.141      123.548       90.265     9436.420    15264.205     8147.788        2.826        1.642      153.784       92.447        0.361      341.123       15.616      857.865
05/17/2013  10:27:00       78.536     -130.051        7.325       50.331       91.822       45.076     2533.221     8431.252     2031.857        1.806        0.650      151.925       38.546        0.064      340.962       15.343      857.891
05/17/2013  10:28:00       55.266      -98.782       22.607       68.379       95.440       48.455     4675.707     9108.771     2347.897        1.473        0.807      113.191       29.326        0.067      341.018       15.439      857.871
05/17/2013  10:29:00      -52.558      -44.011        8.044       59.557       51.393       34.131     3546.979     2641.209     1164.915        0.606        0.368       68.551       21.068        0.094      341.386       16.062      857.872
05/17/2013  10:30:00      -30.785      -82.181      -12.417       76.840       66.978       41.746     5904.320     4486.068     1742.700        0.999        0.607       87.758       28.491        0.105      341.477       16.217      857.867
05/17/2013  10:31:00      -12.788      -15.483        7.167       53.256       76.248       47.595     2836.167     5813.765     2265.297        0.568        0.546       20.081       39.335        3.837      341.443       16.160      857.879
05/17/2013  10:32:00       53.374     -137.814        5.413      126.811      107.800       66.837    16081.073    11620.875     4467.162        2.701        1.608      147.789       59.781        0.164      341.573       16.378      857.878
05/17/2013  10:33:00       94.697       48.103       64.888       91.002      130.624       74.052     8281.313    17062.543     5483.628        2.315        1.541      106.214       75.509        0.505      341.018       15.438      857.864
05/17/2013  10:34:00       38.132     -145.207       14.875       56.990      104.451       42.311     3247.819    10909.931     1790.236        1.935        0.797      150.131       35.444        0.056      341.179       15.711      857.868
05/17/2013  10:35:00      128.607       48.119      127.031      109.522      232.141      137.855    11995.128    53889.224    19004.118        5.993        4.244      137.314      174.501        1.615      341.131       15.629      857.863
05/17/2013  10:36:00       50.736       20.805       86.765       95.991      115.019       57.443     9214.229    13229.298     3299.705        1.813        1.287       54.836       63.785        1.353      340.978       15.372      857.872
05/17/2013  10:37:00      168.036      -57.840       51.335      123.279      146.048       98.982    15197.779    21329.993     9797.454        4.026        2.316      177.712      110.543        0.387      341.068       15.521      857.878
05/17/2013  10:38:00      126.809       21.332       75.424       80.759      104.486       69.570     6521.978    10917.346     4839.985        2.225        1.114      128.591       71.572        0.310      340.884       15.211      857.895
05/17/2013  10:39:00      135.287      -20.079       41.795      116.925       88.203       65.969    13671.424     7779.759     4351.856        2.312        1.290      136.769       68.326        0.250      340.883       15.210      857.865
05/17/2013  10:40:00       63.600      -25.695       44.903       71.825      113.590       71.870     5158.786    12902.683     5165.326        1.497        1.161       68.594       73.353        1.144      340.950       15.325      857.853
05/17/2013  10:41:00       59.958       20.605       10.222       56.253       47.224       44.452     3164.434     2230.124     1975.959        0.575        0.369       63.400       28.948        0.208      340.551       14.651      857.859
05/17/2013  10:42:00        9.739      -23.603       -4.186       27.902       53.791       27.068      778.529     2893.467      732.692        0.254        0.220       25.533       21.809        0.730      340.615       14.759      857.872
05/17/2013  10:43:00       66.399      -54.180       11.103       67.770       44.826       39.201     4592.710     2009.376     1536.729        0.780        0.407       85.699       37.518        0.192      340.651       14.818      857.867
05/17/2013  10:44:00      -23.310      -78.434       -7.820       62.818       67.726       39.564     3946.104     4586.866     1565.282        0.843        0.505       81.824       31.874        0.152      341.009       15.423      857.868
05/17/2013  10:45:00       32.704      -71.873        6.640       96.639       67.600       50.049     9339.136     4569.716     2504.885        1.134        0.821       78.963       33.211        0.177      341.207       15.758      857.867
05/17/2013  10:46:00      147.848     -277.060      -24.345       88.113       96.649       55.496     7763.813     9340.988     3079.758        5.970        1.009      314.040       50.202        0.026      340.888       15.217      857.851
05/17/2013  10:47:00      115.491     -104.487        2.859       70.603      100.785       56.966     4984.818    10157.525     3245.139        2.132        0.919      155.742       61.857        0.158      340.939       15.305      857.863
05/17/2013  10:48:00       54.153      -25.252       30.829       51.639       51.413       38.774     2666.572     2643.264     1503.408        0.567        0.341       59.751       36.689        0.377      340.970       15.358      857.846
05/17/2013  10:49:00       27.588      -12.660       32.753       70.711       68.871       50.692     5000.080     4743.273     2569.704        0.715        0.616       30.354       27.469        0.819      341.096       15.571      857.833
05/17/2013  10:50:00       26.053      -28.185       71.266       81.132      117.706       90.724     6582.448    13854.776     8230.825        1.761        1.433       38.382       87.959        5.252      341.261       15.850      857.837
05/17/2013  10:51:00      -26.141     -100.991       31.783       74.993       81.848       60.595     5624.013     6699.037     3671.732        1.394        0.800      104.319       34.414        0.109      341.477       16.216      857.844
05/17/2013  10:52:00      -49.913      -70.360       19.033       66.315       80.344       43.416     4397.678     6455.112     1884.934        1.027        0.637       86.266       47.534        0.304      341.617       16.454      857.855
05/17/2013  10:53:00      -32.534      -68.810       -6.379       68.883       51.918       31.407     4744.862     2695.474      986.391        0.713        0.421       76.113       36.703        0.233      341.586       16.403      857.855
05/17/2013  10:54:00      -51.891       -3.334       26.780       41.320       42.651       38.556     1707.370     1819.073     1486.538        0.422        0.251       51.998       22.103        0.181      341.668       16.542      857.847
05/17/2013  10:55:00        7.948      -93.434        8.009       77.146      111.819       77.844     5951.481    12503.455     6059.750        1.668        1.226       93.771       71.939        0.589      341.427       16.130      857.837
05/17/2013  10:56:00       27.150       16.661       94.737       58.665       88.991       79.055     3441.573     7919.439     6249.648        1.380        0.881       31.855       56.028        3.094      341.323       15.955      857.830
05/17/2013  10:57:00       19.745        8.398       69.630       56.909      104.294       69.145     3238.616    10877.164     4780.975        1.210        0.945       21.456       68.957       10.329      341.233       15.804      857.808
05/17/2013  10:58:00       78.079     -138.322       25.921       88.401      151.811       60.720     7814.817    23046.699     3686.958        3.022        1.727      158.838       88.241        0.309      341.057       15.504      857.745
05/17/2013  10:59:00       -9.730        8.466       50.433       38.493       71.727       39.504     1481.731     5144.736     1560.567        0.545        0.409       12.898       25.419        3.884      341.483       16.228      857.754
05/17/2013  11:00:00      161.037       97.243       46.483       75.304       67.448       54.460     5670.636     4549.198     2965.868        2.537        0.659      188.120       46.699        0.062      341.106       15.588      857.763
05/17/2013  11:01:00       59.412        5.560       20.319       64.491       76.355       37.404     4159.072     5830.099     1399.041        0.768        0.569       59.671       31.804        0.284      341.146       15.657      857.758
05/17/2013  11:02:00      -17.745        1.403        1.566       44.240       50.947       24.878     1957.157     2595.613      618.938        0.274        0.259       17.800       12.196        0.469      341.417       16.115      857.761
05/17/2013  11:03:00     -171.394      -85.893       -5.496      109.482       67.967       39.730    11986.201     4619.526     1578.489        2.748        0.909      191.712       16.589        0.007      340.993       15.395      857.757
05/17/2013  11:04:00     -137.205      -16.569        5.396       96.486       69.372       44.074     9309.555     4812.429     1942.553        1.759        0.803      138.201       56.987        0.170      341.026       15.453      857.764
05/17/2013  11:05:00      -84.061      -39.909       -9.806       45.106       42.757       24.227     2034.532     1828.202      586.939        0.660        0.222       93.054       22.696        0.059      340.780       15.036      857.758
05/17/2013  11:06:00       13.776      -26.126        3.975       40.475       52.885       38.354     1638.197     2796.796     1471.015        0.340        0.295       29.536       33.141        1.259      341.331       15.971      857.754
05/17/2013  11:07:00      -31.229      -67.791       26.610      105.986       61.164       44.210    11233.128     3741.051     1954.528        1.160        0.846       74.638       43.214        0.335      341.293       15.905      857.752
05/17/2013  11:08:00        2.003      -98.757        5.431       53.525       61.045       48.692     2864.964     3726.471     2370.877        0.937        0.448       98.777       27.045        0.075      341.453       16.176      857.756
05/17/2013  11:09:00      -38.931      -46.755       31.566       38.885       55.616       37.117     1512.005     3093.183     1377.680        0.534        0.299       60.841       26.483        0.189      341.397       16.081      857.778
05/17/2013  11:10:00      -17.948      -28.544       31.862       50.759       40.701       28.797     2576.515     1656.538      829.277        0.361        0.253       33.718       19.132        0.322      341.718       16.626      857.794
05/17/2013  11:11:00      -54.419        3.071       13.811       75.081       59.585       43.710     5637.129     3550.320     1910.582        0.713        0.555       54.506       23.785        0.190      341.613       16.448      857.792
05/17/2013  11:12:00     -177.980      -88.230       -2.107       99.637       66.993       40.124     9927.499     4488.036     1609.956        2.774        0.801      198.649       37.076        0.035      341.084       15.549      857.790
05/17/2013  11:13:00     -115.950     -150.312        1.961       82.949       89.805       41.435     6880.542     8065.003     1716.880        2.635        0.833      189.837       38.420        0.041      341.174       15.701      857.795
05/17/2013  11:14:00     -101.949      -69.771        8.433       79.286       64.530       38.929     6286.207     4164.164     1515.506        1.365        0.598      123.537       41.251        0.111      341.264       15.857      857.783
05/17/2013  11:15:00     -116.371     -175.897      -11.671       62.305       79.406       39.022     3881.878     6305.262     1522.750        2.816        0.585      210.908       23.534        0.012      340.860       15.171      857.780
05/17/2013  11:16:00     -139.246      -61.649      -22.877       46.582       59.159       52.052     2169.847     3499.814     2709.363        1.604        0.419      152.283       38.055        0.062      340.936       15.300      857.783
05/17/2013  11:17:00      -49.282       35.192       17.104       46.601       23.775       22.572     2171.626      565.240      509.477        0.360        0.162       60.557       17.099        0.080      341.679       16.560      857.794
05/17/2013  11:18:00      -41.216       26.079       10.005       58.309       46.559       34.908     3399.992     2167.719     1218.549        0.463        0.339       48.774       36.022        0.545      341.911       16.953      857.797
05/17/2013  11:19:00      -90.742      -71.775        9.710       60.135       53.972       35.103     3616.178     2912.971     1232.241        1.062        0.388      115.697       23.071        0.040      341.462       16.190      857.816
05/17/2013  11:20:00      -91.453      -59.552       16.423       88.445       76.145       28.804     7822.477     5798.086      829.667        1.331        0.723      109.133       30.583        0.079      341.497       16.250      857.829
05/17/2013  11:21:00        1.693      -58.490        8.598       50.037       48.033       32.293     2503.668     2307.211     1042.869        0.467        0.293       58.514       11.004        0.035      341.699       16.593      857.820
05/17/2013  11:22:00      -64.143      -25.959       -0.159       55.611       61.293       34.773     3092.557     3756.839     1209.161        0.642        0.403       69.197       27.873        0.162      341.741       16.663      857.823
05/17/2013  11:23:00      -88.614       70.416       30.548       49.697       57.207       46.300     2469.773     3272.682     2143.700        1.081        0.394      113.185       38.053        0.113      341.643       16.498      857.834
05/17/2013  11:24:00      -17.262        7.705       24.075       61.533       40.766       38.738     3786.329     1661.906     1500.654        0.394        0.347       18.904       24.639        1.699      341.913       16.956      857.859
05/17/2013  11:25:00     -190.602      -42.536       -0.202      115.035       85.666       51.375    13233.142     7338.729     2639.430        3.067        1.161      195.291       55.477        0.081      341.835       16.822      857.849
05/17/2013  11:26:00     -176.786     -114.832      -11.136      112.384       97.097       48.669    12630.212     9427.792     2368.645        3.449        1.221      210.807       40.491        0.037      341.378       16.046      857.856
05/17/2013  11:27:00     -127.212      -29.549        7.935       71.330       63.774       30.150     5087.957     4067.156      909.029        1.359        0.503      130.599       23.513        0.032      341.653       16.514      857.859
05/17/2013  11:28:00      -67.370      -50.341        6.673       57.989       44.949       29.171     3362.719     2020.406      850.968        0.667        0.312       84.101       26.802        0.102      341.435       16.145      857.850
05/17/2013  11:29:00      -82.587     -105.367        4.576       65.476       53.363       33.766     4287.153     2847.634     1140.171        1.311        0.414      133.876       30.810        0.053      341.404       16.093      857.868
05/17/2013  11:30:00      -55.080      -19.979        0.998       94.777       49.587       33.199     8982.693     2458.841     1102.166        0.799        0.627       58.591       40.292        0.473      341.767       16.707      857.848
05/17/2013  11:31:00     -196.838     -124.280        0.647      102.494       85.523       58.383    10505.030     7314.161     3408.577        3.771        1.061      232.789       37.265        0.026      341.393       16.072      857.830
05/17/2013  11:32:00     -211.359     -194.567       11.272      161.380      125.184       78.112    26043.493    15671.033     6101.530        6.523        2.391      287.278       87.225        0.092      341.358       16.012      857.819
05/17/2013  11:33:00     -298.832      -94.920      -10.376      143.317      155.576       55.700    20539.798    24203.895     3102.503        7.312        2.392      313.545       52.109        0.028      341.378       16.046      857.785
05/17/2013  11:34:00     -194.871      -89.231       -9.861      116.027       96.186       46.569    13462.248     9251.711     2168.627        3.545        1.244      214.329       54.573        0.065      341.685       16.566      857.764
05/17/2013  11:35:00     -409.512     -152.423      -28.610      171.163      197.203       74.739    29296.744    38889.105     5585.975       13.275        3.689      436.959       87.059        0.040      341.543       16.325      857.789
05/17/2013  11:36:00     -372.281      -76.636       -2.680      193.982      110.123       73.779    37629.161    12127.097     5443.295        9.983        2.760      380.087       87.138        0.053      341.298       15.910      857.788
05/17/2013  11:37:00     -149.609      -96.600       -2.609      122.659      100.219       58.358    15045.184    10043.780     3405.711        3.010        1.425      178.085       65.254        0.134      341.634       16.481      857.781
05/17/2013  11:38:00     -385.542     -350.936      -10.366      255.242      174.588       89.390    65148.452    30480.988     7990.598       18.775        5.181      521.343      119.606        0.053      341.403       16.088      857.770
05/17/2013  11:39:00     -187.089     -161.305        7.630      152.961      125.311       74.126    23396.947    15702.791     5494.601        5.283        2.230      247.026       76.606        0.096      341.592       16.410      857.765
05/17/2013  11:40:00     -289.419     -143.636      -19.008      141.057      119.795       70.124    19897.069    14350.943     4917.359        7.195        1.958      323.101       70.229        0.047      341.820       16.796      857.749
05/17/2013  11:41:00     -374.005      -89.782       -0.074      195.553      124.093       82.293    38240.912    15399.052     6772.072       10.417        3.021      384.630       88.815        0.053      341.676       16.551      857.774
05/17/2013  11:42:00     -310.683     -137.158       -1.323      193.981      120.333       77.818    37628.665    14480.146     6055.699        8.674        2.908      339.612       96.364        0.081      341.755       16.685      857.762
05/17/2013  11:43:00     -470.098      -10.692      -31.604      169.328      148.027       94.434    28672.063    21911.845     8917.704       14.079        2.975      470.219       92.083        0.038      341.796       16.752      857.736
05/17/2013  11:44:00     -316.491      -37.459       -4.368      201.828      137.577       73.015    40734.689    18927.370     5331.151        8.328        3.250      318.700       91.436        0.082      341.957       17.029      857.721
05/17/2013  11:45:00     -441.600     -101.192      -28.025      208.212      140.237       85.545    43352.052    19666.423     7317.982       13.817        3.517      453.045      101.388        0.050      342.004       17.108      857.708
05/17/2013  11:46:00     -373.326     -138.541       -9.771      177.269      162.642       79.263    31424.460    26452.355     6282.663       11.140        3.208      398.203       77.544        0.038      342.092       17.257      857.735
05/17/2013  11:47:00     -127.021     -119.645       12.128      132.751      118.150       74.231    17622.829    13959.349     5510.302        3.384        1.855      174.498       84.200        0.233      342.504       17.958      857.731
05/17/2013  11:48:00     -391.926     -364.276        5.404      266.856      201.894      129.393    71212.058    40761.109    16742.566       20.750        6.436      535.073      155.999        0.085      341.926       16.973      857.680
05/17/2013  11:49:00     -467.368     -102.346       -6.123      276.401      227.870      107.394    76397.675    51924.707    11533.475       18.438        6.993      478.443      111.373        0.054      341.862       16.866      857.745
05/17/2013  11:50:00     -337.776     -115.191        1.517      210.909      160.001       94.432    44482.814    25600.253     8917.437       10.317        3.950      356.878      106.543        0.089      341.971       17.050      857.771
05/17/2013  11:51:00     -415.260       14.806        5.181      206.680      179.963       91.229    42716.459    32386.699     8322.716       12.804        4.171      415.524       96.841        0.054      341.845       16.839      857.756
05/17/2013  11:52:00     -701.537     -120.840      -38.616      199.393      150.487       91.744    39757.492    22646.289     8417.048       28.952        3.541      711.868       73.362        0.011      341.615       16.447      857.744
05/17/2013  11:53:00     -380.539     -101.017       -7.518      252.068      149.480      108.338    63538.427    22344.400    11737.029       12.633        4.881      393.719      132.458        0.113      341.802       16.765      857.745
05/17/2013  11:54:00     -318.505     -196.673       -3.880      215.298      167.753       92.308    46353.373    28141.016     8520.792       11.156        4.151      374.334      100.525        0.072      342.013       17.123      857.742
05/17/2013  11:55:00     -364.548      -68.282        2.666      206.650      187.283       92.974    42704.404    35074.940     8644.135       11.198        4.321      370.888      105.704        0.081      342.165       17.381      857.764
05/17/2013  11:56:00      -39.526      -13.340       36.538      133.960       84.975       71.534    17945.277     7220.831     5117.114        1.667        1.514       41.716       64.230        2.371      342.594       18.114      857.770
05/17/2013  11:57:00     -387.647     -115.879      -10.640      292.852      185.002       86.537    85762.415    34225.733     7488.712       14.562        6.374      404.596      111.993        0.077      341.955       17.025      857.743
05/17/2013  11:58:00     -218.209     -141.294       21.310      231.053      176.949      112.694    53385.661    31310.912    12699.978        8.270        4.870      259.959      123.845        0.227      342.003       17.105      857.713
05/17/2013  11:59:00     -362.612     -145.496       -8.245      227.541      187.043      108.999    51775.131    34985.221    11880.799       12.567        4.932      390.713      111.062        0.081      342.106       17.281      857.706
05/17/2013  12:00:00     -294.619        8.310        2.177      261.456      190.865      101.247    68359.343    36429.594    10250.908       10.094        5.752      294.736      112.759        0.146      342.130       17.322      857.742
05/17/2013  12:01:00     -447.382       27.582      -35.307      188.511      230.856       91.359    35536.442    53294.467     8346.376       14.965        4.859      448.231       76.842        0.029      341.733       16.647      857.757
05/17/2013  12:02:00     -439.358       19.660      -42.743      167.579      124.784       65.891    28082.752    15571.011     4341.599       12.161        2.400      439.798       80.846        0.034      341.574       16.378      857.747
05/17/2013  12:03:00     -248.778     -135.978        1.376      154.371      117.474       72.684    23830.358    13800.214     5282.986        6.164        2.146      283.514       72.238        0.065      341.855       16.855      857.793
05/17/2013  12:04:00     -318.000      -63.187      -10.385      151.237      143.561       68.034    22872.687    20609.696     4628.629        7.666        2.406      324.217       77.578        0.057      341.831       16.815      857.743
05/17/2013  12:05:00     -335.293     -191.580       30.827      235.025      223.158      125.028    55236.675    49799.668    15632.038       13.535        6.033      386.166      134.524        0.121      341.814       16.784      857.705
05/17/2013  12:06:00     -347.034     -218.010        7.979      266.954      186.751      111.085    71264.238    34876.112    12339.901       14.323        5.924      409.831      113.975        0.077      341.909       16.948      857.705
05/17/2013  12:07:00     -254.311     -105.451       21.043      235.515      142.790       94.244    55467.344    20388.903     8882.023        8.047        4.237      275.307      101.806        0.137      341.944       17.006      857.721
05/17/2013  12:08:00     -296.666     -157.302      -10.065      198.613      203.703       78.551    39447.218    41495.020     6170.240        9.997        4.356      335.790       76.564        0.052      342.085       17.245      857.708
05/17/2013  12:09:00     -235.764     -101.703       10.965      176.320      145.239       82.992    31088.757    21094.334     6887.657        6.255        2.954      256.764       95.612        0.139      342.310       17.629      857.708
05/17/2013  12:10:00     -360.727     -293.791       11.139      257.840      198.284      128.699    66481.570    39316.390    16563.307       16.944        6.118      465.228      120.161        0.067      342.042       17.172      857.682
05/17/2013  12:11:00     -241.533     -146.100       -3.863      238.946      161.581       92.082    57095.084    26108.315     8479.129        8.568        4.584      282.283      107.936        0.146      342.114       17.294      857.717
05/17/2013  12:12:00     -173.047     -151.831        3.064      213.043      153.929       89.415    45387.316    23694.066     7995.124        6.503        3.854      230.213       98.417        0.183      342.250       17.526      857.695
05/17/2013  12:13:00     -251.332      -70.292       -4.162      207.105      155.935      106.878    42892.303    24315.855    11423.003        7.337        3.932      260.976      117.176        0.202      342.143       17.345      857.701
05/17/2013  12:14:00     -277.994     -255.636        3.105      206.368      222.302      107.900    42587.807    49418.250    11642.499       12.313        5.182      377.664      108.319        0.082      342.030       17.151      857.678
05/17/2013  12:15:00     -318.378     -161.502      -20.063      201.918      189.595      103.215    40770.796    35946.346    10653.327       10.760        4.369      356.998      106.963        0.090      342.130       17.321      857.698
05/17/2013  12:16:00     -285.576     -182.931       10.901      173.048      165.523       82.385    29945.552    27398.002     6787.226        8.962        3.207      339.142       71.808        0.045      342.296       17.603      857.696
05/17/2013  12:17:00     -405.227     -362.390       -0.804      249.337      199.043      123.537    62168.725    39618.040    15261.451       20.627        5.852      543.632      127.136        0.055      341.938       16.997      857.675
05/17/2013  12:18:00     -533.102     -378.459      -10.974      191.054      200.063      120.766    36501.738    40025.280    14584.333       25.932        4.556      653.781      113.288        0.030      341.559       16.353      857.695
05/17/2013  12:19:00     -399.521     -289.484       -5.026      209.988      156.782      104.421    44095.036    24580.515    10903.744       16.150        3.979      493.374      112.743        0.052      341.778       16.723      857.704
05/17/2013  12:20:00     -252.765     -200.097        5.527      198.210      143.650       80.795    39287.155    20635.263     6527.807        8.519        3.323      322.380       97.793        0.092      342.150       17.357      857.720
05/17/2013  12:21:00     -354.849     -206.471       -9.135      206.875      148.067       82.559    42797.315    21923.959     6816.015       12.007        3.577      410.546       97.544        0.056      341.860       16.864      857.707
05/17/2013  12:22:00     -382.356     -286.087       -7.571      216.737      186.984       83.486    46974.726    34963.025     6969.942       15.849        4.445      477.538      104.542        0.048      341.716       16.619      857.704
05/17/2013  12:23:00     -426.615     -210.082        6.897      274.431      215.790      111.159    75312.185    46565.414    12356.383       18.019        6.712      475.536      134.152        0.080      341.820       16.795      857.675
05/17/2013  12:24:00     -308.903      -76.303        7.077      211.678      148.842       92.999    44807.424    22154.081     8648.896        8.844        3.781      318.188       95.364        0.090      342.147       17.351      857.718
05/17/2013  12:25:00     -473.853      -86.533      -30.085      252.054      139.973       87.020    63530.989    19592.338     7572.463       16.180        4.535      481.689      112.164        0.054      341.922       16.968      857.694
05/17/2013  12:26:00     -359.294     -139.816        9.239      198.960      152.318       88.798    39585.035    23200.779     7885.105       10.969        3.534      385.539       95.046        0.061      342.264       17.550      857.698
05/17/2013  12:27:00     -456.760     -251.858       -2.283      231.905      178.504       95.173    53779.906    31863.715     9057.888       18.337        4.735      521.595      102.671        0.039      341.975       17.058      857.686
05/17/2013  12:28:00     -489.634     -240.134      -18.400      271.845      157.473      100.302    73899.437    24797.673    10060.565       20.323        5.438      545.350      105.901        0.038      342.059       17.201      857.695
05/17/2013  12:29:00     -483.632     -315.122      -19.999      216.697      206.151      102.373    46957.627    42498.288    10480.332       21.675        4.997      577.236      101.255        0.031      341.899       16.929      857.736
05/17/2013  12:30:00     -517.214     -248.429       -6.533      256.775      196.649      112.058    65933.554    38670.948    12557.039       22.320        5.858      573.783      130.674        0.052      341.820       16.794      857.727
05/17/2013  12:31:00     -311.758     -189.071        1.622      208.187      225.120       92.762    43341.946    50678.798     8604.872       11.777        5.131      364.611      103.772        0.081      342.107       17.283      857.750
05/17/2013  12:32:00     -444.488        0.680      -14.298      210.949      135.276       84.947    44499.589    18299.691     7215.931       13.388        3.501      444.488      102.927        0.054      341.971       17.051      857.732
05/17/2013  12:33:00     -282.280     -101.051        5.259      163.220      136.763       74.911    26640.758    18704.205     5611.597        7.043        2.548      299.822       73.353        0.060      342.320       17.645      857.717
05/17/2013  12:34:00     -433.879     -220.742      -15.370      300.252      172.061      107.008    90151.517    29605.082    11450.795       18.419        6.560      486.804      140.163        0.083      341.875       16.888      857.716
05/17/2013  12:35:00     -390.932       -4.079      -18.247      171.556      129.921       75.012    29431.428    16879.557     5626.864       10.255        2.597      390.953       90.539        0.054      341.899       16.928      857.705
05/17/2013  12:36:00     -420.571      -67.148       -3.557      249.693      162.425       91.095    62346.551    26381.917     8298.314       13.920        4.851      425.898      101.134        0.056      342.094       17.261      857.672
05/17/2013  12:37:00     -474.856     -135.822      -20.316      176.140      178.266       84.697    31025.149    31778.656     7173.559       15.715        3.499      493.898       73.028        0.022      342.011       17.119      857.655
05/17/2013  12:38:00     -364.077     -161.248        0.225      253.496      187.698      108.207    64260.396    35230.622    11708.705       13.486        5.560      398.187      132.709        0.111      342.156       17.366      857.638
05/17/2013  12:39:00     -378.441     -214.450      -12.128      181.737      151.899       83.419    33028.510    23073.196     6958.785       12.620        3.153      434.979       81.589        0.035      342.155       17.363      857.689
05/17/2013  12:40:00     -243.743     -164.381        7.000      149.686      182.609       77.076    22405.769    33345.866     5940.733        7.408        3.085      293.993       73.905        0.063      342.066       17.212      857.679
05/17/2013  12:41:00     -343.380     -151.839      -11.445      197.126      130.643       68.550    38858.723    17067.711     4699.037       10.085        3.031      375.453       91.032        0.059      342.048       17.182      857.649
05/17/2013  12:42:00     -355.160     -101.160      -11.378      187.912      131.828       79.597    35311.019    17378.587     6335.683        9.775        2.951      369.286       88.336        0.057      342.265       17.551      857.633
05/17/2013  12:43:00     -358.262      -32.392      -21.336      211.622      161.810       82.280    44783.981    26182.585     6769.937       10.378        3.887      359.723       97.348        0.073      342.534       18.009      857.643
05/17/2013  12:44:00     -243.635     -147.423        8.272      172.857      158.093       78.901    29879.701    24993.268     6225.429        7.112        3.055      284.766       88.647        0.097      342.484       17.923      857.649
05/17/2013  12:45:00     -386.868      -21.101       -7.649      175.570      214.729       74.032    30824.734    46108.424     5480.801       11.628        4.121      387.443       87.105        0.051      342.447       17.860      857.651
05/17/2013  12:46:00     -468.032      -25.264      -20.132      225.070      159.478       90.061    50656.466    25433.386     8111.068       15.213        4.210      468.713      100.426        0.046      342.024       17.142      857.650
05/17/2013  12:47:00     -322.536     -112.114        7.172      200.294      190.167       91.200    40117.805    36163.508     8317.419       10.061        4.230      341.466      104.966        0.094      342.403       17.785      857.629
05/17/2013  12:48:00     -234.176     -180.238        5.868      173.368      173.982       99.011    30056.524    30269.565     9803.130        7.873        3.506      295.506      103.052        0.122      342.395       17.773      857.652
05/17/2013  12:49:00     -223.267     -107.318       12.333      187.952      140.781       73.433    35325.997    19819.274     5392.427        6.102        3.027      247.720       94.919        0.147      342.437       17.843      857.649
05/17/2013  12:50:00     -330.639      -73.668      -13.833      164.197      105.845       65.399    26960.562    11203.162     4277.047        7.868        2.122      338.746       69.627        0.042      342.399       17.778      857.648
05/17/2013  12:51:00     -421.845     -147.114      -24.777      176.774      124.476       68.966    31249.106    15494.264     4756.260       12.585        2.575      446.762       70.647        0.025      341.829       16.811      857.611
05/17/2013  12:52:00     -286.934      -44.831       -2.550      153.839      108.349       69.133    23666.511    11739.463     4779.433        6.226        2.009      290.415       75.583        0.068      342.377       17.743      857.604
05/17/2013  12:53:00     -131.509      -70.197       13.803      162.770       79.017       73.581    26494.022     6243.752     5414.182        3.028        1.908      149.071       85.518        0.329      342.548       18.034      857.605
05/17/2013  12:54:00     -171.126     -107.477       25.210      166.980      135.554       66.359    27882.278    18375.021     4403.474        4.606        2.533      202.078       77.690        0.148      342.426       17.825      857.585
05/17/2013  12:55:00     -148.644     -204.323        6.064      134.305      179.729       75.558    18037.772    32302.379     5708.994        5.995        2.802      252.671       94.574        0.140      342.434       17.839      857.568
05/17/2013  12:56:00     -389.995     -209.143       -0.397      166.083      176.351       81.215    27583.710    31099.504     6595.942       13.055        3.264      442.535       88.608        0.040      342.286       17.586      857.584
05/17/2013  12:57:00     -609.685     -230.152      -45.308      257.144      215.619      104.384    66123.108    46491.362    10895.979       27.510        6.176      651.679      119.114        0.033      342.025       17.144      857.576
05/17/2013  12:58:00     -439.240     -227.967       -6.389      204.883      176.543       92.310    41976.933    31167.509     8521.181       16.329        4.083      494.875       98.844        0.040      342.258       17.538      857.579
05/17/2013  12:59:00     -247.077      -85.428       22.314      163.375       97.074       63.162    26691.250     9423.346     3989.462        5.447        2.005      261.429       58.298        0.050      342.459       17.881      857.627
05/17/2013  13:00:00     -344.274     -194.581       -3.165      234.946      172.617       88.645    55199.414    29796.667     7857.938       12.461        4.643      395.457       91.247        0.053      342.402       17.784      857.617
05/17/2013  13:01:00     -543.690     -282.485      -22.015      243.489      180.556       99.236    59287.042    32600.356     9847.804       23.879        5.087      612.696      110.749        0.033      342.009       17.114      857.607
05/17/2013  13:02:00     -341.436     -226.007       18.885      274.073      201.207       80.530    75116.049    40484.184     6485.089       14.503        6.104      409.460      104.897        0.066      342.060       17.204      857.588
05/17/2013  13:03:00     -360.694     -370.122       11.914      240.680      241.638      111.356    57926.915    58388.904    12400.093       19.795        6.436      516.808      100.844        0.038      341.985       17.076      857.592
05/17/2013  13:04:00     -185.201     -201.167       -2.859      185.285      141.137       83.207    34330.645    19919.756     6923.357        6.796        3.059      273.437       85.281        0.097      342.418       17.811      857.626
05/17/2013  13:05:00     -237.620     -197.773       11.639      220.107      158.778       83.346    48447.191    25210.318     6946.596        8.814        4.030      309.156      101.469        0.108      342.421       17.816      857.601
05/17/2013  13:06:00     -327.635     -164.674       13.216      187.363      191.864       98.279    35104.914    36811.622     9658.760       10.809        4.079      366.691       95.520        0.068      342.216       17.468      857.572
05/17/2013  13:07:00     -235.445     -173.053       -4.391      189.238      150.986       57.453    35811.165    22796.749     3300.886        7.364        3.095      292.201       61.470        0.044      342.224       17.480      857.573
05/17/2013  13:08:00     -398.057     -266.488       -2.087      187.452      141.095       82.122    35138.219    19907.882     6744.036       14.562        3.090      479.025       83.998        0.031      342.266       17.551      857.558
05/17/2013  13:09:00     -499.941     -356.771      -16.931      244.153      187.344      109.150    59610.680    35097.947    11913.735       24.205        5.331      614.187      110.250        0.032      342.091       17.255      857.574
05/17/2013  13:10:00     -442.176     -315.386        3.213      232.010      179.828      111.975    53828.415    32338.193    12538.446       19.684        4.935      543.128      122.485        0.051      342.047       17.181      857.589
05/17/2013  13:11:00     -407.248     -232.097       -1.322      219.076      158.828       96.496    47994.112    25226.232     9311.423       15.111        4.127      468.743       95.603        0.042      342.165       17.381      857.572
05/17/2013  13:12:00     -387.042     -283.385       -3.394      214.362      203.309      107.562    45951.222    41334.510    11569.536       16.447        4.943      479.697      129.880        0.073      342.228       17.488      857.592
05/17/2013  13:13:00     -361.638     -265.294        1.293      204.480      185.796      111.405    41812.264    34520.090    12410.985       14.494        4.437      448.512      127.191        0.080      342.131       17.322      857.614
05/17/2013  13:14:00     -259.370     -212.435       10.114      190.615      140.094       82.543    36333.975    19626.269     6813.406        8.763        3.139      335.263       83.313        0.062      342.141       17.340      857.629
05/17/2013  13:15:00     -319.399     -235.992       -0.347      192.776      170.628       91.523    37162.643    29113.844     8376.442       11.617        3.733      397.125       94.766        0.057      342.403       17.786      857.594
05/17/2013  13:16:00     -431.990      -95.953      -38.934      202.613      149.438       91.523    41052.021    22331.716     8376.541       13.454        3.588      442.518      105.798        0.057      342.337       17.672      857.647
05/17/2013  13:17:00     -317.503     -244.918        8.415      197.596      165.106       82.627    39044.350    27260.058     6827.287       11.699        3.657      400.990       90.381        0.051      342.153       17.361      857.666
05/17/2013  13:18:00     -351.444     -187.281        0.405      201.394      167.085       96.851    40559.378    27917.450     9380.025       11.821        3.893      398.230      111.396        0.078      342.189       17.422      857.638
05/17/2013  13:19:00     -531.969     -163.694      -31.221      225.915      167.305       81.795    51037.652    27990.799     6690.451       19.823        4.286      556.585       87.967        0.025      341.897       16.926      857.659
05/17/2013  13:20:00     -452.495     -174.289      -23.286      172.665      140.424       73.325    29813.051    19718.957     5376.561       14.528        2.745      484.900       45.700        0.009      341.907       16.944      857.670
05/17/2013  13:21:00     -207.825     -255.384       -7.254      111.313       95.449       60.411    12390.654     9110.453     3649.474        6.680        1.258      329.260       55.447        0.028      341.994       17.089      857.683
05/17/2013  13:22:00     -217.667      -23.117      -15.800       89.747       95.372       54.143     8054.463     9095.874     2931.447        3.412        1.004      218.891       40.356        0.034      342.162       17.378      857.604
05/17/2013  13:23:00      -71.013     -112.474        1.273       75.680      121.378       41.216     5727.494    14732.509     1698.723        1.992        1.108      133.016       40.412        0.092      342.454       17.874      857.599
05/17/2013  13:24:00     -170.073     -142.086        7.078      125.459      101.477       60.488    15739.858    10297.481     3658.754        3.942        1.485      221.616       69.240        0.098      342.477       17.913      857.578
05/17/2013  13:25:00     -166.006      -35.604       22.289      137.052       99.800       57.869    18783.385     9960.091     3348.790        3.070        1.605      169.781       61.678        0.132      342.886       18.608      857.597
05/17/2013  13:26:00     -232.275      -56.967      -12.999      167.150      110.460       62.370    27939.014    12201.319     3889.977        5.069        2.202      239.159       84.263        0.124      342.506       17.962      857.587
05/17/2013  13:27:00     -131.915     -175.391       12.512      114.685      107.064       67.559    13152.546    11462.735     4564.152        3.874        1.459      219.462       59.083        0.072      342.714       18.315      857.588
05/17/2013  13:28:00      -30.040     -178.915       -9.486      110.332      138.298       66.353    12173.230    19126.370     4402.736        3.435        1.785      181.419       52.795        0.085      342.635       18.182      857.597
05/17/2013  13:29:00      -18.203     -174.569       -4.411      149.672      154.832       67.712    22401.684    23972.819     4584.942        4.088        2.548      175.516       55.443        0.100      342.745       18.367      857.599
05/17/2013  13:30:00     -191.168     -113.388       -7.769      154.836      143.236       74.430    23974.290    20516.591     5539.751        4.974        2.502      222.266       78.384        0.124      342.703       18.295      857.556
05/17/2013  13:31:00     -226.437     -140.867       19.075      175.796      139.807       75.770    30904.188    19545.988     5741.160        6.383        2.810      266.678       76.892        0.083      342.924       18.672      857.620
05/17/2013  13:32:00     -337.372     -175.225       -9.749      226.570      161.534       94.873    51334.000    26093.165     9000.843       11.551        4.321      380.163      108.773        0.082      342.481       17.919      857.632
05/17/2013  13:33:00     -242.543      -92.342        6.043      182.462      159.848       78.843    33292.408    25551.239     6216.244        6.621        3.253      259.527       91.616        0.125      342.506       17.962      857.626
05/17/2013  13:34:00     -218.601     -364.702      -34.841      169.988      183.874       82.295    28896.032    33809.786     6772.466       12.573        3.474      425.199       68.544        0.026      342.289       17.591      857.607
05/17/2013  13:35:00     -280.200     -118.294      -17.053      170.584      128.484       82.098    29098.776    16508.200     6740.052        7.256        2.617      304.147       83.849        0.076      342.683       18.262      857.604
05/17/2013  13:36:00     -303.760     -136.472      -19.921      188.895      105.298       73.643    35681.178    11087.751     5423.361        8.173        2.610      333.009       76.050        0.052      342.596       18.114      857.604
05/17/2013  13:37:00     -416.934     -202.951       -7.154      275.588      190.441       99.861    75948.545    36267.623     9972.180       16.861        6.109      463.706      119.741        0.067      342.536       18.012      857.631
05/17/2013  13:38:00     -238.030      -84.038       -1.450      182.106      137.585       71.960    33162.494    18929.588     5178.272        6.049        2.864      252.430       85.761        0.115      342.753       18.380      857.635
05/17/2013  13:39:00     -272.176     -230.172      -10.964      228.862      153.903       89.120    52377.981    23686.206     7942.389       10.558        4.200      356.454      107.610        0.091      342.375       17.738      857.657
05/17/2013  13:40:00     -282.205     -269.915      -18.352      228.890      141.459       75.765    52390.597    20010.683     5740.391       11.547        3.907      390.505       69.062        0.031      342.287       17.588      857.646
05/17/2013  13:41:00     -390.745     -155.881       18.367      336.720      162.645      108.566   113380.195    26453.268    11786.671       16.444        7.581      420.691      123.116        0.086      342.722       18.328      857.617
05/17/2013  13:42:00     -394.983     -284.132       -8.516      217.284      171.473      103.562    47212.335    29402.966    10725.110       16.206        4.367      486.562      121.181        0.062      342.245       17.518      857.657
05/17/2013  13:43:00     -336.100     -219.531      -22.827      122.485       92.313       59.055    15002.613     8521.691     3487.438        9.434        1.351      401.444       59.247        0.022      341.863       16.869      857.617
05/17/2013  13:44:00     -343.655     -187.574      -20.981      153.021      102.497       72.185    23415.511    10505.727     5210.635        9.642        1.957      391.514       79.744        0.041      342.119       17.302      857.624
05/17/2013  13:45:00     -449.571     -261.253        1.687      335.310      214.881      122.942   112432.563    46173.870    15114.637       22.202        8.686      519.969      153.658        0.087      342.272       17.562      857.588
05/17/2013  13:46:00     -483.077     -159.068       -4.053      284.624      187.079      106.247    81010.730    34998.683    11288.491       19.297        6.365      508.592      121.122        0.057      342.404       17.787      857.590
05/17/2013  13:47:00     -333.643     -120.687       -8.956      165.817      149.135       80.079    27495.120    22241.253     6412.652        9.105        2.807      354.800       83.614        0.056      342.444       17.856      857.635
05/17/2013  13:48:00     -172.048     -259.693        4.122      125.961      159.504       66.260    15866.068    25441.544     4390.336        7.137        2.285      311.514       59.391        0.036      342.378       17.742      857.644
05/17/2013  13:49:00     -183.155     -113.720        2.937      123.929      112.671       67.344    15358.332    12694.747     4535.152        3.953        1.629      215.587       59.374        0.076      342.560       18.053      857.588
05/17/2013  13:50:00     -251.177     -213.261        5.569      188.233      163.941       86.931    35431.500    26876.769     7556.982        8.922        3.493      329.500       87.469        0.070      342.770       18.409      857.569
05/17/2013  13:51:00     -143.514     -289.111       -2.356      167.170      184.465       81.182    27945.802    34027.497     6590.527        8.636        3.428      322.771       96.609        0.090      342.399       17.779      857.595
05/17/2013  13:52:00     -184.341     -245.636      -13.158      184.734      123.613       79.788    34126.718    15280.183     6366.135        7.512        2.789      307.114       60.662        0.039      342.751       18.377      857.555
05/17/2013  13:53:00     -130.098     -268.445       -4.091      115.825      138.698       75.254    13415.433    19237.072     5663.191        6.365        1.916      298.309       66.958        0.050      342.427       17.826      857.593
05/17/2013  13:54:00     -201.679     -235.834       -9.112      151.897      172.255       73.177    23072.562    29671.717     5354.865        7.723        2.905      310.310       71.708        0.053      342.649       18.204      857.530
05/17/2013  13:55:00     -351.246     -246.741      -12.559      202.026      147.696       76.735    40814.484    21814.148     5888.336       12.645        3.426      429.249       85.175        0.039      342.657       18.216      857.535
05/17/2013  13:56:00     -173.269     -212.098       14.744      173.577      190.461       75.113    30128.806    36275.467     5641.943        7.362        3.602      273.876       65.677        0.058      342.659       18.221      857.529
05/17/2013  13:57:00     -263.737     -237.253       15.420      212.863      140.945       98.040    45310.733    19865.391     9611.845       10.042        3.739      354.748      108.508        0.094      342.789       18.442      857.516
05/17/2013  13:58:00     -332.357     -244.930      -11.648      130.169      129.615       71.754    16944.017    16799.934     5148.625       10.473        1.945      412.858       71.955        0.030      342.657       18.217      857.580
05/17/2013  13:59:00     -310.003     -195.980       -2.180      172.608      169.572       81.056    29793.679    28754.786     6569.994        9.980        3.256      366.755       91.380        0.062      342.488       17.930      857.563
05/17/2013  14:00:00     -492.265     -269.368      -14.946      315.019      285.073       98.918    99237.149    81266.535     9784.840       25.266        9.514      561.145      151.700        0.073      342.383       17.751      857.557
05/17/2013  14:01:00     -414.325     -237.604      -28.722      308.436      206.606       94.159    95132.598    42686.226     8865.869       18.779        7.334      477.620       95.530        0.040      342.720       18.324      857.546
05/17/2013  14:02:00     -256.979     -306.750        6.775      220.863      216.829      108.231    48780.527    47014.751    11713.876       13.382        5.375      400.167      125.092        0.098      342.566       18.063      857.574
05/17/2013  14:03:00     -440.014     -322.123       -1.522      212.414      184.675       88.446    45119.708    34104.712     7822.677       19.219        4.352      545.322       89.541        0.027      342.565       18.062      857.595
05/17/2013  14:04:00     -315.668     -277.681        8.972      187.802      138.280       91.009    35269.534    19121.336     8282.614       11.974        3.134      420.420       81.201        0.037      342.411       17.798      857.610
05/17/2013  14:05:00     -324.431     -224.418      -26.955      166.921      136.515       80.652    27862.652    18636.235     6504.677       10.466        2.650      394.486       79.204        0.040      342.550       18.035      857.589
05/17/2013  14:06:00     -147.663     -166.892       20.015      139.275      170.855       83.241    19397.615    29191.334     6929.050        5.278        2.776      222.839       69.999        0.099      342.613       18.142      857.592
05/17/2013  14:07:00     -232.990     -152.693       -8.016      198.820      160.983       66.461    39529.548    25915.565     4417.082        7.375        3.493      278.567       72.037        0.067      342.895       18.623      857.552
05/17/2013  14:08:00     -431.466     -200.451       -8.377      233.710      190.783      109.335    54620.520    36398.312    11954.097       16.467        5.149      475.756      122.173        0.066      342.527       17.997      857.605
05/17/2013  14:09:00     -395.672     -179.764       -7.213      270.194      176.651      106.838    73004.862    31205.735    11414.294       15.225        5.781      434.594      136.762        0.099      342.609       18.136      857.597
05/17/2013  14:10:00     -355.867     -235.364       15.812      236.520      246.899       97.378    55941.578    60959.214     9482.429       15.431        6.319      426.659      114.420        0.072      342.566       18.062      857.668
05/17/2013  14:11:00     -324.466     -256.491       -6.034      204.219      165.228       89.270    41705.275    27300.334     7969.166       12.402        3.849      413.602       95.920        0.054      342.490       17.933      857.664
05/17/2013  14:12:00     -473.426     -213.087       -8.064      240.840      197.945      101.466    58003.729    39182.174    10295.427       18.852        5.374      519.170      103.758        0.040      342.463       17.887      857.669
05/17/2013  14:13:00     -474.621     -349.848      -18.660      221.116      157.209       88.290    48892.203    24714.617     7795.107       21.469        4.070      589.626       99.210        0.028      342.393       17.769      857.650
05/17/2013  14:14:00     -421.359     -305.198      -15.212      265.838      181.686      114.166    70669.854    33009.935    13033.834       19.379        5.836      520.278      138.196        0.071      342.344       17.685      857.663
05/17/2013  14:15:00     -471.650     -299.246       -0.533      206.847      161.154      104.642    42785.557    25970.523    10950.023       19.584        3.985      558.571      107.860        0.037      342.190       17.424      857.661
05/17/2013  14:16:00     -398.186     -292.984       -7.057      222.809      170.273       97.023    49643.717    28992.788     9413.448       16.623        4.402      494.360      101.132        0.042      342.290       17.593      857.671
05/17/2013  14:17:00     -234.736     -218.509      -20.409      134.111      122.318       63.309    17985.642    14961.651     4008.078        7.010        1.848      320.698       59.222        0.034      342.133       17.327      857.654
05/17/2013  14:18:00     -101.170     -104.855       -8.671      108.050       70.335       39.635    11674.793     4947.011     1570.918        1.975        0.910      145.705       32.754        0.051      342.283       17.583      857.572
05/17/2013  14:19:00      -66.162     -244.625       42.779      142.128      258.701       92.101    20200.286    66926.314     8482.542        8.081        4.780      253.414       76.441        0.091      342.504       17.958      857.627
05/17/2013  14:20:00     -222.821     -323.172       -5.862      210.304      189.869       91.788    44227.964    36050.134     8424.955       12.140        4.435      392.542       96.657        0.061      342.480       17.915      857.559
05/17/2013  14:21:00     -308.931     -257.653       16.168      197.151      178.606       92.541    38868.442    31900.049     8563.845       12.069        3.967      402.273       86.800        0.047      342.699       18.289      857.597
05/17/2013  14:22:00     -381.046     -253.996       10.565      191.700      142.393       84.676    36748.760    20275.743     7170.097       13.700        3.210      457.941       81.692        0.032      342.441       17.849      857.610
05/17/2013  14:23:00     -310.400     -134.939        9.423      218.274      147.455       92.418    47643.399    21742.936     8541.128        9.627        3.896      338.462       90.880        0.072      342.498       17.948      857.592
05/17/2013  14:24:00     -323.192      -67.057       -2.648      200.775      138.495       80.380    40310.696    19180.891     6460.945        8.744        3.298      330.075       89.308        0.073      342.544       18.025      857.539
05/17/2013  14:25:00     -273.594     -302.288        0.739      172.400      199.308       78.890    29721.641    39723.745     6223.684       12.094        3.783      407.716       91.753        0.051      342.336       17.671      857.534
05/17/2013  14:26:00     -293.445     -228.911        6.592      225.387      217.470       95.735    50799.330    47293.299     9165.255       12.288        5.363      372.169      126.423        0.115      342.745       18.368      857.524
05/17/2013  14:27:00     -595.042     -459.607       -5.567      253.950      239.616      123.451    64490.786    57415.608    15240.068       35.122        6.857      751.873      135.807        0.033      342.252       17.528      857.588
05/17/2013  14:28:00     -471.789     -265.641      -10.769      240.564      189.700      106.559    57871.033    35985.949    11354.789       19.922        5.261      541.433      129.185        0.057      342.144       17.346      857.606
05/17/2013  14:29:00     -451.839     -168.875      -21.187      239.662      145.474       65.942    57437.854    21162.690     4348.347       15.802        4.147      482.367       81.413        0.028      342.052       17.189      857.631
05/17/2013  14:30:00     -206.188       -0.858       -5.364       75.501       70.222       34.008     5700.344     4931.149     1156.522        2.716        0.589      206.189       21.130        0.011      341.966       17.044      857.570
05/17/2013  14:31:00     -203.659     -148.991        3.218       94.492       88.673       49.399     8928.696     7862.959     2440.279        4.145        0.962      252.340       52.932        0.044      342.186       17.416      857.553
05/17/2013  14:32:00     -222.294     -221.988        0.547      191.527      205.536       79.052    36682.500    42244.884     6249.177        9.192        4.259      314.155      104.135        0.110      342.491       17.936      857.543
05/17/2013  14:33:00     -260.273     -253.197       -5.321      160.584      188.173       76.048    25787.090    35408.899     5783.234        9.942        3.349      363.113       60.290        0.028      342.590       18.103      857.463
05/17/2013  14:34:00     -318.020     -272.268       -5.013      242.097      149.941      106.363    58610.736    22482.276    11312.988       13.383        4.620      418.649      110.165        0.069      342.700       18.292      857.488
05/17/2013  14:35:00     -294.325     -334.644       -2.590      213.464      192.042       84.098    45566.720    36879.953     7072.505       14.405        4.476      445.661       87.957        0.039      342.413       17.804      857.515
05/17/2013  14:36:00     -192.621     -286.913      -25.580      152.328      165.045       82.668    23203.944    27239.876     6833.947        8.867        2.864      345.575       69.461        0.040      342.138       17.335      857.535
05/17/2013  14:37:00     -263.121     -218.034        6.667      214.992      148.681       79.638    46221.657    22106.119     6342.265        9.573        3.734      341.718       85.893        0.063      342.521       17.986      857.507
05/17/2013  14:38:00     -315.068     -238.257      -36.311      254.109      148.779       66.562    64571.300    22135.102     4430.516       12.423        4.557      395.012       81.131        0.042      342.360       17.711      857.524
05/17/2013  14:39:00     -191.211     -229.303      -13.354      129.031      142.808       81.843    16649.047    20394.097     6698.346        6.652        2.187      298.566       30.335        0.010      342.556       18.045      857.478
05/17/2013  14:40:00     -102.343     -200.482      -15.772      175.192      150.936       65.213    30692.400    22781.810     4252.720        5.431        2.886      225.094       47.825        0.045      342.750       18.374      857.456
05/17/2013  14:41:00     -277.934     -136.974        4.807      201.816      123.309       76.856    40729.763    15205.188     5906.788        7.892        3.092      309.853       89.168        0.083      342.871       18.582      857.465
05/17/2013  14:42:00     -476.309     -380.437       -2.744      267.175      191.021      115.269    71382.624    36488.850    13286.892       24.636        6.058      609.593      138.816        0.052      342.138       17.335      857.501
05/17/2013  14:43:00     -304.583     -280.916       -8.477      199.197      129.562       92.063    39679.509    16786.247     8475.573       11.834        3.247      414.349      107.318        0.067      342.239       17.507      857.487
05/17/2013  14:44:00     -403.744     -159.441       -7.742      249.588      216.456      107.420    62294.147    46853.019    11539.114       15.456        6.034      434.086      136.239        0.099      342.471       17.902      857.472
05/17/2013  14:45:00     -467.553     -101.789      -16.321      241.170      195.399       89.264    58163.161    38180.595     7968.047       16.675        5.216      478.505       99.816        0.044      342.621       18.156      857.480
05/17/2013  14:46:00     -464.327     -224.228      -29.753      226.105      170.550      108.161    51123.323    29087.281    11698.733       17.932        4.595      515.634       97.215        0.036      342.384       17.753      857.451
05/17/2013  14:47:00     -379.329     -131.843      -15.047      200.462      138.634       86.330    40185.149    19219.283     7452.836       11.416        3.343      401.588       83.495        0.043      342.570       18.070      857.485
05/17/2013  14:48:00     -493.653     -289.852      -37.478      186.981      164.072       76.053    34961.734    26919.752     5784.045       19.837        3.383      572.457       63.414        0.012      342.525       17.992      857.543
05/17/2013  14:49:00     -379.732     -140.483       -3.251      190.126      170.290       88.301    36147.946    28998.539     7797.079       11.843        3.647      404.885      104.471        0.067      342.659       18.221      857.544
05/17/2013  14:50:00     -149.169      -34.457       -5.841      110.564       74.785       48.302    12224.481     5592.835     2333.094        2.181        1.008      153.097       32.476        0.045      342.841       18.532      857.580
05/17/2013  14:51:00      -73.081      -47.214      -17.895       66.652       63.177       36.499     4442.483     3991.270     1332.190        0.883        0.488       87.006       23.638        0.074      342.564       18.062      857.539
05/17/2013  14:52:00     -140.946       -1.569       12.831      117.180       90.966       50.707    13731.066     8274.814     2571.196        2.230        1.229      140.954       59.295        0.177      342.972       18.753      857.557
05/17/2013  14:53:00     -205.075      -73.883      -22.121      117.663       97.039       45.953    13844.586     9416.548     2111.682        3.668        1.269      217.979       55.563        0.065      342.667       18.236      857.567
05/17/2013  14:54:00     -243.301     -203.147       -1.779      160.280      170.535       75.078    25689.582    29082.081     5636.719        8.043        3.020      316.961       71.692        0.051      342.588       18.100      857.538
05/17/2013  14:55:00     -178.433     -311.677        5.777      151.573      173.401       88.088    22974.315    30067.850     7759.545        9.490        3.040      359.139       58.155        0.026      342.663       18.226      857.507
05/17/2013  14:56:00     -163.444     -177.825       10.361      152.805      138.175       66.309    23349.417    19092.459     4396.881        5.263        2.342      241.528       57.108        0.056      342.807       18.474      857.527
05/17/2013  14:57:00     -195.856     -203.720       -1.227      167.072      138.745       74.412    27913.027    19250.170     5537.177        6.627        2.635      282.598       79.337        0.079      342.849       18.543      857.552
05/17/2013  14:58:00     -177.096     -381.109       -8.531      138.887      160.460       75.590    19289.530    25747.302     5713.865       11.370        2.538      420.246       59.836        0.020      342.498       17.948      857.589
05/17/2013  14:59:00     -132.136     -328.559        7.506      127.323      158.993       60.069    16211.066    25278.876     3608.228        8.527        2.255      354.134       65.150        0.034      342.389       17.762      857.576
05/17/2013  15:00:00     -139.013     -157.855       -0.024      159.621      147.959       71.620    25478.813    21891.848     5129.374        4.836        2.625      210.339       74.178        0.124      342.716       18.316      857.510
05/17/2013  15:01:00     -327.724     -196.952        4.981      172.237      159.836       72.958    29665.531    25547.535     5322.912       10.336        3.027      382.352       70.935        0.034      342.790       18.444      857.525
05/17/2013  15:02:00     -250.994     -341.743      -20.916      155.505      134.651       77.476    24181.826    18130.999     6002.575       11.426        2.416      424.012       73.855        0.030      342.648       18.202      857.507
05/17/2013  15:03:00     -218.942     -175.239       13.168      152.169      158.556       79.858    23155.396    25139.928     6377.347        6.673        2.734      280.436       70.186        0.063      342.960       18.730      857.485
05/17/2013  15:04:00     -224.870     -357.536      -14.941      139.377      194.786       78.500    19425.922    37941.517     6162.254       12.106        3.176      422.373       73.687        0.030      342.814       18.483      857.464
05/17/2013  15:05:00     -258.246     -362.351        1.997      205.141      231.151       95.247    42082.945    53430.883     9072.067       15.127        5.229      444.959       99.895        0.050      342.687       18.268      857.516
05/17/2013  15:06:00     -226.822     -227.060       11.285      192.778      143.008       70.576    37163.402    20451.283     4980.920        8.285        3.130      320.943       74.548        0.054      342.724       18.331      857.510
05/17/2013  15:07:00     -373.113     -265.356        1.423      230.674      188.978      102.175    53210.274    35712.593    10439.791       15.448        4.968      457.851      117.772        0.066      342.595       18.111      857.491
05/17/2013  15:08:00     -592.088     -418.478      -15.642      236.076      197.883      108.398    55731.961    39157.642    11750.071       31.627        5.332      725.046      117.135        0.026      342.297       17.605      857.474
05/17/2013  15:09:00     -424.317     -170.864        1.973      234.881      212.280      106.078    55169.083    45062.867    11252.515       16.034        5.574      457.427      101.033        0.049      342.739       18.358      857.440
05/17/2013  15:10:00     -275.238     -302.395        4.054      217.090      191.971       95.048    47128.273    36853.021     9034.075       13.010        4.651      408.899       99.376        0.059      342.778       18.422      857.470
05/17/2013  15:11:00     -312.114     -304.638       -5.494      233.167      175.675       95.825    54367.065    30861.566     9182.408       14.231        4.721      436.142       83.472        0.037      342.791       18.444      857.476
05/17/2013  15:12:00     -381.214     -206.705       -0.117      210.729      201.376      102.574    44406.867    40552.317    10521.372       14.175        4.774      433.648      110.034        0.064      342.747       18.370      857.508
05/17/2013  15:13:00     -399.549     -322.226      -16.353      258.119      212.897       97.508    66625.600    45325.145     9507.860       19.257        6.073      513.293      106.556        0.043      342.466       17.892      857.499
05/17/2013  15:14:00     -293.497     -234.002        8.342      203.503      174.336      104.725    41413.585    30392.924    10967.250       11.185        4.139      375.363      103.065        0.075      342.710       18.308      857.490
05/17/2013  15:15:00     -573.825     -208.320      -26.774      205.536      140.242       85.648    42244.921    19667.755     7335.565       22.130        3.462      610.468       72.999        0.014      342.766       18.402      857.512
05/17/2013  15:16:00     -303.988     -217.109        8.564      214.824      170.857      100.732    46149.203    29192.016    10146.919       11.254        4.274      373.557      109.976        0.087      342.964       18.739      857.558
05/17/2013  15:17:00     -399.411     -195.523      -20.397      228.653      174.936       82.654    52282.345    30602.578     6831.681       14.393        4.486      444.700      103.771        0.054      342.255       17.533      857.581
05/17/2013  15:18:00     -213.612      -36.024       13.573      184.226      141.808       65.764    33939.173    20109.446     4324.899        5.273        2.919      216.628       66.404        0.094      342.506       17.961      857.472
05/17/2013  15:19:00     -188.763     -270.173      -13.200      156.840      165.589       68.440    24598.735    27419.664     4684.021        8.274        2.835      329.583       67.167        0.042      342.845       18.538      857.489
05/17/2013  15:20:00     -383.848     -316.001      -21.956      241.957      168.601       83.994    58543.347    28426.333     7054.910       17.083        4.701      497.188       69.687        0.020      342.497       17.946      857.500
05/17/2013  15:21:00     -308.674     -254.618       15.614      186.574      146.124       99.974    34810.037    21352.141     9994.776       11.324        3.308      400.137       93.266        0.054      342.627       18.166      857.451
05/17/2013  15:22:00     -196.356     -152.204       18.986      145.635      165.597       82.506    21209.644    27422.465     6807.302        5.875        2.772      248.438       89.009        0.128      342.822       18.497      857.477
05/17/2013  15:23:00     -184.446     -104.605      -10.662      160.451      118.936       53.446    25744.657    14145.785     2856.453        4.390        2.137      212.043       54.887        0.067      343.031       18.854      857.492
05/17/2013  15:24:00     -205.068     -302.807      -17.327      167.636      163.975       84.189    28101.799    26887.823     7087.815        9.805        3.104      365.712       87.577        0.057      342.641       18.190      857.515
05/17/2013  15:25:00     -150.457     -275.168        3.210      130.476      149.781       79.136    17024.000    22434.398     6262.566        7.203        2.286      313.615       69.425        0.049      342.502       17.954      857.524
05/17/2013  15:26:00     -223.754     -250.339        8.415      170.494      183.212       73.767    29068.227    33566.619     5441.615        9.043        3.404      335.761       75.479        0.051      342.694       18.279      857.526
05/17/2013  15:27:00     -391.590     -171.925        8.466      212.496      196.011       96.473    45154.585    38420.481     9307.008       13.791        4.644      427.669       89.958        0.044      342.746       18.369      857.509
05/17/2013  15:28:00     -364.015     -134.666       21.231      203.006      180.744      100.168    41211.605    32668.551    10033.615       11.749        4.196      388.126      113.177        0.085      342.753       18.381      857.481
05/17/2013  15:29:00     -456.117     -308.514       -3.536      242.076      203.033       98.684    58600.582    41222.574     9738.550       20.638        5.478      550.658      108.683        0.039      342.259       17.540      857.511
05/17/2013  15:30:00     -515.989     -267.344       -5.548      233.137      192.420       91.819    54352.712    37025.475     8430.757       21.876        4.990      581.135      110.278        0.036      342.331       17.661      857.510
05/17/2013  15:31:00     -426.878     -140.248      -11.346      232.402      185.440       88.931    54010.883    34388.150     7908.669       14.915        4.815      449.326       99.398        0.049      342.418       17.811      857.475
05/17/2013  15:32:00     -324.854      -60.976        6.635      210.124      144.486       85.970    44151.944    20876.130     7390.862        9.084        3.621      330.527       94.686        0.082      342.682       18.259      857.446
05/17/2013  15:33:00     -311.738     -140.151       -4.997      117.934      155.532       71.878    13908.478    24190.245     5166.495        8.005        2.163      341.793       53.955        0.025      342.840       18.529      857.420
05/17/2013  15:34:00     -416.099     -340.261      -14.197      223.920      173.006      112.187    50140.347    29930.975    12585.902       19.087        4.633      537.509      124.460        0.054      342.913       18.652      857.409
05/17/2013  15:35:00     -393.307     -306.908       17.168      280.698      207.787      115.669    78791.426    43175.263    13379.290       19.223        6.767      498.881      136.010        0.074      342.810       18.478      857.489
05/17/2013  15:36:00     -360.711     -338.484        0.350      276.028      205.760      145.013    76191.645    42337.209    21028.899       19.209        6.978      494.655      161.028        0.106      342.591       18.104      857.519
05/17/2013  15:37:00     -182.621     -124.169        4.472      155.120      158.100       84.442    24062.141    24995.524     7130.384        5.248        2.809      220.836       84.816        0.148      342.917       18.661      857.552
05/17/2013  15:38:00     -322.883     -158.189      -12.367      148.002      121.971       65.675    21904.635    14877.010     4313.204        8.525        2.055      359.552       83.924        0.054      342.319       17.642      857.516
05/17/2013  15:39:00     -377.018     -246.869      -13.689      151.355      126.186       77.160    22908.392    15922.877     5953.649       12.402        2.239      450.651       63.989        0.020      342.503       17.955      857.488
05/17/2013  15:40:00     -368.871     -294.931      -20.542      203.516      147.613       96.196    41418.692    21789.641     9253.576       14.795        3.623      472.282       98.122        0.043      342.376       17.738      857.494
05/17/2013  15:41:00     -306.822     -296.831        0.867      198.652      199.050       82.942    39462.544    39620.735     6879.408       13.409        4.298      426.905       91.194        0.046      342.548       18.034      857.478
05/17/2013  15:42:00     -210.737     -405.272       -3.357      215.673      211.289      104.507    46514.810    44643.081    10921.701       15.535        5.104      456.788      105.299        0.053      342.581       18.088      857.474
05/17/2013  15:43:00     -340.080     -175.480      -26.498      154.335      126.234       68.880    23819.406    15935.124     4744.450        9.582        2.225      382.684       76.657        0.040      342.685       18.265      857.498
05/17/2013  15:44:00     -349.172     -208.163      -26.982      184.659      100.407       68.112    34098.768    10081.548     4639.255       10.739        2.441      406.513       63.803        0.025      342.832       18.515      857.496
05/17/2013  15:45:00     -360.312     -205.665       -2.154      239.488      145.906       84.592    57354.405    21288.524     7155.818       12.895        4.290      414.877       98.863        0.057      342.528       17.997      857.480
05/17/2013  15:46:00     -281.881     -220.335       19.467      221.133      150.044      100.797    48899.849    22513.192    10160.074       10.496        4.079      357.777      118.936        0.111      342.638       18.184      857.469
05/17/2013  15:47:00     -339.689     -229.788       14.113      220.107      173.814       94.229    48447.201    30211.141     8879.080       12.795        4.377      410.111      105.437        0.066      342.622       18.157      857.497
05/17/2013  15:48:00     -361.734     -161.277       -3.197      167.781      118.435       69.473    28150.439    14026.858     4826.462       10.193        2.350      396.058       63.096        0.025      342.817       18.490      857.512
05/17/2013  15:49:00     -532.972     -220.747      -41.599      254.957      168.652       84.854    65002.926    28443.460     7200.144       21.756        5.032      576.878       98.592        0.029      342.697       18.284      857.542
05/17/2013  15:50:00     -528.787     -203.263      -15.214      197.374      215.056       91.871    38956.525    46249.204     8440.316       20.739        4.682      566.508       93.139        0.027      342.561       18.054      857.598
05/17/2013  15:51:00     -367.653     -174.387       -3.493      236.001      181.722      112.065    55696.364    33022.970    12558.672       13.341        5.064      406.915      114.803        0.080      342.525       17.994      857.612
05/17/2013  15:52:00     -255.792      -35.272        3.531      191.227      138.859       85.051    36567.750    19281.809     7233.623        6.487        3.154      258.213       86.961        0.113      342.657       18.216      857.556
05/17/2013  15:53:00     -260.245     -135.254       -6.038      249.999      136.355       83.774    62499.402    18592.795     7018.057        8.707        4.406      293.293       69.184        0.056      342.586       18.097      857.585
05/17/2013  15:54:00     -354.013     -282.299        1.889      205.133      173.337       98.867    42079.607    30045.702     9774.670       14.344        4.095      452.789       98.969        0.048      342.542       18.022      857.587
05/17/2013  15:55:00     -479.208     -370.068        1.927      234.164      167.479      113.543    54832.679    28049.383    12892.037       23.116        4.789      605.467      124.624        0.042      342.281       17.579      857.598
05/17/2013  15:56:00     -482.610     -323.345      -24.623      227.593      224.472      109.911    51798.401    50387.726    12080.349       22.615        5.713      580.917      107.910        0.035      342.254       17.532      857.589
05/17/2013  15:57:00     -365.887     -223.083        6.651      235.513      182.819       96.515    55466.155    33422.642     9315.140       14.092        4.910      428.531      123.964        0.084      342.458       17.878      857.594
05/17/2013  15:58:00     -417.832     -283.391       -7.982      211.100      163.333       91.466    44563.271    26677.786     8365.949       16.727        3.980      504.870      109.308        0.047      342.429       17.831      857.620
05/17/2013  15:59:00     -242.500     -215.609        6.314      193.389      162.442      101.242    37399.192    26387.515    10250.002        8.967        3.702      324.490      104.859        0.104      342.406       17.791      857.627
05/17/2013  16:00:00     -342.112     -161.715       -3.914      183.475      148.435       79.536    33663.081    22032.936     6325.934       10.260        3.101      378.407       90.580        0.057      342.292       17.598      857.619
05/17/2013  16:01:00     -318.339     -177.281        2.180      149.770      120.166       60.776    22431.130    14439.861     3693.762        8.666        2.028      364.374       75.030        0.042      342.540       18.018      857.579
05/17/2013  16:02:00     -352.678     -243.138       11.361      253.892      153.505       87.420    64460.898    23563.838     7642.238       13.963        4.783      428.367       93.116        0.047      342.511       17.969      857.613
05/17/2013  16:03:00     -416.150     -139.921       -3.957      240.619      167.441       83.513    57897.652    28036.339     6974.357       14.282        4.645      439.043       85.603        0.038      342.455       17.874      857.587
05/17/2013  16:04:00     -314.088     -105.545        8.837      180.643      202.092       91.258    32631.769    40841.329     8328.061        9.582        4.090      331.347       97.363        0.086      342.764       18.400      857.606
05/17/2013  16:05:00     -434.445     -251.659       -7.513      181.649      166.032       88.370    32996.318    27566.702     7809.257       16.024        3.419      502.071       85.616        0.029      342.426       17.824      857.655
05/17/2013  16:06:00     -424.037     -213.318      -11.262      207.835      121.541       78.949    43195.571    14772.106     6232.958       14.481        3.210      474.671       81.424        0.029      342.354       17.701      857.642
05/17/2013  16:07:00     -365.605     -265.939        2.714      210.969      158.782       92.994    44507.916    25211.737     8647.927       14.137        3.918      452.096      101.035        0.050      342.666       18.231      857.617
05/17/2013  16:08:00     -592.400     -284.738      -12.435      238.444      223.352      107.993    56855.530    49885.909    11662.497       27.526        5.920      657.278      125.943        0.037      342.221       17.477      857.653
05/17/2013  16:09:00     -455.990     -258.733       -4.407      259.133      197.516      111.036    67149.877    39012.517    12328.958       19.667        5.925      524.280      133.339        0.065      342.218       17.472      857.679
05/17/2013  16:10:00     -394.402     -281.459      -24.685      184.593      164.756       85.122    34074.571    27144.590     7245.751       15.191        3.423      484.533       97.365        0.040      342.209       17.456      857.671
05/17/2013  16:11:00     -256.224     -176.882       -8.194      159.264      125.917       82.064    25365.120    15855.003     6734.464        7.247        2.398      311.349       82.778        0.071      342.444       17.855      857.649
05/17/2013  16:12:00     -369.707      -85.094      -23.191      225.822      137.650       99.698    50995.795    18947.547     9939.630       11.216        3.994      379.374      113.232        0.089      342.679       18.255      857.659
05/17/2013  16:13:00     -498.930     -310.067       -5.506      239.940      180.418       89.325    57571.107    32550.515     7978.870       22.158        4.905      587.429       91.570        0.024      342.343       17.683      857.664
05/17/2013  16:14:00     -371.667     -229.369        2.430      188.564      153.306       86.682    35556.245    23502.610     7513.706       12.865        3.329      436.746       89.571        0.042      342.305       17.619      857.614
05/17/2013  16:15:00     -319.726     -140.589      -11.538      207.683      131.929       69.477    43132.125    17405.177     4826.992        9.373        3.268      349.270       60.318        0.030      342.580       18.085      857.603
05/17/2013  16:16:00     -371.091     -297.927       -5.279      229.182      202.688      115.372    52524.245    41082.521    13310.617       16.669        5.346      475.888      123.490        0.067      342.653       18.211      857.640
05/17/2013  16:17:00     -336.845     -212.688        8.089      241.451      133.010      100.991    58298.660    17691.681    10199.200       12.246        4.309      398.373      116.847        0.086      342.541       18.020      857.646
05/17/2013  16:18:00     -482.442     -285.465      -25.541      201.992      203.780       77.364    40800.945    41526.362     5985.218       20.158        4.416      560.571       90.138        0.026      342.548       18.030      857.643
05/17/2013  16:19:00     -318.514     -191.898       -2.976      257.306      174.881       90.622    66206.456    30583.200     8212.308       12.162        5.250      371.855      117.253        0.099      342.678       18.253      857.682
05/17/2013  16:20:00     -227.172     -188.345       -1.149      157.302      218.596       67.420    24743.849    47784.178     4545.493        8.206        3.854      295.095       70.250        0.057      342.727       18.335      857.683
05/17/2013  16:21:00     -435.479     -204.011       -3.560      210.695      184.379      100.670    44392.315    33995.572    10134.402       15.988        4.426      480.897       81.656        0.029      342.550       18.037      857.686
05/17/2013  16:22:00     -598.713     -147.007       -6.312      218.414      160.888      106.344    47704.866    25884.870    11309.015       23.249        4.245      616.497      107.950        0.031      342.292       17.597      857.671
05/17/2013  16:23:00     -329.305     -233.171       14.475      211.426      219.505      110.343    44701.097    48182.244    12175.567       13.402        5.253      403.498      127.271        0.099      342.391       17.764      857.702
05/17/2013  16:24:00     -351.670     -265.868      -14.235      175.783      234.100       82.391    30899.640    54802.593     6788.347       14.351        4.625      440.860       98.414        0.050      342.322       17.647      857.669
05/17/2013  16:25:00     -299.487     -238.926        4.598      186.774      167.188       75.742    34884.545    27951.769     5736.842       10.767        3.429      383.117       91.441        0.057      342.374       17.735      857.677
05/17/2013  16:26:00     -210.194     -196.098        7.877      175.360      127.759       82.730    30751.267    16322.421     6844.223        6.830        2.696      287.465       91.524        0.101      342.400       17.780      857.653
05/17/2013  16:27:00     -412.545     -366.740        2.023      290.129      234.276      106.618    84174.622    54885.161    11367.485       22.753        7.521      551.989      128.902        0.055      342.323       17.650      857.652
05/17/2013  16:28:00     -435.950     -279.952      -14.543      241.989      186.291       97.352    58558.909    34704.287     9477.495       18.567        5.137      518.098       87.467        0.029      342.269       17.558      857.677
05/17/2013  16:29:00     -464.507     -365.156      -23.042      228.724      179.492      107.973    52314.717    32217.221    11658.187       22.289        4.810      590.852      109.678        0.034      342.374       17.736      857.653
05/17/2013  16:30:00     -435.253     -299.090        2.119      262.712      225.724      114.072    69017.413    50951.420    13012.420       20.592        6.649      528.110      137.059        0.067      342.342       17.681      857.736
05/17/2013  16:31:00     -364.997     -236.868        0.228      192.860      163.624       84.445    37195.063    26772.800     7130.965       13.020        3.555      435.119      101.394        0.054      342.232       17.495      857.707
05/17/2013  16:32:00     -321.324     -179.189       -4.323      179.813      141.394       89.016    32332.841    19992.218     7923.863        9.780        3.012      367.910       92.031        0.063      342.508       17.963      857.714
05/17/2013  16:33:00     -215.396      -79.946        3.994      184.929      130.661       85.574    34198.745    17072.394     7322.977        5.569        2.930      229.753      102.796        0.200      342.710       18.308      857.699
05/17/2013  16:34:00     -498.823     -243.198      -14.365      257.300      191.659      112.347    66203.381    36733.334    12621.947       21.184        5.778      554.950      128.918        0.054      342.581       18.087      857.706
05/17/2013  16:35:00     -471.507     -353.516       -8.175      221.623      187.656      106.285    49116.939    35214.869    11296.597       22.147        4.781      589.315      112.641        0.037      342.268       17.556      857.720
05/17/2013  16:36:00     -387.499     -318.895      -10.624      190.758      141.710       94.293    36388.747    20081.837     8891.170       15.865        3.268      501.846      106.527        0.045      342.251       17.526      857.715
05/17/2013  16:37:00     -312.694     -188.338       -7.969      192.403      156.126       82.373    37019.024    24375.387     6785.327       10.073        3.409      365.033      109.969        0.091      342.420       17.815      857.702
05/17/2013  16:38:00     -489.250     -219.258      -20.694      223.725      160.995       86.686    50052.997    25919.440     7514.424       18.566        4.174      536.134       83.204        0.024      342.421       17.816      857.769
05/17/2013  16:39:00     -537.359     -351.176       -4.149      249.061      181.434      117.459    62031.140    32918.455    13796.537       26.040        5.437      641.934      133.472        0.043      342.328       17.658      857.721
05/17/2013  16:40:00     -272.316     -178.131       -8.957      174.066      135.569       73.105    30299.144    18378.888     5344.296        7.998        2.701      325.402       67.281        0.043      342.414       17.804      857.716
05/17/2013  16:41:00     -403.143     -252.182       -7.555      201.701      154.468       89.654    40683.205    23860.289     8037.887       14.936        3.629      475.521       97.548        0.042      342.548       18.031      857.764
05/17/2013  16:42:00     -259.212     -185.045        5.633      158.259      172.596      103.577    25045.956    29789.422    10728.186        8.350        3.278      318.485       89.728        0.079      342.603       18.126      857.774
05/17/2013  16:43:00     -254.187     -187.680       -0.591      202.146      159.261       84.610    40863.103    25364.018     7158.890        8.660        3.669      315.966       90.620        0.082      342.653       18.211      857.757
05/17/2013  16:44:00     -499.518     -442.412      -15.757      297.581      223.378      124.474    88554.485    49897.717    15493.665       29.969        7.697      667.268      141.717        0.045      342.244       17.514      857.751
05/17/2013  16:45:00     -446.770     -249.543        3.249      230.808      177.620      100.061    53272.493    31548.981    10012.119       17.834        4.742      511.737      118.864        0.054      342.263       17.548      857.778
05/17/2013  16:46:00     -407.757     -329.982       -3.057      242.480      237.848      109.307    58796.509    56571.460    11948.079       20.121        6.366      524.551      110.340        0.044      342.345       17.687      857.770
05/17/2013  16:47:00     -277.393     -137.549        6.812      146.985      188.845       87.470    21604.678    35662.293     7650.956        8.040        3.246      309.623       83.167        0.072      342.598       18.116      857.810
05/17/2013  16:48:00     -330.531     -128.379      -11.494      173.881      143.280       74.128    30234.438    20529.143     5494.917        9.105        2.813      354.587       65.494        0.034      342.718       18.320      857.847
05/17/2013  16:49:00     -211.243     -164.912        7.334      190.563      146.882       80.296    36314.090    21574.379     6447.381        6.809        3.217      267.992       92.653        0.120      342.672       18.243      857.883
05/17/2013  16:50:00     -514.670     -255.694      -18.977      201.814      164.781       95.110    40729.026    27152.895     9045.877       20.376        3.846      574.686       80.274        0.020      342.177       17.401      857.847
05/17/2013  16:51:00     -330.964     -302.567        2.190      222.440      181.095      108.833    49479.576    32795.309    11844.715       14.758        4.706      448.424      105.803        0.056      342.425       17.823      857.823
05/17/2013  16:52:00     -413.577     -220.033       -8.563      215.888      199.850      117.510    46607.754    39939.957    13808.625       15.992        5.018      468.466      122.578        0.068      342.421       17.815      857.876
05/17/2013  16:53:00     -506.318     -394.460       -4.372      265.240      202.270      117.341    70352.477    40913.331    13768.834       26.848        6.252      641.839      119.636        0.035      342.160       17.372      857.860
05/17/2013  16:54:00     -540.913     -366.000      -22.244      205.820      196.656      106.808    42361.797    38673.683    11408.020       25.972        4.622      653.103      103.996        0.025      342.002       17.104      857.891
05/17/2013  16:55:00     -537.548     -347.413      -38.272      246.935      152.873      116.294    60976.932    23370.171    13524.209       25.448        4.894      640.042      103.742        0.026      342.161       17.374      857.874
05/17/2013  16:56:00     -670.274     -394.978       -5.479      247.300      198.012      110.047    61157.175    39208.908    12110.341       35.887        5.624      777.994      123.912        0.025      342.158       17.370      857.861
05/17/2013  16:57:00     -591.169     -288.884       -3.860      319.005      201.407      108.604   101764.305    40564.634    11794.755       29.351        7.706      657.978      129.126        0.039      342.286       17.586      857.914
05/17/2013  16:58:00     -315.145     -147.973       -5.480      207.418      158.311       76.969    43022.045    25062.233     5924.162        9.761        3.700      348.156       89.903        0.067      342.193       17.427      857.991
05/17/2013  16:59:00     -303.404     -136.559        2.259      208.616      137.689       75.002    43520.512    18958.251     5625.360        8.939        3.405      332.719       84.157        0.064      342.164       17.379      857.913
05/17/2013  17:00:00     -319.611     -216.050       -1.194      244.187      181.513      102.514    59627.087    32946.926    10509.070       12.594        5.154      385.783      117.000        0.092      342.345       17.686      857.921
05/17/2013  17:01:00     -273.335     -270.568       -1.745      166.613      143.873       93.588    27759.896    20699.328     8758.728       10.256        2.861      384.603      100.417        0.068      342.438       17.845      857.956
05/17/2013  17:02:00     -523.873     -207.185      -10.739      237.760      160.345       97.335    56530.049    25710.476     9474.022       20.458        4.586      563.355      100.473        0.032      342.214       17.463      857.954
05/17/2013  17:03:00     -219.054      -83.944       14.640      165.863      143.350       83.820    27510.530    20549.211     7025.795        5.515        2.754      234.587       77.341        0.109      342.380       17.746      857.950
05/17/2013  17:04:00     -294.449     -250.475      -11.056      182.198      179.767       75.868    33195.999    32316.227     5755.878       11.040        3.563      386.573       77.246        0.040      342.382       17.751      857.943
05/17/2013  17:05:00     -573.546     -499.407      -29.276      274.799      240.870      131.137    75514.259    58018.363    17196.892       36.494        7.536      760.502      147.591        0.038      342.264       17.549      857.941
05/17/2013  17:06:00     -625.602     -460.250        0.674      263.519      218.191      130.511    69442.347    47607.232    17033.016       36.862        6.704      776.664      121.308        0.024      341.845       16.838      857.943
05/17/2013  17:07:00     -409.679     -229.381       -6.237      195.592      170.047       87.470    38256.285    28915.918     7651.033       14.764        3.741      469.524       96.578        0.042      342.100       17.270      857.978
05/17/2013  17:08:00     -279.818     -323.611        3.409      212.747      167.592       94.388    45261.338    28086.924     8909.014       13.263        4.113      427.811       95.320        0.050      342.262       17.545      857.989
05/17/2013  17:09:00     -616.310     -292.230      -16.112      285.564      212.602      113.510    81546.642    45199.495    12884.475       30.254        6.982      682.083      103.036        0.023      342.142       17.341      857.948
05/17/2013  17:10:00     -573.342     -363.507       -3.053      274.642      201.333      106.019    75427.983    40534.863    11240.060       29.401        6.360      678.866      120.064        0.031      342.145       17.347      857.976
05/17/2013  17:11:00     -463.646     -270.067       -0.052      206.122      176.956      100.635    42486.399    31313.535    10127.345       18.590        4.196      536.567       99.007        0.034      342.101       17.270      858.004
05/17/2013  17:12:00     -255.171     -185.601       -2.605      143.471      118.461       71.742    20583.954    14032.899     5146.897        6.966        1.988      315.531       59.362        0.035      342.310       17.627      858.016
05/17/2013  17:13:00     -299.609     -130.799        7.182      159.579      142.429       77.174    25465.560    20285.983     5955.878        7.931        2.585      326.916       79.617        0.059      342.335       17.669      858.050
05/17/2013  17:14:00     -536.608     -324.082      -24.930      294.349      202.741      111.053    86641.198    41103.779    12332.772       26.681        7.004      626.879      121.064        0.037      342.128       17.318      858.022
05/17/2013  17:15:00     -273.047     -240.356        3.302      184.472      200.834       88.461    34029.759    40334.282     7825.385       10.725        4.109      363.766       87.758        0.058      342.253       17.531      858.023
05/17/2013  17:16:00     -180.764     -490.470        1.616      189.697      257.403      100.304    35984.903    66256.284    10060.827       19.275        5.615      522.720       96.110        0.034      342.187       17.418      858.021
05/17/2013  17:17:00     -180.044     -291.547       21.431      140.323      191.172       94.136    19690.614    36546.872     8861.635        9.147        3.255      342.659       85.476        0.062      342.378       17.743      858.034
05/17/2013  17:18:00     -263.713     -356.885      -11.140      218.491      196.721       97.061    47738.454    38699.345     9420.873       14.643        4.793      443.747      106.191        0.057      342.293       17.599      858.037
05/17/2013  17:19:00     -460.252     -235.894        0.447      263.992      224.467       98.352    69691.730    50385.300     9673.084       19.859        6.488      517.183      116.480        0.051      342.136       17.332      858.002
05/17/2013  17:20:00     -548.994     -380.772      -29.851      213.452      215.194      101.751    45561.799    46308.421    10353.348       27.473        5.111      668.118       90.320        0.018      341.917       16.960      858.016
05/17/2013  17:21:00     -551.144     -325.580      -15.243      248.343      193.264      105.804    61674.026    37351.087    11194.565       26.008        5.511      640.127      105.201        0.027      341.982       17.069      858.030
05/17/2013  17:22:00     -660.944     -482.862      -16.856      274.621      215.624      141.071    75416.789    46493.698    19901.138       40.602        7.091      818.537      136.106        0.028      341.865       16.871      858.038
05/17/2013  17:23:00     -449.391     -366.229       -0.263      250.870      210.631      120.872    62935.857    44365.362    14610.050       22.897        6.096      579.720      127.030        0.048      341.948       17.012      858.102
05/17/2013  17:24:00     -576.242     -368.195      -24.062      285.524      211.427      114.981    81524.152    44701.343    13220.528       30.380        6.972      683.829      112.205        0.027      341.916       16.957      858.107
05/17/2013  17:25:00     -401.814     -273.763        3.710      256.338      243.479      105.520    65709.144    59281.936    11134.414       18.624        6.806      486.211      137.370        0.080      342.006       17.111      858.105
05/17/2013  17:26:00     -331.241     -130.558        1.027      200.021      149.354       84.406    40008.224    22306.755     7124.418        9.809        3.472      356.042       90.682        0.065      342.198       17.435      858.129
05/17/2013  17:27:00     -373.910     -106.180        2.642      280.691      174.065      103.995    78787.398    30298.494    10815.026       13.547        5.995      388.694      124.747        0.103      342.073       17.225      858.158
05/17/2013  17:28:00     -259.324     -344.206      -17.628      238.988      140.626       89.796    57115.167    19775.541     8063.234       13.548        4.248      430.960       86.534        0.040      342.096       17.264      858.165
05/17/2013  17:29:00     -384.602     -219.161       -2.464      212.936      202.290       96.160    45341.776    40921.122     9246.768       14.571        4.775      442.662      102.873        0.054      342.056       17.195      858.150
05/17/2013  17:30:00     -272.341     -164.916       -6.694      167.721      127.730       71.029    28130.274    16315.012     5045.131        7.544        2.475      318.382       74.424        0.055      342.112       17.291      858.182
05/17/2013  17:31:00     -216.962     -208.279        1.541      178.867      112.673       73.457    31993.313    12695.284     5395.913        7.026        2.504      300.754       70.475        0.055      342.170       17.388      858.167
05/17/2013  17:32:00     -336.774     -155.228       -2.985      156.276      137.705       70.043    24422.265    18962.740     4906.059        9.290        2.415      370.827       55.610        0.022      342.114       17.293      858.205
05/17/2013  17:33:00     -499.522     -248.112      -28.138      211.644      184.333       82.839    44793.085    33978.788     6862.381       19.874        4.282      557.747       75.480        0.018      341.954       17.021      858.210
05/17/2013  17:34:00     -588.640     -353.091      -21.320      280.855      180.053      100.682    78879.606    32419.032    10136.878       29.651        6.072      686.418      105.926        0.024      341.811       16.780      858.184
05/17/2013  17:35:00     -414.863     -273.213       10.953      230.197      185.148      101.913    52990.866    34279.647    10386.236       17.225        4.883      496.745      117.285        0.056      341.878       16.893      858.222
05/17/2013  17:36:00     -446.560     -191.680        4.006      235.112      207.630      102.090    55277.816    43110.335    10422.337       17.247        5.441      485.960      128.156        0.070      341.897       16.925      858.211
05/17/2013  17:37:00     -143.531     -111.455       15.711      146.215      127.187       62.115    21378.935    16176.616     3858.283        3.733        2.071      181.723       58.581        0.104      342.153       17.363      858.234
05/17/2013  17:38:00     -470.762     -368.937      -33.042      212.399      213.655       89.794    45113.128    45648.350     8063.044       22.880        4.941      598.106       96.276        0.026      342.004       17.106      858.222
05/17/2013  17:39:00     -328.169     -192.831       -7.265      166.549      170.602       80.701    27738.511    29105.073     6512.640       10.413        3.168      380.629       76.352        0.040      342.016       17.128      858.251
05/17/2013  17:40:00     -348.525     -341.024       -7.243      214.855      180.414       84.982    46162.598    32549.159     7222.010       16.186        4.297      487.613      102.765        0.044      341.954       17.023      858.263
05/17/2013  17:41:00     -314.389     -247.878       12.109      185.243      167.746       95.311    34314.841    28138.667     9084.200       11.597        3.577      400.355      101.435        0.064      341.975       17.057      858.269
05/17/2013  17:42:00     -207.704     -134.020       30.785      248.977      175.636      101.962    61989.575    30848.113    10396.304        8.262        5.162      247.189      136.879        0.307      342.123       17.310      858.281
05/17/2013  17:43:00     -221.901     -143.147       -2.919      155.420      102.493       68.815    24155.273    10504.758     4735.447        5.456        1.970      264.067       77.814        0.087      342.187       17.418      858.272
05/17/2013  17:44:00     -270.398      -82.691       -7.007      144.108      101.565       65.049    20767.141    10315.354     4231.337        5.765        1.766      282.760       66.468        0.055      342.105       17.279      858.266
05/17/2013  17:45:00     -475.233     -226.514      -16.749      184.919      182.628       83.764    34194.898    33352.841     7016.367       17.598        3.728      526.455       78.400        0.022      342.017       17.129      858.273
05/17/2013  17:46:00     -577.687     -214.223      -13.887      247.303      191.533       94.793    61158.684    36684.834     8985.723       24.330        5.341      616.128      111.687        0.033      341.948       17.012      858.284
05/17/2013  17:47:00     -301.577     -220.268      -12.661      164.212      157.474       76.473    26965.563    24798.169     5848.096        9.861        2.881      373.453       78.900        0.045      342.079       17.234      858.348
05/17/2013  17:48:00     -546.669     -259.491      -25.089      262.566      185.753       91.224    68941.025    34504.334     8321.816       23.927        5.588      605.130      105.704        0.031      341.987       17.076      858.349
05/17/2013  17:49:00     -401.159     -242.325       -9.468      235.486      162.762       91.629    55453.451    26491.517     8395.841       15.502        4.517      468.668      107.645        0.053      341.989       17.081      858.360
05/17/2013  17:50:00     -386.164     -317.263      -11.720      298.521      190.014      115.987    89114.639    36105.454    13453.053       19.427        6.934      499.778      159.608        0.102      341.779       16.725      858.380
05/17/2013  17:51:00     -434.421     -186.149      -23.050      160.874      103.330       76.481    25880.516    10677.030     5849.296       13.315        2.120      472.624       63.862        0.018      341.852       16.848      858.383
05/17/2013  17:52:00     -179.087     -174.878       -0.120      156.815      119.332       73.420    24591.027    14240.061     5390.512        5.343        2.211      250.309       70.411        0.079      341.939       16.997      858.393
05/17/2013  17:53:00     -160.932     -153.412       -1.474      132.759      138.363       77.122    17624.821    19144.394     5947.841        4.607        2.136      222.338       76.561        0.119      342.007       17.115      858.385
05/17/2013  17:54:00     -351.699      -98.039        2.192      163.687      124.736       65.787    26793.343    15558.955     4327.868        8.999        2.334      365.109       68.257        0.035      342.066       17.213      858.391
05/17/2013  17:55:00     -375.052     -180.891      -15.418      177.304      147.106       90.518    31436.706    21640.130     8193.533       11.743        3.064      416.395       89.877        0.047      341.749       16.675      858.327
05/17/2013  17:56:00     -374.564     -117.666      -29.048      187.568      157.563       78.052    35181.617    24826.053     6092.128       11.053        3.305      392.611       82.345        0.044      341.953       17.020      858.356
05/17/2013  17:57:00     -232.344     -207.075        1.487      190.857      177.854       70.025    36426.449    31631.962     4903.542        8.490        3.648      311.230       93.931        0.091      342.075       17.228      858.389
05/17/2013  17:58:00     -440.271     -293.930        1.109      256.033      215.015      128.775    65552.736    46231.312    16583.098       20.428        6.418      529.371      149.108        0.079      341.889       16.912      858.396
05/17/2013  17:59:00     -552.102     -346.917        2.552      283.207      229.343      120.376    80206.180    52598.178    14490.366       28.620        7.365      652.049      136.822        0.044      341.619       16.454      858.387
05/17/2013  18:00:00     -537.225     -222.794       -9.590      254.451      173.942       84.856    64745.158    30255.932     7200.462       22.025        5.110      581.591       82.617        0.020      341.674       16.548      858.412
05/17/2013  18:01:00     -274.835     -190.210       12.886      229.382      217.466       93.098    52616.253    47291.419     8667.232       11.021        5.429      334.237      102.306        0.094      341.855       16.855      858.431
05/17/2013  18:02:00     -288.971       -5.747        0.917      176.437      133.912       90.648    31130.086    17932.450     8217.058        7.040        2.864      289.028       92.440        0.102      341.920       16.964      858.447
05/17/2013  18:03:00     -260.714     -165.604       -3.405      192.156      142.479       67.955    36924.108    20300.199     4617.917        7.861        3.092      308.863       72.375        0.055      341.960       17.033      858.447
05/17/2013  18:04:00     -291.140     -243.926      -17.035      207.357      151.955       95.869    42996.748    23090.215     9190.931       10.990        3.764      379.819       83.264        0.048      342.019       17.134      858.441
05/17/2013  18:05:00     -233.651     -170.448       -0.617      167.453      120.147       89.326    28040.418    14435.229     7979.079        6.704        2.523      289.215       91.560        0.100      341.956       17.026      858.474
05/17/2013  18:06:00     -341.413     -202.194      -10.724      185.920      198.225       86.466    34566.225    39292.988     7476.339       11.943        4.067      396.794       76.945        0.038      341.782       16.731      858.474
05/17/2013  18:07:00     -268.467     -137.657        9.820      178.727      154.430       75.038    31943.489    23848.779     5630.657        7.626        3.071      301.702       73.283        0.059      341.865       16.872      858.460
05/17/2013  18:08:00     -221.801     -184.082       -4.760      123.624      135.711       72.637    15282.840    18417.421     5276.141        6.103        1.949      288.239       72.012        0.062      341.993       17.087      858.469
05/17/2013  18:09:00     -365.998     -237.681        1.772      178.964      142.045       87.357    32027.935    20176.666     7631.202       12.513        2.992      436.402      101.211        0.054      341.813       16.784      858.466
05/17/2013  18:10:00     -264.896     -197.799        7.383      193.069      188.661       85.829    37275.787    35593.133     7366.682        9.478        4.012      330.596       97.174        0.086      341.889       16.913      858.483
05/17/2013  18:11:00     -414.642     -364.635       -4.919      221.681      211.636      103.696    49142.461    44789.726    10752.951       20.478        5.234      552.166       98.284        0.032      341.722       16.628      858.451
05/17/2013  18:12:00     -516.233     -314.864      -13.256      197.522      176.135       91.430    39014.902    31023.690     8359.433       22.209        3.920      604.679       99.637        0.027      341.682       16.561      858.449
05/17/2013  18:13:00     -366.790     -142.656       -4.809      198.772      152.927       85.822    39510.402    23386.654     7365.395       11.257        3.513      393.555      105.721        0.072      341.708       16.605      858.477
05/17/2013  18:14:00     -289.627     -212.612        5.232      157.683      125.885       82.925    24863.902    15847.060     6876.534        8.834        2.379      359.288       80.774        0.051      341.862       16.866      858.499
05/17/2013  18:15:00     -394.111     -114.148       -1.130      222.667      152.772       84.383    49580.783    23339.242     7120.539       12.418        4.002      410.309      102.501        0.062      341.750       16.675      858.501
05/17/2013  18:16:00     -245.486     -119.109        9.049      152.790      158.463       86.804    23344.811    25110.655     7534.931        6.525        2.800      272.856       71.561        0.069      341.777       16.723      858.488
05/17/2013  18:17:00     -252.695     -210.301        2.223      179.028      137.972       91.504    32051.036    19036.173     8373.045        8.376        2.973      328.757       92.219        0.079      341.801       16.763      858.494
05/17/2013  18:18:00     -316.362     -255.760       -9.603      190.894      169.598       95.497    36440.644    28763.543     9119.711       11.994        3.716      406.815       93.665        0.053      341.683       16.563      858.469
05/17/2013  18:19:00     -323.517     -257.759       -0.950      206.959      177.454       81.214    42831.837    31489.965     6595.708       12.599        4.046      413.646       86.562        0.044      341.760       16.693      858.502
05/17/2013  18:20:00     -469.144     -351.448       13.183      228.371      200.758      103.924    52153.485    40303.923    10800.128       22.350        5.163      586.184      108.710        0.034      341.591       16.405      858.486
05/17/2013  18:21:00     -219.314     -219.250       20.212      161.622      129.396       90.049    26121.564    16743.257     8108.854        7.377        2.549      310.112       92.110        0.088      341.780       16.726      858.490
05/17/2013  18:22:00     -304.947      -93.066      -11.508      217.527      147.045       91.901    47317.993    21622.176     8445.723        8.957        3.869      318.832      108.885        0.117      341.862       16.866      858.496
05/17/2013  18:23:00     -434.985     -195.629        2.288      259.566      206.200      105.820    67374.540    42518.394    11197.948       17.426        6.055      476.951      122.706        0.066      341.674       16.546      858.510
05/17/2013  18:24:00     -455.798     -375.430       -2.745      241.490      197.663      100.157    58317.432    39070.530    10031.453       22.804        5.371      590.508      113.297        0.037      341.553       16.341      858.524
05/17/2013  18:25:00     -472.959     -297.078      -12.272      199.790      173.567       99.308    39916.132    30125.676     9861.994       19.598        3.995      558.521      102.077        0.033      341.555       16.346      858.498
05/17/2013  18:26:00     -427.477     -321.308      -10.115      245.722      219.523      118.998    60379.448    48190.558    14160.581       20.438        6.137      534.766      119.044        0.050      341.521       16.289      858.513
05/17/2013  18:27:00     -445.062     -224.701       -2.632      201.857      179.651      107.946    40746.327    32274.651    11652.426       16.661        4.234      498.568      102.038        0.042      341.522       16.290      858.491
05/17/2013  18:28:00     -492.929     -330.245      -17.362      264.624      201.556      104.720    70026.049    40624.797    10966.210       23.696        6.081      593.330      113.079        0.036      341.460       16.184      858.465
05/17/2013  18:29:00     -358.636     -222.596       -7.493      196.383      130.049       87.705    38566.127    16912.791     7692.215       12.069        3.159      422.101       90.124        0.046      341.579       16.386      858.504
05/17/2013  18:30:00     -359.291     -254.607       -0.543      184.008      172.828       83.430    33858.889    29869.660     6960.645       13.229        3.534      440.358       95.240        0.047      341.614       16.446      858.492
05/17/2013  18:31:00     -463.167     -251.127       -1.848      236.999      210.184      105.975    56168.450    44177.317    11230.712       19.456        5.579      526.867      119.996        0.052      341.600       16.422      858.506
05/17/2013  18:32:00     -392.747     -353.485       -8.356      200.582      188.342       93.547    40233.067    35472.654     8750.966       18.185        4.223      528.396       96.996        0.034      341.584       16.395      858.560
05/17/2013  18:33:00     -363.972     -193.812       -6.186      211.639      199.560       88.728    44791.013    39824.273     7872.721       13.126        4.624      412.358       98.222        0.057      341.617       16.451      858.598
05/17/2013  18:34:00     -361.518     -270.905       -2.313      252.330      196.648      106.786    63670.553    38670.386    11403.210       15.889        5.687      451.758      116.653        0.067      341.553       16.342      858.610
05/17/2013  18:35:00     -383.463     -223.468        8.720      225.419      160.707       98.589    50813.837    25826.758     9719.888       14.169        4.318      443.826      111.942        0.064      341.529       16.303      858.616
05/17/2013  18:36:00     -321.651     -208.524        8.177      212.655      146.373       99.046    45222.029    21425.097     9810.094       11.172        3.823      383.329      110.603        0.083      341.496       16.245      858.607
05/17/2013  18:37:00     -253.688     -132.033        0.378      162.481      101.414       80.285    26400.059    10284.883     6445.615        6.245        2.157      285.990       82.702        0.084      341.608       16.436      858.625
05/17/2013  18:38:00     -303.047     -163.102      -17.681      191.875      123.269       62.622    36816.027    15195.357     3921.527        8.733        2.797      344.151       79.728        0.054      341.646       16.500      858.626
05/17/2013  18:39:00     -368.242      -59.014      -18.616      170.287      151.119       76.831    28997.653    22836.825     5903.057        9.857        2.887      372.941       82.918        0.049      341.581       16.389      858.650
05/17/2013  18:40:00     -510.065     -130.637       11.632      199.857      180.069      108.267    39942.725    32424.835    11721.806       18.071        4.204      526.528      105.124        0.040      341.387       16.061      858.597
05/17/2013  18:41:00     -310.441     -125.798       12.861      228.396      147.215       85.198    52164.874    21672.271     7258.678        9.671        4.055      334.961       99.519        0.088      341.457       16.179      858.626
05/17/2013  18:42:00     -102.574     -144.849       13.962      117.487      129.501       53.346    13803.182    16770.458     2845.785        3.255        1.671      177.490       54.215        0.093      341.563       16.362      858.627
05/17/2013  18:43:00     -346.986     -269.930       -3.548      206.131      167.611       95.162    42489.988    28093.541     9055.804       13.644        3.982      439.615       94.356        0.046      341.514       16.276      858.623
05/17/2013  18:44:00     -175.016     -138.444       17.735      193.445      160.785       85.414    37420.856    25851.872     7295.574        6.033        3.528      223.153       87.978        0.155      341.606       16.433      858.657
05/17/2013  18:45:00     -326.421     -313.293       -2.034      194.953      141.704      101.336    38006.657    20079.985    10269.035       13.652        3.418      452.442       96.737        0.046      341.429       16.132      858.668
05/17/2013  18:46:00     -251.055     -157.404        5.049      166.975      129.226       75.011    27880.656    16699.281     5626.695        6.901        2.510      296.318       82.360        0.077      341.492       16.238      858.694
05/17/2013  18:47:00     -295.248     -143.014       -7.745      195.551       96.358       62.782    38240.244     9284.873     3941.559        7.957        2.573      328.062       75.499        0.053      341.460       16.185      858.728
05/17/2013  18:48:00     -279.462     -204.160       -9.862      152.666      114.964       74.820    23306.906    13216.697     5597.977        8.099        2.106      346.093       77.007        0.050      341.537       16.315      858.700
05/17/2013  18:49:00     -143.872      -95.329       10.785      204.583      150.792       74.127    41854.138    22738.303     5494.771        4.998        3.504      172.588      101.618        0.347      341.601       16.425      858.722
05/17/2013  18:50:00     -223.494      -95.698        2.144      206.271      125.889       66.190    42547.580    15847.983     4381.081        6.093        3.139      243.121       82.005        0.114      341.567       16.366      858.737
05/17/2013  18:51:00     -204.660     -285.986      -10.665      165.618      143.298       77.493    27429.291    20534.251     6005.095        8.887        2.698      351.672       79.968        0.052      341.511       16.271      858.745
05/17/2013  18:52:00     -476.244     -253.154      -23.434      232.855      171.213       95.633    54221.597    29313.842     9145.591       19.204        4.634      539.347      114.874        0.045      341.367       16.028      858.711
05/17/2013  18:53:00     -494.162     -274.707      -17.514      240.147      187.418       99.899    57670.712    35125.592     9979.753       21.135        5.139      565.385       99.957        0.031      341.302       15.917      858.708
05/17/2013  18:54:00     -397.073     -206.126        4.594      226.262      186.709      105.654    51194.352    34860.217    11162.684       14.868        4.861      447.387      111.766        0.062      341.340       15.981      858.712
05/17/2013  18:55:00     -231.935      -85.691        8.451      153.909      144.650       77.742    23687.938    20923.630     6043.804        5.592        2.533      247.259       86.258        0.122      341.456       16.177      858.755
05/17/2013  18:56:00     -330.736     -224.638      -10.941      143.189      170.456       74.521    20503.077    29055.335     5553.434       10.753        2.756      399.811       82.301        0.042      341.412       16.104      858.785
05/17/2013  18:57:00     -353.215     -144.712        2.447      159.351      127.259       79.137    25392.789    16194.964     6262.611        9.677        2.393      381.710       69.812        0.033      341.386       16.061      858.772
05/17/2013  18:58:00     -284.385     -124.235        7.570      119.602       94.774       53.281    14304.575     8982.046     2838.848        6.124        1.306      310.337       52.115        0.028      341.421       16.119      858.803
05/17/2013  18:59:00     -252.113     -148.913      -17.321      141.112       95.413       64.754    19912.554     9103.653     4193.088        5.962        1.660      292.807       58.965        0.041      341.436       16.143      858.818
05/17/2013  19:00:00     -311.698     -167.745        2.455      212.360      208.527       77.929    45096.885    43483.432     6072.937       10.996        4.733      353.969       70.859        0.040      341.305       15.922      858.845
05/17/2013  19:01:00     -197.595     -154.166       30.879      214.341      142.294       82.109    45942.100    20247.476     6741.812        6.833        3.647      250.621       97.443        0.151      341.342       15.987      858.852
05/17/2013  19:02:00     -286.026     -198.979       -5.703      185.859      170.992       88.959    34543.601    29238.273     7913.766        9.655        3.585      348.430       87.211        0.063      341.293       15.901      858.847
05/17/2013  19:03:00     -384.793     -264.828      -19.755      237.262      181.146       87.437    56293.180    32814.041     7645.204       15.765        4.838      467.118       99.647        0.046      341.202       15.747      858.883
05/17/2013  19:04:00     -310.030     -126.587        5.143      193.067      157.828       85.738    37274.793    24909.557     7351.048        9.084        3.477      334.878       87.743        0.069      341.268       15.860      858.910
05/17/2013  19:05:00     -349.397     -131.471       -5.359      157.277      114.404       66.376    24735.996    13088.224     4405.757        9.080        2.111      373.314       72.999        0.038      341.289       15.896      858.944
05/17/2013  19:06:00     -322.437     -181.203       -9.984      192.649      145.178       72.054    37113.465    21076.704     5191.800       10.013        3.169      369.865       88.744        0.058      341.245       15.821      858.977
05/17/2013  19:07:00     -276.513     -118.163       -1.941      149.989      100.723       64.164    22496.565    10145.147     4117.077        6.358        1.838      300.703       71.779        0.057      341.304       15.920      859.002
05/17/2013  19:08:00     -321.919      -79.357      -14.900      227.270      160.145       75.293    51651.863    25646.321     5668.968        9.654        4.148      331.556       84.672        0.065      341.296       15.906      858.970
05/17/2013  19:09:00     -391.407     -182.470      -14.783      203.873      169.832       77.599    41564.093    28842.868     6021.676       13.156        3.821      431.851       78.143        0.033      341.221       15.780      858.989
05/17/2013  19:10:00     -247.749      -41.324        0.493      209.047      132.523       78.871    43700.463    17562.404     6220.624        6.527        3.374      251.172       98.968        0.155      341.342       15.986      858.993
05/17/2013  19:11:00     -316.346     -160.667       -3.580      153.144      133.293       69.927    23453.034    17766.892     4889.723        8.600        2.305      354.808       72.833        0.042      341.258       15.842      859.043
05/17/2013  19:12:00     -439.547     -325.415      -22.639      185.841      135.495      101.994    34536.903    18358.791    10402.752       18.144        3.165      546.897      101.500        0.034      341.104       15.582      859.069
05/17/2013  19:13:00     -191.183     -151.752       11.320      146.131      133.769       76.929    21354.212    17894.089     5918.128        5.243        2.258      244.089       81.953        0.113      341.172       15.696      859.078
05/17/2013  19:14:00     -235.437      -11.276        8.226      190.412      139.287       83.337    36256.606    19400.807     6945.098        5.910        3.130      235.707       90.703        0.148      341.275       15.873      859.068
05/17/2013  19:15:00     -222.512     -139.665       -0.031      144.053      111.534       62.048    20751.362    12439.737     3849.918        5.302        1.852      262.712       66.903        0.065      341.224       15.785      859.114
05/17/2013  19:16:00     -342.255     -244.235       -4.405      182.442      155.301       76.910    33284.964    24118.538     5915.081       12.005        3.166      420.463       71.961        0.029      341.086       15.551      859.096
05/17/2013  19:17:00     -332.277     -226.735        5.486      171.078      128.416       84.866    29267.838    16490.773     7202.166       10.739        2.648      402.265       79.738        0.039      341.078       15.538      859.109
05/17/2013  19:18:00     -361.851     -233.060      -11.147      230.490      144.666       89.762    53125.630    20928.179     8057.151       13.373        4.106      430.411      120.186        0.078      341.054       15.499      859.138
05/17/2013  19:19:00     -355.845     -228.359      -16.608      243.631      167.548       87.193    59356.137    28072.275     7602.581       13.702        4.752      422.817      100.396        0.056      341.020       15.441      859.156
05/17/2013  19:20:00     -482.149     -350.517       -6.803      289.009      197.510      101.211    83526.256    39010.119    10243.669       24.405        6.639      596.096      113.376        0.036      340.902       15.240      859.145
05/17/2013  19:21:00     -406.804     -239.607        4.574      238.515      239.560      119.014    56889.542    57389.016    14164.300       17.566        6.422      472.124      109.404        0.054      340.921       15.273      859.123
05/17/2013  19:22:00     -279.004     -209.901        2.575      235.060      198.961       81.265    55253.145    39585.290     6603.987       11.165        5.072      349.144      113.737        0.106      340.946       15.315      859.206
05/17/2013  19:23:00     -466.937     -254.075       -4.797      206.224      165.069      104.324    42528.416    27247.641    10883.521       18.162        4.033      531.586      108.791        0.042      340.874       15.192      859.208
05/17/2013  19:24:00     -487.787      -76.525      -23.217      207.728      160.302       76.199    43151.100    25696.680     5806.269       15.948        3.733      493.754       79.437        0.026      340.937       15.299      859.229
05/17/2013  19:25:00     -243.364     -118.839        3.357      157.543      128.241       64.083    24819.694    16445.745     4106.661        5.936        2.269      270.830       66.381        0.060      340.983       15.377      859.266
05/17/2013  19:26:00     -231.605     -168.538        4.634      182.940      160.060       80.599    33467.029    25619.132     6496.228        7.381        3.279      286.437       90.456        0.100      340.963       15.344      859.281
05/17/2013  19:27:00     -399.495     -170.272      -18.660      180.246      132.052       68.039    32488.797    17437.776     4629.363       12.174        2.728      434.268       84.637        0.038      340.953       15.327      859.295
05/17/2013  19:28:00     -451.828      -78.627      -36.997      197.666      147.810       81.528    39071.867    21847.925     6646.815       13.962        3.378      458.618       97.518        0.045      340.924       15.277      859.283
05/17/2013  19:29:00     -240.386     -118.196       -4.712      156.466      131.194       67.074    24481.605    17211.989     4498.955        5.898        2.310      267.873       77.538        0.084      340.957       15.334      859.296
05/17/2013  19:30:00     -421.488     -227.353      -26.068      180.269      145.164       74.635    32496.978    21072.573     5570.330       14.457        2.957      478.896       58.114        0.015      340.856       15.162      859.319
05/17/2013  19:31:00     -391.938     -244.287      -18.397      235.822      132.501       92.068    55612.029    17556.438     8476.544       14.762        4.082      461.835      106.553        0.053      340.830       15.118      859.321
05/17/2013  19:32:00     -372.267     -231.518      -31.246      201.437      130.651       83.285    40576.991    17069.628     6936.385       12.886        3.229      438.387      103.186        0.055      340.855       15.161      859.338
05/17/2013  19:33:00     -178.010     -132.308       -0.397      113.275      126.197       65.763    12831.273    15925.652     4324.804        4.113        1.654      221.795       63.406        0.082      340.886       15.214      859.364
05/17/2013  19:34:00     -269.812     -259.839       -3.404      167.786      123.479       81.670    28152.257    15247.116     6670.062        9.519        2.503      374.586       88.821        0.056      340.869       15.184      859.363
05/17/2013  19:35:00     -354.490     -168.620      -17.353      152.414      147.287       74.039    23230.144    21693.521     5481.740       10.239        2.520      392.550       83.273        0.045      340.844       15.141      859.395
05/17/2013  19:36:00     -208.132      -70.449       22.484      192.180      111.000       86.593    36933.105    12321.063     7498.295        5.276        2.838      219.732      107.453        0.239      340.843       15.141      859.385
05/17/2013  19:37:00     -289.297     -168.270        2.654      160.840      158.357       78.239    25869.632    25077.026     6121.416        8.453        2.853      334.676       86.434        0.067      340.793       15.055      859.396
05/17/2013  19:38:00     -245.119     -225.939        4.739      150.244      152.429       70.831    22573.355    23234.625     5017.080        8.098        2.541      333.364       83.177        0.062      340.806       15.078      859.426
05/17/2013  19:39:00     -230.802      -94.806        1.477      143.031      114.585       59.987    20457.819    13129.711     3598.404        4.972        1.859      249.515       64.851        0.068      340.822       15.105      859.451
05/17/2013  19:40:00     -421.672      -99.584      -18.669      142.370      115.733       76.602    20269.146    13394.167     5867.937       11.379        1.977      433.272       76.189        0.031      340.733       14.955      859.449
05/17/2013  19:41:00     -317.405     -109.239       -5.107      141.611      117.591       57.595    20053.773    13827.716     3317.168        7.494        1.860      335.677       62.679        0.035      340.758       14.996      859.508
05/17/2013  19:42:00     -399.512     -225.144       -5.211      215.315      180.257       82.362    46360.733    32492.420     6783.536       14.796        4.282      458.584       96.991        0.045      340.693       14.886      859.511
05/17/2013  19:43:00     -203.297     -130.357       17.760      182.086      130.619       71.267    33155.386    17061.429     5078.927        5.696        2.765      241.501       80.754        0.112      340.713       14.924      859.541
05/17/2013  19:44:00     -328.021      -66.467      -16.189      178.027      113.451       70.582    31693.755    12871.113     4981.868        8.090        2.477      334.687       80.024        0.057      340.744       14.972      859.556
05/17/2013  19:45:00     -404.099     -224.107      -10.938      241.667      194.569       94.570    58403.138    37857.155     8943.412       15.940        5.260      462.082       85.325        0.034      340.660       14.831      859.563
05/17/2013  19:46:00     -437.589     -306.653      -26.863      236.399      171.951       99.748    55884.453    29567.136     9949.667       19.080        4.770      534.341      106.781        0.040      340.629       14.777      859.581
05/17/2013  19:47:00     -384.739     -279.168      -12.913      237.019      173.564       95.766    56178.237    30124.422     9171.205       16.078        4.774      475.352      114.744        0.058      340.611       14.749      859.589
05/17/2013  19:48:00     -352.971       -2.848      -19.576      152.952      134.569       69.338    23394.386    18108.904     4807.702        8.564        2.316      352.983       64.560        0.033      340.656       14.823      859.632
05/17/2013  19:49:00     -326.037     -150.965       -6.957      193.823      198.027       90.604    37567.477    39214.671     8209.169       10.705        4.250      359.292      102.133        0.081      340.702       14.902      859.642
05/17/2013  19:50:00     -337.269      -94.561      -11.655      216.381      166.340       85.577    46820.891    27668.922     7323.400       10.230        4.091      350.274       93.968        0.072      340.703       14.904      859.660
05/17/2013  19:51:00     -201.573      -60.476       19.971      230.975      107.122       90.202    53349.606    11475.044     8136.331        5.881        3.648      210.450      120.498        0.328      340.637       14.793      859.675
05/17/2013  19:52:00     -331.130     -201.189        7.688      208.497      192.789      109.594    43471.015    37167.682    12010.843       12.140        4.632      387.459      111.060        0.082      340.597       14.723      859.663
05/17/2013  19:53:00     -387.124     -226.779      -12.342      212.901      149.999       83.583    45326.847    22499.771     6986.182       13.811        3.741      448.658       86.473        0.037      340.570       14.679      859.696
05/17/2013  19:54:00     -353.623     -184.843        2.187      150.866      138.255       69.007    22760.402    19114.364     4761.914       10.292        2.332      399.019       77.759        0.038      340.562       14.665      859.706
05/17/2013  19:55:00     -339.059     -132.226       -3.235      147.890      138.405       81.733    21871.514    19155.880     6680.282        9.007        2.385      363.929       77.681        0.046      340.590       14.713      859.719
05/17/2013  19:56:00     -293.995      -70.788        7.786      160.482      167.548       79.565    25754.615    28072.264     6330.562        7.582        3.008      302.397       88.451        0.086      340.605       14.739      859.742
05/17/2013  19:57:00     -259.889     -109.247        4.320      144.526      133.338       76.936    20887.782    17778.964     5919.209        6.203        2.229      281.917       72.889        0.067      340.564       14.669      859.739
05/17/2013  19:58:00     -260.771     -211.319        1.852      161.618      148.419       84.159    26120.219    22028.284     7082.685        8.393        2.762      335.644       88.315        0.069      340.523       14.600      859.739
05/17/2013  19:59:00     -390.284     -309.707       -6.250      204.778      167.369      103.148    41933.923    28012.377    10639.537       16.442        4.029      498.237       99.978        0.040      340.523       14.598      859.707
05/17/2013  20:00:00     -213.875     -161.443        7.049      149.408      106.216       64.695    22322.803    11281.888     4185.381        5.482        1.890      267.967       82.798        0.095      340.579       14.692      859.758
05/17/2013  20:01:00     -299.280     -173.357       -6.584      161.464      157.322       84.706    26070.719    24750.153     7175.118        8.882        2.900      345.863       84.938        0.060      340.542       14.631      859.756
05/17/2013  20:02:00     -160.101      -73.789       -3.133      143.787       83.259       53.626    20674.780     6932.091     2875.697        3.078        1.524      176.287       57.299        0.106      340.557       14.659      859.787
05/17/2013  20:03:00     -249.822     -140.204      -12.734      169.871      116.479       68.648    28856.263    13567.338     4712.565        6.467        2.357      286.475       85.106        0.088      340.506       14.571      859.800
05/17/2013  20:04:00     -230.120      -38.652      -24.617      150.863      110.899       54.712    22759.557    12298.679     2993.382        4.655        1.903      233.343       67.725        0.084      340.522       14.598      859.828
05/17/2013  20:05:00     -340.523      -68.690       -4.384      209.532      131.641       70.558    43903.535    17329.290     4978.433        9.344        3.311      347.382       94.860        0.075      340.490       14.544      859.817
05/17/2013  20:06:00     -293.193     -211.071       10.968      221.858      174.161       81.132    49220.996    30331.946     6582.383       10.837        4.307      361.266      109.011        0.091      340.473       14.514      859.812
05/17/2013  20:07:00     -287.653     -180.215       -4.077      170.753      115.056       72.480    29156.551    13237.777     5253.368        8.143        2.382      339.443       62.584        0.034      340.482       14.529      859.882
05/17/2013  20:08:00     -363.315     -143.129      -23.579      157.659      132.049       60.984    24856.279    17436.923     3719.087        9.952        2.301      390.492       58.371        0.022      340.442       14.463      859.885
05/17/2013  20:09:00     -456.998      -23.878      -18.023      198.747      161.455       90.920    39500.370    26067.614     8266.494       14.177        3.692      457.622       98.983        0.047      340.365       14.332      859.872
05/17/2013  20:10:00     -460.348     -107.097      -18.750      174.193      133.788       81.722    30343.349    17899.216     6678.477       13.932        2.746      472.642       91.468        0.037      340.354       14.315      859.906
05/17/2013  20:11:00     -354.497      -93.504      -14.083      183.196      170.916       89.899    33560.830    29212.109     8081.910       10.272        3.543      366.621       83.969        0.052      340.360       14.322      859.904
05/17/2013  20:12:00     -273.228     -127.394      -12.800      117.865      106.467       58.322    13892.140    11335.279     3401.397        5.983        1.431      301.467       58.958        0.038      340.388       14.372      859.944
05/17/2013  20:13:00     -146.473     -107.693       20.432      129.575      114.896       92.539    16789.692    13200.996     8563.408        3.600        1.928      181.803       92.023        0.256      340.387       14.372      859.954
05/17/2013  20:14:00     -291.955       -4.152      -11.297      216.114      123.558       61.387    46705.320    15266.687     3768.407        7.555        3.287      291.984       83.855        0.082      340.333       14.277      859.974
05/17/2013  20:15:00     -234.513      -86.983       -4.682      171.848      113.415       58.927    29531.876    12862.934     3472.364        5.422        2.293      250.124       66.333        0.070      340.317       14.252      859.973
05/17/2013  20:16:00     -291.651      -13.974      -27.694      117.363      119.402       52.232    13773.963    14256.795     2728.212        5.838        1.538      291.985       58.991        0.041      340.321       14.258      860.009
05/17/2013  20:17:00     -216.948     -156.860        2.708      163.764      124.920       82.099    26818.760    15605.031     6740.229        6.041        2.458      267.715       94.263        0.124      340.319       14.255      860.004
05/17/2013  20:18:00     -281.323     -202.940      -13.852      200.364      133.938       91.854    40145.802    17939.498     8437.135        9.351        3.326      346.883      107.577        0.096      340.304       14.228      860.010
05/17/2013  20:19:00     -371.051     -241.857      -11.379      173.179      146.674       82.580    29990.970    21513.308     6819.384       12.730        2.916      442.915       84.970        0.037      340.273       14.175      860.004
05/17/2013  20:20:00     -167.767     -117.472       -7.071      146.044      109.361       67.587    21328.919    11959.838     4567.952        3.992        1.893      204.806       76.602        0.140      340.354       14.314      860.024
05/17/2013  20:21:00     -195.595      -12.249       -9.634      150.594       96.806       54.501    22678.662     9371.315     2970.363        3.675        1.751      195.978       57.217        0.085      340.268       14.169      860.046
05/17/2013  20:22:00     -372.365     -130.883      -30.413      188.833      169.045       78.290    35657.857    28576.094     6129.354       11.352        3.518      394.697       83.903        0.045      340.243       14.125      860.051
05/17/2013  20:23:00     -243.048     -141.961        8.180      185.933      174.526       95.542    34571.076    30459.449     9128.241        7.671        3.708      281.470      109.894        0.152      340.265       14.164      860.043
05/17/2013  20:24:00     -345.239      -28.680        2.429      235.403      105.493       70.733    55414.619    11128.812     5003.110        9.577        3.577      346.428       80.454        0.054      340.259       14.153      860.080
05/17/2013  20:25:00     -399.967     -109.143      -17.189      235.931      159.101       82.249    55663.295    25313.058     6764.947       12.994        4.387      414.591       90.841        0.048      340.207       14.063      860.107
05/17/2013  20:26:00     -267.100      -83.780        1.967      118.967      106.854       60.437    14153.060    11417.759     3652.687        5.379        1.461      279.931       52.979        0.036      340.244       14.125      860.121
05/17/2013  20:27:00     -156.490     -110.353        4.913      162.188      143.457       80.144    26305.044    20579.982     6423.068        4.499        2.665      191.486       82.607        0.186      340.232       14.108      860.122
05/17/2013  20:28:00     -156.591      -34.000        7.000       86.140       92.314       66.304     7420.116     8521.934     4396.173        2.303        1.017      160.239       54.774        0.117      340.241       14.124      860.139
05/17/2013  20:29:00     -279.442      -15.943      -18.684      114.183       80.950       49.312    13037.668     6552.897     2431.657        5.035        1.101      279.896       46.978        0.028      340.217       14.081      860.150
05/17/2013  20:30:00     -347.048     -133.286      -12.885      109.309       88.756       55.075    11948.532     7877.593     3033.294        8.061        1.143      371.762       55.765        0.023      340.156       13.979      860.157
05/17/2013  20:31:00     -320.281      -53.504      -14.575      106.278       92.820       54.519    11294.941     8615.503     2972.310        6.426        1.144      324.719       56.325        0.030      340.145       13.961      860.179
05/17/2013  20:32:00     -300.301     -142.943       -2.236      140.824       96.177       67.470    19831.399     9250.031     4552.139        7.212        1.682      332.586       64.156        0.037      340.099       13.883      860.176
05/17/2013  20:33:00     -272.826      -94.139       -4.231      136.571       87.224       58.250    18651.695     7607.966     3393.086        5.648        1.483      288.611       59.490        0.042      340.114       13.908      860.217
05/17/2013  20:34:00     -183.368     -113.172       -5.723      131.014       83.871       64.565    17164.715     7034.344     4168.615        3.741        1.418      215.480       73.872        0.118      340.130       13.936      860.220
05/17/2013  20:35:00     -307.328      -71.108      -11.852      134.982       86.201       51.375    18220.013     7430.693     2639.364        6.396        1.415      315.447       59.105        0.035      340.085       13.858      860.248
05/17/2013  20:36:00     -341.608      -68.769      -12.816      151.912       94.570       49.285    23077.116     8943.516     2429.011        7.801        1.722      348.461       59.942        0.030      340.087       13.862      860.242
05/17/2013  20:37:00     -496.015      -42.708      -34.760      149.422      119.861       68.440    22326.873    14366.726     4683.987       14.521        2.069      497.851       68.471        0.019      340.054       13.806      860.243
05/17/2013  20:38:00     -402.224      -98.917      -14.983      178.122      159.880       69.912    31727.367    25561.767     4887.646       11.697        3.109      414.209       68.664        0.027      340.068       13.831      860.253
05/17/2013  20:39:00     -218.343      -16.768        6.351      151.363       93.470       59.536    22910.882     8736.635     3544.567        4.159        1.760      218.986       76.449        0.122      340.056       13.809      860.277
05/17/2013  20:40:00     -287.153      -31.084       -7.211      111.464       82.077       58.057    12424.300     6736.611     3370.596        5.300        1.127      288.831       59.586        0.043      340.041       13.783      860.268
05/17/2013  20:41:00     -216.206      -32.551       -8.431      127.875      115.399       53.396    16352.102    13316.939     2851.179        4.019        1.626      218.642       62.709        0.082      340.030       13.767      860.285
05/17/2013  20:42:00     -233.072      -48.250      -12.210      144.496      109.508       63.342    20879.136    11991.946     4012.268        4.683        1.844      238.014       78.399        0.108      340.021       13.753      860.297
05/17/2013  20:43:00     -290.425      -73.755      -15.412      112.332      109.271       57.351    12618.500    11940.053     3289.099        5.893        1.392      299.644       60.360        0.041      340.034       13.774      860.299
05/17/2013  20:44:00     -354.042      -67.089      -44.669      110.292       90.248       63.315    12164.350     8144.678     4008.816        7.807        1.216      360.343       63.803        0.031      340.014       13.739      860.308
05/17/2013  20:45:00     -145.467     -116.088       -3.346      167.465      122.351       62.210    28044.618    14969.857     3870.139        4.076        2.344      186.111       74.955        0.162      340.036       13.778      860.317
05/17/2013  20:46:00     -264.059     -117.796       -4.430       98.715       90.205       54.056     9744.640     8137.000     2922.020        5.221        1.040      289.142       50.812        0.031      340.013       13.739      860.346
05/17/2013  20:47:00     -167.170      -26.617       -4.882      105.449       88.895       51.054    11119.453     7902.334     2606.533        2.515        1.081      169.276       46.314        0.075      339.989       13.699      860.362
05/17/2013  20:48:00     -169.182      -53.577        6.615      132.178       97.476       58.583    17471.013     9501.618     3431.983        3.096        1.520      177.463       64.715        0.133      339.980       13.683      860.406
05/17/2013  20:49:00     -284.550      -93.827        6.128      160.729      165.248       74.391    25833.831    27306.942     5534.093        7.423        2.934      299.620       72.662        0.059      340.009       13.731      860.445
05/17/2013  20:50:00     -378.916      -78.383      -16.660      159.807      135.545       84.626    25538.149    18372.481     7161.487       10.053        2.554      386.938       94.352        0.059      339.976       13.676      860.447
05/17/2013  20:51:00     -414.803     -116.208       -0.015      159.533      136.853       69.500    25450.625    18728.670     4830.245       11.728        2.450      430.774       75.619        0.031      339.935       13.607      860.499
05/17/2013  20:52:00     -433.375      -98.586      -17.686      147.535      101.353       71.042    21766.619    10272.506     5046.966       11.746        1.854      444.447       80.660        0.033      339.911       13.566      860.528
05/17/2013  20:53:00     -439.608     -179.501        6.475      278.624      175.015      117.473    77631.154    30630.409    13799.879       17.376        6.103      474.843      151.371        0.102      339.895       13.538      860.538
05/17/2013  20:54:00     -230.104      -46.688        5.042      186.462      120.458       75.920    34768.137    14510.064     5763.869        5.509        2.752      234.793       91.301        0.151      339.932       13.602      860.542
05/17/2013  20:55:00     -195.902      -87.288       -7.219      125.343       97.649       56.998    15710.889     9535.337     3248.746        3.727        1.425      214.468       53.535        0.062      339.931       13.601      860.615
05/17/2013  20:56:00     -273.319       -2.289       -6.278      123.456       78.892       51.510    15241.269     6223.903     2653.273        4.943        1.206      273.328       57.211        0.044      339.874       13.502      860.615
05/17/2013  20:57:00     -210.104      -22.507       -0.001      119.715      113.127       51.953    14331.719    12797.657     2699.062        3.723        1.491      211.307       58.651        0.077      339.865       13.487      860.609
05/17/2013  20:58:00     -260.423      -95.388       -4.418      142.013      159.854       71.114    20167.670    25553.169     5057.185        6.385        2.539      277.343       67.891        0.060      339.866       13.488      860.605
05/17/2013  20:59:00     -232.800     -122.757       -6.032      169.398      106.347       47.276    28695.688    11309.594     2235.006        5.576        2.112      263.183       37.338        0.020      339.885       13.523      860.623
05/17/2013  21:00:00     -328.982     -239.843        0.199      180.357      172.814       89.608    32528.823    29864.781     8029.627       11.807        3.521      407.129       99.518        0.060      339.854       13.469      860.604
05/17/2013  21:01:00     -517.552     -141.661      -32.347      190.782      139.094       79.383    36397.581    19347.108     6301.738       17.550        3.102      536.589       85.592        0.025      339.850       13.460      860.631
05/17/2013  21:02:00     -199.772     -145.634        3.464      146.902      110.559       67.672    21580.085    12223.305     4579.472        4.975        1.919      247.221       56.475        0.052      339.866       13.488      860.657
05/17/2013  21:03:00     -221.805     -116.951       -5.716      130.207      119.406       63.471    16953.808    14257.822     4028.520        4.907        1.762      250.749       65.974        0.069      339.858       13.476      860.658
05/17/2013  21:04:00     -250.017      -22.485       -9.582      136.477       97.598       57.895    18625.852     9525.285     3351.845        4.730        1.575      251.026       65.609        0.068      339.831       13.431      860.663
05/17/2013  21:05:00     -353.524      -41.228       -2.566      171.519      125.115       64.562    29418.667    15653.831     4168.189        8.795        2.462      355.920       54.537        0.023      339.794       13.369      860.686
05/17/2013  21:06:00     -216.373      -60.072       -3.259      100.289       98.030       57.202    10057.870     9609.978     3272.041        3.668        1.147      224.557       54.179        0.058      339.786       13.354      860.705
05/17/2013  21:07:00     -229.393     -103.191      -16.862      121.086      125.344       58.847    14661.796    15711.239     3462.988        4.869        1.692      251.535       67.407        0.072      339.825       13.420      860.722
05/17/2013  21:08:00     -243.915      -46.707       14.224      152.838      140.166       67.736    23359.406    19646.475     4588.163        5.473        2.380      248.347       75.894        0.093      339.801       13.380      860.714
05/17/2013  21:09:00     -342.151     -128.374       -7.220      198.774      152.766       89.532    39511.175    23337.562     8015.975       10.222        3.543      365.441       97.465        0.071      339.768       13.324      860.710
05/17/2013  21:10:00     -332.767      -56.311       -1.524      192.833      121.937       83.230    37184.562    14868.602     6927.162        8.643        2.949      337.497       95.817        0.081      339.743       13.283      860.760
05/17/2013  21:11:00     -535.148      -75.090      -32.065      246.174      183.231       89.690    60601.719    33573.653     8044.295       19.761        5.111      540.390      109.109        0.041      339.702       13.214      860.788
05/17/2013  21:12:00     -402.735     -163.849      -20.498      172.104      124.929       78.752    29619.677    15607.361     6201.809       12.043        2.571      434.789       83.803        0.037      339.748       13.293      860.785
05/17/2013  21:13:00     -435.665     -128.567      -27.576      197.380      145.413       70.893    38959.046    21145.067     5025.774       13.610        3.256      454.240       81.714        0.032      339.718       13.240      860.838
05/17/2013  21:14:00     -287.583      -84.904      -28.607      123.699      106.698       48.654    15301.398    11384.562     2367.238        5.989        1.453      299.855       53.485        0.032      339.747       13.290      860.862
05/17/2013  21:15:00     -138.125      -22.057       22.411      139.414      114.118       59.801    19436.373    13022.910     3576.202        2.804        1.802      139.875       66.735        0.228      339.705       13.219      860.893
05/17/2013  21:16:00     -379.037      -58.691      -19.525      111.047      121.315       63.870    12331.472    14717.338     4079.427        8.931        1.556      383.554       59.331        0.024      339.659       13.140      860.898
05/17/2013  21:17:00     -275.698     -164.747       13.822      204.363      147.378       92.065    41764.283    21720.252     8475.883        8.764        3.598      321.171      111.630        0.121      339.669       13.158      860.904
05/17/2013  21:18:00     -183.845      -13.199        1.478      150.391      115.600       71.647    22617.427    13363.333     5133.289        3.754        2.056      184.318       80.508        0.191      339.673       13.164      860.930
05/17/2013  21:19:00     -333.133       45.067      -21.171      191.832      105.486       56.397    36799.377    11127.380     3180.594        8.227        2.555      336.167       77.439        0.053      339.633       13.097      860.924
05/17/2013  21:20:00     -217.794      -18.284       22.487      225.073      132.065       87.759    50657.636    17441.207     7701.704        6.202        3.790      218.560      121.836        0.311      339.681       13.178      860.918
05/17/2013  21:21:00     -268.671      -21.497       -7.811      131.791      137.263       70.543    17368.950    18841.194     4976.315        5.694        2.059      269.529       72.353        0.072      339.629       13.090      860.934
05/17/2013  21:22:00     -293.461      -58.345      -15.882      205.874      161.633       81.475    42384.001    26125.075     6638.200        8.245        3.757      299.205       86.865        0.084      339.629       13.091      860.923
05/17/2013  21:23:00     -381.136        4.576      -27.735      154.427      140.302       75.699    23847.722    19684.624     5730.362        9.765        2.463      381.164       71.534        0.035      339.579       13.006      860.971
05/17/2013  21:24:00     -288.692      -31.384      -10.324      171.093       87.401       58.968    29272.889     7638.850     3477.239        6.240        2.019      290.393       65.758        0.051      339.582       13.012      861.007
05/17/2013  21:25:00     -405.641      -65.480      -29.887      144.032       87.923       53.627    20745.277     7730.410     2875.810       10.053        1.568      410.892       56.537        0.019      339.561       12.976      861.011
05/17/2013  21:26:00     -453.038      -58.756      -29.677      210.451      177.050       79.016    44289.767    31346.765     6243.580       14.571        4.094      456.833       97.581        0.046      339.555       12.967      861.017
05/17/2013  21:27:00     -537.229      -93.425      -32.537      155.459      117.736       64.805    24167.350    13861.838     4199.665       17.031        2.111      545.292       63.726        0.014      339.575       13.001      860.993
05/17/2013  21:28:00     -486.751      -39.924      -36.175      158.835      138.753       78.494    25228.630    19252.399     6161.336       14.523        2.532      488.385       67.222        0.019      339.541       12.941      861.035
05/17/2013  21:29:00     -351.559     -110.998      -12.479      106.768       98.135       54.196    11399.314     9630.463     2937.152        8.001        1.198      368.665       49.984        0.018      339.524       12.912      861.056
05/17/2013  21:30:00     -375.949     -134.466      -19.839      125.581      101.754       66.992    15770.543    10353.884     4487.912        9.521        1.531      399.273       67.105        0.028      339.519       12.904      861.092
05/17/2013  21:31:00     -319.886     -147.949      -15.319      111.431       93.502       57.261    12416.918     8742.639     3278.873        7.444        1.222      352.443       55.146        0.024      339.516       12.898      861.075
05/17/2013  21:32:00     -385.257     -100.904      -23.061      131.622      102.480       65.376    17324.331    10502.140     4274.002        9.561        1.605      398.252       51.883        0.017      339.523       12.911      861.091
05/17/2013  21:33:00     -565.209     -121.647      -15.919      163.757      166.298       87.290    26816.270    27654.995     7619.612       19.829        3.105      578.152       83.637        0.021      339.498       12.867      861.092
05/17/2013  21:34:00     -420.878      -93.195      -29.366      174.366      144.084       70.161    30403.469    20760.311     4922.599       12.137        2.804      431.073       67.603        0.025      339.489       12.854      861.130
05/17/2013  21:35:00     -407.712      -43.804      -27.372      161.161      150.003       87.212    25972.809    22500.898     7605.947       11.248        2.804      410.058       84.496        0.042      339.510       12.888      861.150
05/17/2013  21:36:00     -497.215      -51.592      -29.935      204.272      143.655       87.526    41727.200    20636.672     7660.717       16.039        3.501      499.884       98.843        0.039      339.520       12.905      861.162
05/17/2013  21:37:00     -422.573      -36.751      -20.474      203.879      160.341       85.470    41566.788    25709.165     7305.128       12.744        3.729      424.168       98.250        0.054      339.538       12.937      861.184
05/17/2013  21:38:00     -472.308     -170.085      -46.966      160.403      125.262       74.365    25729.014    15690.565     5530.096       15.057        2.347      502.000       64.183        0.016      339.507       12.883      861.174
05/17/2013  21:39:00     -314.186      -82.298       -3.704      165.439      105.089       65.382    27369.909    11043.743     4274.804        7.409        2.134      324.785       69.663        0.046      339.498       12.869      861.190
05/17/2013  21:40:00     -349.506      -17.973      -16.392      159.204      125.795       65.808    25345.891    15824.335     4330.689        8.411        2.275      349.967       59.207        0.029      339.476       12.832      861.229
05/17/2013  21:41:00     -319.917     -113.550       -7.574      158.969      140.504       76.264    25271.177    19741.264     5816.139        8.305        2.541      339.471       86.487        0.065      339.460       12.804      861.235
05/17/2013  21:42:00     -251.679     -129.873      -16.510      118.353      119.876       65.876    14007.396    14370.176     4339.599        5.659        1.636      283.213       52.288        0.034      339.454       12.795      861.247
05/17/2013  21:43:00     -346.227     -138.624      -17.995      159.187      148.416       58.236    25340.378    22027.348     3391.417        9.508        2.538      372.948       48.716        0.017      339.467       12.816      861.258
05/17/2013  21:44:00     -353.420     -164.611       -6.850      117.636      120.320       62.643    13838.297    14477.005     3924.160        9.214        1.612      389.875       57.855        0.022      339.409       12.719      861.276
05/17/2013  21:45:00     -296.791      -56.601       -6.073      133.565       98.670       50.491    17839.638     9735.836     2549.365        6.072        1.506      302.140       52.896        0.031      339.394       12.693      861.302
05/17/2013  21:46:00     -277.627     -112.053      -13.730      127.845       91.152       49.838    16344.455     8308.627     2483.864        5.847        1.357      299.388       50.154        0.028      339.380       12.670      861.317
05/17/2013  21:47:00     -263.006     -106.587       -0.097      147.204      114.192       61.565    21669.084    13039.750     3790.238        5.951        1.925      283.784       57.903        0.042      339.381       12.673      861.337
05/17/2013  21:48:00     -435.111     -116.355      -24.925      132.430      166.428       73.184    17537.578    27698.306     5355.871       12.703        2.530      450.400       69.024        0.023      339.382       12.675      861.332
05/17/2013  21:49:00     -417.699     -105.666      -35.494      177.620      134.931       72.654    31548.930    18206.461     5278.547       12.095        2.752      430.857       65.439        0.023      339.375       12.664      861.335
05/17/2013  21:50:00     -340.915      -48.074       -3.722      178.587      118.340       76.806    31893.370    14004.243     5899.200        8.516        2.590      344.288       82.074        0.057      339.358       12.632      861.362
05/17/2013  21:51:00     -372.357      -25.265       -8.238      189.265      150.165       74.183    35821.364    22549.396     5503.064       10.160        3.194      373.213       92.916        0.062      339.331       12.587      861.375
05/17/2013  21:52:00     -442.190       11.206      -28.227      152.937      145.626       68.692    23389.599    21206.880     4718.543       12.287        2.466      442.332       76.222        0.030      339.342       12.606      861.389
05/17/2013  21:53:00     -428.841      -30.828       -9.416      190.807      170.741       88.563    36407.159    29152.574     7843.386       12.916        3.670      429.948       84.232        0.038      339.371       12.656      861.371
05/17/2013  21:54:00     -448.983      -81.593      -22.396      143.649      110.837       64.145    20635.094    12284.853     4114.535       12.288        1.852      456.336       67.428        0.022      339.374       12.660      861.396
05/17/2013  21:55:00     -487.010     -103.751      -36.803      185.462      139.992       74.529    34396.007    19597.747     5554.585       15.441        2.977      497.939       62.470        0.016      339.376       12.663      861.420
05/17/2013  21:56:00     -403.022     -112.082      -22.422      192.894      137.560       75.432    37208.243    18922.645     5689.955       11.864        3.091      418.317       79.777        0.036      339.363       12.641      861.440
05/17/2013  21:57:00     -417.631      -72.559      -13.531      175.365      134.517       79.577    30752.869    18094.899     6332.513       11.751        2.759      423.887       82.591        0.038      339.373       12.658      861.438
05/17/2013  21:58:00     -360.445      -43.717      -17.252      115.409       95.038       62.023    13319.128     9032.306     3846.902        7.916        1.310      363.086       62.420        0.030      339.344       12.608      861.471
05/17/2013  21:59:00     -356.940      -92.825       -8.590      164.893      126.447       65.542    27189.603    15988.737     4295.717        9.178        2.374      368.813       79.215        0.046      339.345       12.610      861.497
05/17/2013  22:00:00     -369.951     -118.194      -17.229      145.448      106.159       65.329    21155.033    11269.760     4267.936        9.390        1.835      388.373       62.442        0.026      339.307       12.546      861.526
05/17/2013  22:01:00     -403.461      -64.278      -12.960      159.862      107.971       60.051    25555.955    11657.729     3606.182       10.394        2.041      408.550       71.863        0.031      339.282       12.505      861.541
05/17/2013  22:02:00     -561.798     -216.808       -4.923      230.325      153.075       79.552    53049.555    23431.863     6328.532       22.271        4.140      602.182       97.785        0.026      339.318       12.564      861.526
05/17/2013  22:03:00     -422.095      -81.546       -6.459      173.622      120.164       78.914    30144.664    14439.279     6227.446       11.782        2.541      429.900       90.022        0.044      339.282       12.504      861.559
05/17/2013  22:04:00     -320.207      -23.878       -3.753      140.401      140.395       66.493    19712.354    19710.704     4421.349        7.347        2.192      321.097       62.842        0.038      339.281       12.503      861.560
05/17/2013  22:05:00     -380.460      -17.234      -21.600      185.026      124.623       84.606    34234.550    15530.777     7158.128       10.121        2.846      380.850       99.138        0.068      339.279       12.501      861.550
05/17/2013  22:06:00     -427.136      -90.355       -9.639      161.581      133.586       75.948    26108.420    17845.230     5768.052       12.020        2.486      436.589       81.338        0.035      339.271       12.486      861.556
05/17/2013  22:07:00     -331.760      -73.012       -5.380      149.327      123.739       80.103    22298.561    15311.432     6416.465        7.972        2.201      339.699       83.982        0.061      339.261       12.471      861.554
05/17/2013  22:08:00     -407.708     -116.076       -4.445      220.268      172.173       84.927    48518.137    29643.523     7212.648       13.253        4.269      423.909       96.585        0.052      339.279       12.500      861.544
05/17/2013  22:09:00     -409.676      -68.794      -17.239      163.609      147.227       76.514    26767.754    21675.886     5854.452       11.357        2.715      415.412       75.152        0.033      339.268       12.481      861.558
05/17/2013  22:10:00     -503.335      -92.537      -10.605      263.584      166.461       96.730    69476.491    27709.230     9356.615       18.426        5.327      511.771      122.993        0.058      339.254       12.457      861.554
05/17/2013  22:11:00     -465.702     -176.020      -16.151      204.856      207.855       92.971    41965.810    43203.501     8643.621       17.095        4.691      497.857       87.985        0.031      339.252       12.456      861.537
05/17/2013  22:12:00     -384.788      -82.987      -22.685      149.923      161.399       69.544    22477.014    26049.648     4836.409       10.440        2.668      393.636       72.619        0.034      339.281       12.503      861.544
05/17/2013  22:13:00     -399.939      -99.305      -12.456      182.502      187.092       88.530    33306.905    35003.559     7837.473       12.304        3.807      412.083       91.853        0.050      339.267       12.479      861.548
05/17/2013  22:14:00     -310.766       -9.275        5.817      187.990      137.875       93.894    35340.245    19009.481     8816.022        7.992        3.158      310.905       96.178        0.096      339.269       12.483      861.549
05/17/2013  22:15:00     -427.116      -46.818      -22.147      263.922      182.027       92.938    69654.894    33133.823     8637.479       14.825        5.571      429.674      103.994        0.059      339.265       12.478      861.546
05/17/2013  22:16:00     -344.494     -115.274      -17.727      221.105      158.549       83.842    48887.429    25137.858     7029.436       10.665        4.053      363.269       90.761        0.062      339.257       12.464      861.546
05/17/2013  22:17:00     -550.633     -159.273      -42.488      192.811      155.107      103.822    37175.909    24058.040    10778.942       20.118        3.601      573.206      100.552        0.031      339.232       12.421      861.542
05/17/2013  22:18:00     -322.217      -40.362        3.739      206.501      113.530       80.957    42642.682    12888.985     6554.008        8.376        3.104      324.736      105.093        0.105      339.192       12.353      861.555
05/17/2013  22:19:00     -268.991     -162.637        6.281      181.885      168.654       96.211    33082.063    28444.232     9256.565        8.480        3.539      314.336       99.130        0.099      339.225       12.409      861.524
05/17/2013  22:20:00     -215.411     -103.958        1.372      165.865      103.995       66.381    27511.200    10814.881     4406.388        4.996        2.137      239.185       68.875        0.083      339.214       12.392      861.525
05/17/2013  22:21:00     -218.748      -96.220        9.161      149.922      136.302       77.753    22476.753    18578.161     6045.522        5.214        2.355      238.974       70.069        0.086      339.189       12.350      861.518
05/17/2013  22:22:00     -304.854     -109.687        4.719      250.680      193.002       87.739    62840.696    37249.729     7698.136       10.637        5.389      323.987      116.024        0.128      339.175       12.326      861.500
05/17/2013  22:23:00     -357.190     -149.260      -10.999      188.254      117.471       63.728    35439.401    13799.471     4061.217       10.163        2.665      387.122       77.700        0.040      339.169       12.314      861.526
05/17/2013  22:24:00     -378.155     -108.890       -3.464      167.304      113.933       74.539    27990.490    12980.785     5556.036       10.069        2.326      393.520       66.516        0.029      339.149       12.280      861.526
05/17/2013  22:25:00     -221.268     -138.503       -2.802      160.280      151.332       83.748    25689.620    22901.492     7013.793        6.187        2.780      261.041       83.678        0.103      339.149       12.282      861.517
05/17/2013  22:26:00     -171.093      -77.606       16.257      169.596      129.875       77.733    28762.711    16867.463     6042.440        4.361        2.584      187.871       82.130        0.191      339.166       12.310      861.507
05/17/2013  22:27:00     -297.140     -133.643        6.220      201.100      134.965       84.672    40441.060    18215.562     7169.411        8.600        3.291      325.811       81.042        0.062      339.148       12.280      861.510
05/17/2013  22:28:00     -403.726      -46.900      -12.404      174.369      176.000       83.901    30404.678    30976.013     7039.321       11.687        3.421      406.441       83.979        0.043      339.125       12.240      861.526
05/17/2013  22:29:00     -445.135      -54.660      -33.567      251.898      147.149       85.011    63452.750    21652.756     7226.852       14.728        4.617      448.478       99.604        0.049      339.166       12.309      861.536
05/17/2013  22:30:00     -312.098      -49.075      -17.111      137.234      135.533       83.466    18833.250    18369.082     6966.510        7.213        2.208      315.932       76.310        0.058      339.112       12.220      861.538
05/17/2013  22:31:00     -539.401     -128.234      -34.711      185.500      175.275       99.198    34410.225    30721.304     9840.279       19.177        3.749      554.434       93.522        0.028      339.106       12.208      861.542
05/17/2013  22:32:00     -360.257      -51.332       -5.043      158.312      126.146       90.057    25062.624    15912.692     8110.236        9.076        2.454      363.896       94.157        0.067      339.073       12.153      861.540
05/17/2013  22:33:00     -291.113      -82.021        2.546      177.157      148.881       74.986    31384.697    22165.548     5622.953        7.531        2.959      302.447       89.593        0.088      339.068       12.145      861.522
05/17/2013  22:34:00     -304.840      -33.895       -2.665      161.735      109.665       60.671    26158.295    12026.368     3680.941        6.797        2.093      306.719       73.604        0.058      339.039       12.097      861.534
05/17/2013  22:35:00     -378.268      -21.638       -9.145      146.398      117.899       71.011    21432.317    13900.255     5042.514        9.200        2.019      378.886       58.586        0.024      339.019       12.064      861.513
05/17/2013  22:36:00     -457.015     -109.405      -30.105      136.209      116.288       73.251    18553.023    13522.917     5365.704       12.958        1.872      469.928       66.712        0.020      339.015       12.056      861.516
05/17/2013  22:37:00     -363.928      -52.418      -12.334      121.503      117.025       71.000    14763.064    13694.748     5040.954        8.441        1.675      367.684       62.309        0.029      339.004       12.039      861.510
05/17/2013  22:38:00     -343.297       -8.079      -15.544      117.223      117.445       66.374    13741.284    13793.363     4405.548        7.504        1.597      343.392       55.819        0.026      338.984       12.003      861.512
05/17/2013  22:39:00     -341.230      -82.608       -6.252      143.239      142.025       67.380    20517.504    20171.083     4540.049        8.426        2.261      351.087       57.185        0.027      338.979       11.996      861.514
05/17/2013  22:40:00     -194.880     -129.998        7.229      143.720       94.297       61.687    20655.522     8891.989     3805.264        4.413        1.668      234.260       71.219        0.092      339.011       12.050      861.507
05/17/2013  22:41:00     -295.691     -101.510      -12.015      158.703      109.095       68.224    25186.647    11901.781     4654.524        6.980        2.087      312.630       71.068        0.052      338.991       12.016      861.521
05/17/2013  22:42:00     -529.369      -44.109      -12.088      159.382      166.252       86.121    25402.700    27639.765     7416.758       17.138        3.023      531.204       82.463        0.024      338.973       11.986      861.513
05/17/2013  22:43:00     -431.130      -51.548      -22.380      168.250      129.612       68.858    28308.184    16799.384     4741.411       11.943        2.492      434.201       72.539        0.028      338.976       11.991      861.500
05/17/2013  22:44:00     -270.841      -89.648      -15.442      168.895      127.230       66.516    28525.437    16187.384     4424.319        6.537        2.457      285.292       80.039        0.079      338.953       11.953      861.495
05/17/2013  22:45:00     -429.215      -36.613      -11.663      203.151      123.367       71.032    41270.528    15219.325     5045.550       12.361        3.077      430.773       82.567        0.037      338.943       11.936      861.482
05/17/2013  22:46:00     -397.835     -130.135      -19.863      174.107      176.567       78.906    30313.105    31175.798     6226.140       12.164        3.386      418.578       86.168        0.042      338.959       11.962      861.473
05/17/2013  22:47:00     -374.207      -79.440      -14.671      154.621      148.474       67.681    23907.502    22044.419     4580.656        9.853        2.527      382.547       70.582        0.034      338.948       11.944      861.470
05/17/2013  22:48:00     -329.332      -65.262       -4.833      191.356      142.199       76.906    36617.010    20220.548     5914.605        8.773        3.138      335.736       90.091        0.072      338.948       11.944      861.478
05/17/2013  22:49:00     -288.830      -40.021      -17.887      197.450      107.634       72.803    38986.457    11585.048     5300.230        7.060        2.794      291.590       83.656        0.082      338.974       11.989      861.454
05/17/2013  22:50:00     -483.872     -129.321      -21.171      198.013      158.495       79.295    39209.320    25120.737     6287.689       16.095        3.531      500.856       73.888        0.022      338.930       11.914      861.488
05/17/2013  22:51:00     -256.303      -83.626        2.442      128.432      136.243       68.484    16494.691    18562.080     4690.104        5.621        1.987      269.600       64.154        0.057      338.933       11.919      861.493
05/17/2013  22:52:00     -480.001      -30.768      -37.207      162.473      138.358       84.485    26397.558    19143.023     7137.642       14.269        2.634      480.986       73.846        0.024      338.947       11.942      861.491
05/17/2013  22:53:00     -228.290      -99.340       11.566      201.268      180.951      118.918    40508.933    32743.275    14141.558        7.474        4.370      248.968      122.311        0.241      338.960       11.965      861.491
05/17/2013  22:54:00     -235.260      -93.384        1.188      147.017      125.896       64.958    21614.003    15849.881     4219.583        5.287        2.084      253.117       68.983        0.074      338.967       11.975      861.525
05/17/2013  22:55:00     -290.216     -124.910       -6.984      166.797      108.451       61.332    27821.190    11761.570     3761.672        7.160        2.167      315.955       70.181        0.049      338.971       11.984      861.504
05/17/2013  22:56:00     -440.254      -77.622      -30.475      171.380      184.977       84.618    29371.257    34216.663     7160.184       13.575        3.537      447.045       87.174        0.038      338.930       11.913      861.495
05/17/2013  22:57:00     -310.152      -64.356      -18.003      123.969      127.103       64.467    15368.220    16155.148     4155.948        6.816        1.784      316.758       61.692        0.038      338.920       11.897      861.517
05/17/2013  22:58:00     -375.696     -193.018      -12.861      223.088      161.859       82.706    49768.474    26198.283     6840.273       13.067        4.140      422.378       80.647        0.036      338.925       11.905      861.489
05/17/2013  22:59:00     -274.625      -67.358        5.822      169.037      129.373       80.871    28573.470    16737.345     6540.044        6.591        2.593      282.765       85.022        0.090      338.933       11.919      861.487
05/17/2013  23:00:00     -245.542      -44.701       -7.612      169.232      133.834       80.097    28639.517    17911.471     6415.576        5.765        2.648      249.578       84.536        0.115      338.904       11.870      861.521
05/17/2013  23:01:00     -243.383      -12.312        2.386      126.732      100.625       62.339    16060.876    10125.296     3886.196        4.473        1.504      243.694       61.792        0.064      338.884       11.836      861.535
05/17/2013  23:02:00     -182.208      -31.955       11.359      126.930      101.498       58.493    16111.165    10301.858     3421.480        3.209        1.492      184.989       58.751        0.101      338.894       11.853      861.524
05/17/2013  23:03:00     -318.453      -94.817       -7.892      195.537      106.038       68.158    38234.586    11244.004     4645.547        8.228        2.706      332.269       61.839        0.035      338.892       11.848      861.556
05/17/2013  23:04:00     -295.471     -106.631        0.135      200.241      130.109       82.439    40096.335    16928.357     6796.173        8.123        3.191      314.123       91.787        0.085      338.876       11.823      861.555
05/17/2013  23:05:00     -420.476      -56.351      -25.908      129.017      138.228       63.767    16645.271    19106.961     4066.255       11.022        1.991      424.235       64.829        0.023      338.871       11.814      861.572
05/17/2013  23:06:00     -233.683      -59.775        2.456      149.378      118.107       65.623    22313.907    13949.220     4306.375        4.937        2.028      241.207       80.589        0.112      338.880       11.829      861.579
05/17/2013  23:07:00     -319.841       -4.329      -20.336      102.281      108.047       57.796    10461.380    11674.168     3340.411        6.410        1.274      319.870       45.983        0.021      338.860       11.795      861.597
05/17/2013  23:08:00     -315.381      -15.563      -24.400      129.628       97.393       61.651    16803.350     9485.333     3800.812        6.519        1.504      315.765       61.414        0.038      338.860       11.794      861.599
05/17/2013  23:09:00     -362.549     -117.570      -27.539      228.969      130.697       81.725    52426.661    17081.818     6678.971       11.109        3.809      381.136      104.010        0.074      338.899       11.861      861.599
05/17/2013  23:10:00     -427.220     -103.879      -26.192      166.526      119.398       78.041    27730.952    14255.944     6090.460       12.103        2.404      439.668       81.505        0.034      338.909       11.878      861.597
05/17/2013  23:11:00     -269.564       15.367       -0.474      211.855      102.868       85.119    44882.604    10581.925     7245.243        6.779        3.135      270.001      100.889        0.140      338.907       11.875      861.580
05/17/2013  23:12:00     -273.092      -67.122       -4.588      160.677      153.112       74.692    25816.958    23443.225     5578.927        6.696        2.742      281.220       90.241        0.103      338.909       11.878      861.587
05/17/2013  23:13:00     -360.643      -53.183      -20.535      167.293      124.138       81.726    27986.788    15410.311     6679.203        9.168        2.504      364.543       96.858        0.071      338.871       11.814      861.577
05/17/2013  23:14:00     -336.457      -15.992      -28.061      139.710      115.607       68.122    19518.863    13364.978     4640.564        7.588        1.876      336.837       69.538        0.043      338.853       11.785      861.590
05/17/2013  23:15:00     -287.650      -82.142      -17.051      128.792       89.046       56.934    16587.361     7929.179     3241.494        5.876        1.388      299.148       65.575        0.048      338.874       11.819      861.593
05/17/2013  23:16:00     -332.540      -77.219       -7.598      162.317      156.631       83.953    26346.748    24533.279     7048.092        8.725        2.896      341.388       80.563        0.056      338.846       11.772      861.585
05/17/2013  23:17:00     -226.128      -39.361       -8.606      133.460      119.979       62.892    17811.668    14394.931     3955.351        4.445        1.808      229.528       49.864        0.047      338.823       11.734      861.580
05/17/2013  23:18:00     -292.179       14.100      -11.776      137.139      119.686       67.504    18807.216    14324.632     4556.851        6.169        1.884      292.519       68.077        0.054      338.831       11.748      861.583
05/17/2013  23:19:00     -339.519      -98.982      -11.544      147.459      116.670       71.636    21744.188    13611.968     5131.658        8.284        2.024      353.653       70.454        0.040      338.825       11.738      861.599
05/17/2013  23:20:00     -318.446      -50.086       -2.446      163.869      104.197       67.666    26853.125    10857.079     4578.676        7.310        2.114      322.361       73.135        0.051      338.811       11.713      861.606
05/17/2013  23:21:00     -363.921      -10.665      -29.689      110.231      112.649       54.645    12150.818    12689.704     2986.049        8.062        1.391      364.077       50.377        0.019      338.798       11.692      861.620
05/17/2013  23:22:00     -304.556     -115.620      -14.201      177.831      118.860       78.078    31623.787    14127.763     6096.120        7.908        2.592      325.764       77.126        0.056      338.795       11.687      861.598
05/17/2013  23:23:00     -368.091     -104.532      -27.027      149.055      118.866       64.061    22217.458    14129.091     4103.850        9.379        2.023      382.646       68.822        0.032      338.779       11.660      861.595
05/17/2013  23:24:00     -436.064      -59.212      -21.277      137.642       94.043       67.744    18945.375     8844.054     4589.211       11.324        1.619      440.066       66.800        0.023      338.758       11.625      861.603
05/17/2013  23:25:00     -382.546      -64.050      -30.424      112.389      110.362       55.471    12631.335    12179.862     3077.078        8.962        1.394      387.871       45.580        0.014      338.773       11.650      861.598
05/17/2013  23:26:00     -205.065      -69.772        6.062       97.344       92.433       54.118     9475.804     8543.784     2928.809        3.395        1.047      216.610       45.097        0.043      338.757       11.623      861.568
05/17/2013  23:27:00     -341.877      -61.075       -5.680      128.019      118.286       70.250    16388.927    13991.601     4935.024        7.797        1.766      347.289       72.326        0.043      338.749       11.608      861.579
05/17/2013  23:28:00     -314.557      -98.242      -14.503      141.629      125.798       58.868    20058.787    15825.053     3465.497        7.407        1.967      329.542       67.107        0.041      338.773       11.651      861.581
05/17/2013  23:29:00     -316.264      -94.828      -18.074      123.148      106.837       56.533    15165.407    11414.225     3195.927        6.955        1.489      330.175       51.329        0.024      338.773       11.649      861.599
05/17/2013  23:30:00     -264.727      -73.849       -4.317      104.155       87.233       55.963    10848.292     7609.546     3131.835        4.857        1.079      274.835       54.036        0.039      338.754       11.618      861.598
05/17/2013  23:31:00     -316.897      -63.836       -3.791      144.470      123.973       66.264    20871.517    15369.307     4390.874        7.256        2.032      323.262       69.471        0.046      338.777       11.656      861.599
05/17/2013  23:32:00     -392.892     -128.196       -5.775      133.732      110.081       59.813    17884.370    12117.933     3577.585       10.220        1.679      413.278       62.993        0.023      338.805       11.702      861.604
05/17/2013  23:33:00     -303.248      -74.653       -6.807      135.894       98.475       55.971    18467.255     9697.290     3132.719        6.443        1.565      312.302       62.073        0.040      338.815       11.720      861.607
05/17/2013  23:34:00     -403.655      -51.333      -22.172      126.943       99.782       70.785    16114.542     9956.538     5010.456        9.857        1.554      406.906       75.029        0.034      338.817       11.723      861.613
05/17/2013  23:35:00     -217.927      -82.153        8.772      127.909      119.629       59.417    16360.825    14311.107     3530.396        4.425        1.710      232.898       56.060        0.058      338.788       11.675      861.612
05/17/2013  23:36:00     -315.748      -75.510      -14.914      135.621       85.718       59.396    18392.930     7347.585     3527.886        6.744        1.463      324.651       59.755        0.034      338.776       11.655      861.617
05/17/2013  23:37:00     -331.408     -111.585      -26.824      127.245      107.008       54.336    16191.300    11450.664     2952.383        7.679        1.530      349.690       34.154        0.010      338.788       11.675      861.612
05/17/2013  23:38:00     -276.460      -41.811      -16.906      121.594      104.429       60.387    14785.098    10905.325     3646.628        5.389        1.467      279.604       59.400        0.045      338.770       11.643      861.600
05/17/2013  23:39:00     -325.977     -127.899      -13.917      131.193      119.318       78.683    17211.573    14236.719     6191.065        8.022        1.882      350.170       71.527        0.042      338.779       11.660      861.592
05/17/2013  23:40:00     -247.795      -72.843      -10.506      112.526      117.213       53.579    12662.100    13738.978     2870.660        4.804        1.464      258.280       44.773        0.030      338.768       11.642      861.565
05/17/2013  23:41:00     -281.901     -140.696       -8.821      128.984      123.905       58.425    16636.902    15352.338     3413.531        6.736        1.770      315.061       61.166        0.038      338.795       11.687      861.550
05/17/2013  23:42:00     -183.924      -10.970       -5.849      127.284      100.407       50.646    16201.150    10081.497     2565.009        3.141        1.442      184.251       51.389        0.078      338.786       11.672      861.569
05/17/2013  23:43:00     -226.744     -120.700      -14.405       98.937       98.191       57.297     9788.528     9641.433     3282.962        4.445        1.136      256.869       55.844        0.047      338.776       11.654      861.545
05/17/2013  23:44:00     -321.208      -47.199      -22.911       96.806      116.627       48.702     9371.398    13601.847     2371.926        6.563        1.267      324.657       38.790        0.014      338.759       11.624      861.533
05/17/2013  23:45:00     -372.557      -56.254      -25.212       83.529      101.532       50.640     6977.084    10308.656     2564.443        8.122        0.993      376.780       41.281        0.012      338.756       11.621      861.519
05/17/2013  23:46:00     -302.716      -96.354      -21.880      114.363       81.314       47.948    13078.892     6612.028     2299.013        6.169        1.099      317.681       40.261        0.016      338.747       11.606      861.520
05/17/2013  23:47:00     -265.182      -71.551      -19.684      130.176      113.540       59.508    16945.835    12891.388     3541.236        5.460        1.669      274.666       55.441        0.041      338.738       11.591      861.515
05/17/2013  23:48:00     -314.671      -53.150       -9.840      149.583       94.485       57.649    22375.113     8927.407     3323.415        6.828        1.731      319.128       60.832        0.036      338.730       11.577      861.508
05/17/2013  23:49:00     -317.616     -133.897      -11.500      114.470      113.101       65.453    13103.281    12791.930     4284.086        7.455        1.509      344.686       53.832        0.024      338.721       11.562      861.491
05/17/2013  23:50:00     -367.383     -105.575       -4.067      119.658      118.166       66.837    14318.106    13963.143     4467.195        8.943        1.637      382.252       64.392        0.028      338.725       11.570      861.496
05/17/2013  23:51:00     -306.478      -69.661      -20.660      126.749      116.923       56.927    16065.195    13671.098     3240.654        6.609        1.649      314.296       60.377        0.037      338.716       11.551      861.495
05/17/2013  23:52:00     -202.017     -107.562       -0.084      114.226       97.602       49.205    13047.476     9526.141     2421.142        3.868        1.250      228.868       53.913        0.055      338.709       11.542      861.513
05/17/2013  23:53:00     -282.788     -116.225       -4.176      124.307       99.406       64.753    15452.170     9881.571     4192.980        6.150        1.476      305.740       67.396        0.049      338.704       11.534      861.520
05/17/2013  23:54:00     -411.048      -42.210      -21.529      130.370      120.024       68.323    16996.253    14405.748     4667.974       10.363        1.803      413.210       73.635        0.032      338.714       11.549      861.539
05/17/2013  23:55:00     -275.149      -82.551      -11.467      112.206       95.609       57.963    12590.270     9141.086     3359.706        5.387        1.255      287.266       60.070        0.044      338.703       11.532      861.555
05/17/2013  23:56:00     -320.607      -30.240      -25.461      146.049       70.304       51.046    21330.305     4942.646     2605.737        6.661        1.444      322.030       63.538        0.039      338.694       11.517      861.575
05/17/2013  23:57:00     -211.216      -55.281       -5.504       91.726       79.842       44.482     8413.684     6374.770     1978.607        3.223        0.838      218.330       39.030        0.032      338.698       11.523      861.582
05/17/2013  23:58:00     -331.009      -28.154      -18.964       92.245       86.253       43.989     8509.179     7439.600     1935.054        6.430        0.894      332.204       48.618        0.021      338.715       11.552      861.596
05/17/2013  23:59:00     -265.787      -67.871      -21.201       74.297       72.720       40.611     5520.101     5288.152     1649.227        4.408        0.623      274.316       35.784        0.017      338.700       11.528      861.622
